[[{"header":{"parameterUnit":"m.s-1","parameterCategory":1,"la1":30.6,"la2":28.766,"lo1":-90.7593,"lo2":-88.6598,"dy":0.0162,"dx":0.0183,"nx":116,"ny":114,"refTime":"2023-03-23T12:00:00:Z","depth":0,"parameterNumber":2,"parameterNumberName":"U-component_of_WINDS"},"data":[0.0,0.0,0.0,0.0,0.0,0.0,0.0,0.0,0.0,0.0,0.0,0.0,0.0,0.0,0.0,0.0,0.0,0.0,0.0,0.0,0.0,0.0,0.0,0.0,0.0,0.0,0.0,0.0,0.0,0.0,0.0,0.0,0.0,0.0,0.0,0.0,0.0,0.0,0.0,0.0,0.0,0.0,0.0,0.0,0.0,0.0,0.0,0.0,0.0,0.0,0.0,0.0,0.0,0.0,0.0,0.0,0.0,0.0,0.0,0.0,0.0,0.0,0.0,0.0,0.0,0.0,0.0,0.0,0.0,0.0,0.0,0.0,0.0,0.0,0.0,0.0,0.0,0.0,0.0,0.0,0.0,0.0,0.0,0.0,0.0,0.0,0.0,0.0,0.0,0.0,0.0,0.0,0.0,0.0,0.0,0.0,0.0,0.0,0.0,0.0,0.0,0.0,0.0,0.0,0.0,0.0,0.0,0.0,0.0,0.0,0.0,0.0,0.0,0.0,0.0,0.0,0.0,0.0,0.0,0.0,0.0,0.0,0.0,0.0,0.0,0.0,0.0,0.0,0.0,0.0,0.0,0.0,0.0,0.0,0.0,0.0,0.0,0.0,0.0,0.0,0.0,0.0,0.0,0.0,0.0,0.0,0.0,0.0,0.0,0.0,0.0,0.0,0.0,0.0,0.0,0.0,0.0,0.0,0.0,0.0,0.0,0.0,0.0,0.0,0.0,0.0,0.0,0.0,0.0,0.0,0.0,0.0,0.0,0.0,0.0,0.0,0.0,0.0,0.0,0.0,0.0,0.0,0.0,0.0,0.0,0.0,0.0,0.0,0.0,0.0,0.0,0.0,0.0,0.0,0.0,0.0,0.0,0.0,0.0,0.0,0.0,0.0,0.0,0.0,0.0,0.0,0.0,0.0,0.0,0.0,0.0,0.0,0.0,0.0,0.0,0.0,0.0,0.0,0.0,0.0,0.0,0.0,0.0,0.0,0.0,0.0,0.0,0.0,0.0,0.0,0.0,0.0,0.0,0.0,0.0,0.0,0.0,0.0,0.0,0.0,0.0,0.0,0.0,0.0,0.0,0.0,0.0,0.0,0.0,0.0,0.0,0.0,0.0,0.0,0.0,0.0,0.0,0.0,0.0,0.0,0.0,0.0,0.0,0.0,0.0,0.0,0.0,0.0,0.0,0.0,0.0,0.0,0.0,0.0,0.0,0.0,0.0,0.0,0.0,0.0,0.0,0.0,0.0,0.0,0.0,0.0,0.0,0.0,0.0,0.0,0.0,0.0,0.0,0.0,0.0,0.0,0.0,0.0,0.0,0.0,0.0,0.0,0.0,0.0,0.0,0.0,0.0,0.0,0.0,0.0,0.0,0.0,0.0,0.0,0.0,0.0,0.0,0.0,0.0,0.0,0.0,0.0,0.0,0.0,0.0,0.0,0.0,0.0,0.0,0.0,0.0,0.0,0.0,0.0,0.0,0.0,0.0,0.0,0.0,0.0,0.0,0.0,0.0,0.0,0.0,0.0,0.0,0.0,0.0,0.0,0.0,0.0,0.0,0.0,0.0,0.0,0.0,0.0,0.0,0.0,0.0,0.0,0.0,0.0,0.0,0.0,0.0,0.0,0.0,0.0,0.0,0.0,0.0,0.0,0.0,0.0,0.0,0.0,0.0,0.0,0.0,0.0,0.0,0.0,0.0,0.0,0.0,0.0,0.0,0.0,0.0,0.0,0.0,0.0,0.0,0.0,0.0,0.0,0.0,0.0,0.0,0.0,0.0,0.0,0.0,0.0,0.0,0.0,0.0,0.0,0.0,0.0,0.0,0.0,0.0,0.0,0.0,0.0,0.0,0.0,0.0,0.0,0.0,0.0,0.0,0.0,0.0,0.0,0.0,0.0,0.0,0.0,0.0,0.0,0.0,0.0,0.0,0.0,0.0,0.0,0.0,0.0,0.0,0.0,0.0,0.0,0.0,0.0,0.0,0.0,0.0,0.0,0.0,0.0,0.0,0.0,0.0,0.0,0.0,0.0,0.0,0.0,0.0,0.0,0.0,0.0,0.0,0.0,0.0,0.0,0.0,0.0,0.0,0.0,0.0,0.0,0.0,0.0,0.0,0.0,0.0,0.0,0.0,0.0,0.0,0.0,0.0,0.0,0.0,0.0,0.0,0.0,0.0,0.0,0.0,0.0,0.0,0.0,0.0,0.0,0.0,0.0,0.0,0.0,0.0,0.0,0.0,0.0,0.0,0.0,0.0,0.0,0.0,0.0,0.0,0.0,0.0,0.0,0.0,0.0,0.0,0.0,0.0,0.0,0.0,0.0,0.0,0.0,0.0,0.0,0.0,0.0,0.0,0.0,0.0,0.0,0.0,0.0,0.0,0.0,0.0,0.0,0.0,0.0,0.0,0.0,0.0,0.0,0.0,0.0,0.0,0.0,0.0,0.0,0.0,0.0,0.0,0.0,0.0,0.0,0.0,0.0,0.0,0.0,0.0,0.0,0.0,0.0,0.0,0.0,0.0,0.0,0.0,0.0,0.0,0.0,0.0,0.0,0.0,0.0,0.0,0.0,0.0,0.0,0.0,0.0,0.0,0.0,0.0,0.0,0.0,0.0,0.0,0.0,0.0,0.0,0.0,0.0,0.0,0.0,0.0,0.0,0.0,0.0,0.0,0.0,0.0,0.0,0.0,0.0,0.0,0.0,0.0,0.0,0.0,0.0,0.0,0.0,0.0,0.0,0.0,0.0,0.0,0.0,0.0,0.0,0.0,0.0,0.0,0.0,0.0,0.0,0.0,0.0,0.0,0.0,0.0,0.0,0.0,0.0,0.0,0.0,0.0,0.0,0.0,0.0,0.0,0.0,0.0,0.0,0.0,0.0,0.0,0.0,0.0,0.0,0.0,0.0,0.0,0.0,0.0,0.0,0.0,0.0,0.0,0.0,0.0,0.0,0.0,0.0,0.0,0.0,0.0,0.0,0.0,0.0,0.0,0.0,0.0,0.0,0.0,0.0,0.0,0.0,0.0,0.0,0.0,0.0,0.0,0.0,0.0,0.0,0.0,0.0,0.0,0.0,0.0,0.0,0.0,0.0,0.0,0.0,0.0,0.0,0.0,0.0,0.0,0.0,0.0,0.0,0.0,0.0,0.0,0.0,0.0,0.0,0.0,0.0,0.0,0.0,0.0,0.0,0.0,0.0,0.0,0.0,0.0,0.0,0.0,0.0,0.0,0.0,0.0,0.0,0.0,0.0,0.0,0.0,0.0,0.0,0.0,0.0,0.0,0.0,0.0,0.0,0.0,0.0,0.0,0.0,0.0,0.0,0.0,0.0,0.0,0.0,0.0,0.0,0.0,0.0,0.0,0.0,0.0,0.0,0.0,0.0,0.0,0.0,0.0,0.0,0.0,0.0,0.0,0.0,0.0,0.0,0.0,0.0,0.0,0.0,0.0,0.0,0.0,0.0,0.0,0.0,0.0,0.0,0.0,0.0,0.0,0.0,0.0,0.0,0.0,0.0,0.0,0.0,0.0,0.0,0.0,0.0,0.0,0.0,0.0,0.0,0.0,0.0,0.0,0.0,0.0,0.0,0.0,0.0,0.0,0.0,0.0,0.0,0.0,0.0,0.0,0.0,0.0,0.0,0.0,0.0,0.0,0.0,0.0,0.0,0.0,0.0,0.0,0.0,0.0,0.0,0.0,0.0,0.0,0.0,0.0,0.0,0.0,0.0,0.0,0.0,0.0,0.0,0.0,0.0,0.0,0.0,0.0,0.0,0.0,0.0,0.0,0.0,0.0,0.0,0.0,0.0,0.0,0.0,0.0,0.0,0.0,0.0,0.0,0.0,0.0,0.0,0.0,0.0,0.0,0.0,0.0,0.0,0.0,0.0,0.0,0.0,0.0,0.0,0.0,0.0,0.0,0.0,0.0,0.0,0.0,0.0,0.0,0.0,0.0,0.0,0.0,0.0,0.0,0.0,0.0,0.0,0.0,0.0,0.0,0.0,0.0,0.0,0.0,0.0,0.0,0.0,0.0,0.0,0.0,0.0,0.0,0.0,0.0,0.0,0.0,0.0,0.0,0.0,0.0,0.0,0.0,0.0,0.0,0.0,0.0,0.0,0.0,0.0,0.0,0.0,0.0,0.0,0.0,0.0,0.0,0.0,0.0,0.0,0.0,0.0,0.0,0.0,0.0,0.0,0.0,0.0,0.0,0.0,0.0,0.0,0.0,0.0,0.0,0.0,0.0,0.0,0.0,0.0,0.0,0.0,0.0,0.0,0.0,0.0,0.0,0.0,0.0,0.0,0.0,0.0,0.0,0.0,0.0,0.0,0.0,0.0,0.0,0.0,0.0,0.0,0.0,0.0,0.0,0.0,0.0,0.0,0.0,0.0,0.0,0.0,0.0,0.0,0.0,0.0,0.0,0.0,0.0,0.0,0.0,0.0,0.0,0.0,0.0,0.0,0.0,0.0,0.0,0.0,0.0,0.0,0.0,0.0,0.0,0.0,0.0,0.0,0.0,0.0,0.0,0.0,0.0,0.0,0.0,0.0,0.0,0.0,0.0,0.0,0.0,0.0,0.0,0.0,0.0,0.0,0.0,0.0,0.0,0.0,0.0,0.0,0.0,0.0,0.0,0.0,0.0,0.0,0.0,0.0,0.0,0.0,0.0,0.0,0.0,0.0,0.0,0.0,0.0,0.0,0.0,0.0,0.0,0.0,0.0,0.0,0.0,0.0,0.0,0.0,0.0,0.0,0.0,0.0,0.0,0.0,0.0,0.0,0.0,0.0,0.0,0.0,0.0,0.0,0.0,0.0,0.0,0.0,0.0,0.0,0.0,0.0,0.0,0.0,0.0,0.0,0.0,0.0,0.0,0.0,0.0,0.0,0.0,0.0,0.0,0.0,0.0,0.0,0.0,0.0,0.0,0.0,0.0,0.0,0.0,0.0,0.0,0.0,0.0,0.0,0.0,0.0,0.0,0.0,0.0,0.0,0.0,0.0,0.0,0.0,0.0,0.0,0.0,0.0,0.0,0.0,0.0,0.0,0.0,0.0,0.0,0.0,0.0,0.0,0.0,0.0,0.0,0.0,0.0,0.0,0.0,0.0,0.0,0.0,0.0,0.0,0.0,0.0,0.0,0.0,0.0,0.0,0.0,0.0,0.0,0.0,0.0,0.0,0.0,0.0,0.0,0.0,0.0,0.0,0.0,0.0,0.0,0.0,0.0,0.0,0.0,0.0,0.0,0.0,0.0,0.0,0.0,0.0,0.0,0.0,0.0,0.0,0.0,0.0,0.0,0.0,0.0,0.0,0.0,0.0,0.0,0.0,0.0,0.0,0.0,0.0,0.0,0.0,0.0,0.0,0.0,0.0,0.0,0.0,0.0,0.0,0.0,0.0,0.0,0.0,0.0,0.0,0.0,0.0,0.0,0.0,0.0,0.0,0.0,0.0,0.0,0.0,0.0,0.0,0.0,0.0,0.0,0.0,0.0,0.0,0.0,0.0,0.0,0.0,0.0,0.0,0.0,0.0,0.0,0.0,0.0,0.0,0.0,0.0,0.0,0.0,0.0,0.0,0.0,0.0,0.0,0.0,0.0,0.0,0.0,0.0,0.0,0.0,0.0,0.0,0.0,0.0,0.0,0.0,0.0,0.0,0.0,0.0,0.0,0.0,0.0,0.0,0.0,0.0,0.0,0.0,0.0,0.0,0.0,0.0,0.0,0.0,0.0,0.0,0.0,0.0,0.0,0.0,0.0,0.0,0.0,0.0,0.0,0.0,0.0,0.0,0.0,0.0,0.0,0.0,0.0,0.0,0.0,0.0,0.0,0.0,0.0,0.0,0.0,0.0,0.0,0.0,0.0,0.0,0.0,0.0,0.0,0.0,0.0,0.0,0.0,0.0,0.0,0.0,0.0,0.0,0.0,0.0,0.0,0.0,0.0,0.0,0.0,0.0,0.0,0.0,0.0,0.0,0.0,0.0,0.0,0.0,0.0,0.0,0.0,0.0,0.0,0.0,0.0,0.0,0.0,0.0,0.0,0.0,0.0,0.0,0.0,0.0,0.0,0.0,0.0,0.0,0.0,0.0,0.0,0.0,4.207,0.0,0.0,0.0,0.0,0.0,0.0,0.0,0.0,0.0,0.0,0.0,0.0,0.0,0.0,0.0,0.0,0.0,0.0,0.0,0.0,0.0,0.0,0.0,0.0,0.0,0.0,0.0,0.0,0.0,0.0,0.0,0.0,0.0,0.0,0.0,0.0,0.0,0.0,0.0,0.0,0.0,0.0,0.0,0.0,0.0,0.0,0.0,0.0,0.0,0.0,0.0,0.0,0.0,0.0,0.0,0.0,0.0,0.0,0.0,0.0,0.0,0.0,0.0,0.0,0.0,0.0,0.0,0.0,0.0,0.0,0.0,0.0,0.0,0.0,0.0,0.0,0.0,0.0,0.0,0.0,0.0,0.0,0.0,0.0,0.0,0.0,0.0,0.0,0.0,0.0,0.0,0.0,0.0,0.0,0.0,0.0,0.0,0.0,0.0,0.0,0.0,0.0,0.0,0.0,0.0,0.0,0.0,0.0,0.0,0.0,0.0,0.0,0.0,0.0,0.0,0.0,4.2731,0.0,0.0,0.0,0.0,0.0,0.0,0.0,0.0,0.0,0.0,0.0,0.0,0.0,0.0,0.0,0.0,0.0,0.0,0.0,0.0,0.0,0.0,0.0,0.0,0.0,0.0,0.0,0.0,0.0,0.0,0.0,0.0,0.0,0.0,0.0,0.0,0.0,0.0,0.0,0.0,0.0,0.0,0.0,0.0,0.0,0.0,0.0,0.0,0.0,0.0,0.0,0.0,0.0,0.0,0.0,0.0,0.0,0.0,0.0,0.0,0.0,0.0,0.0,0.0,0.0,0.0,0.0,0.0,0.0,0.0,0.0,0.0,0.0,0.0,0.0,0.0,0.0,0.0,0.0,0.0,0.0,0.0,0.0,0.0,0.0,0.0,0.0,0.0,0.0,0.0,0.0,0.0,0.0,0.0,0.0,0.0,0.0,0.0,0.0,0.0,0.0,0.0,0.0,0.0,0.0,0.0,0.0,0.0,4.7326,4.754,4.754,4.7506,4.8573,5.0283,4.7418,4.7328,4.8836,0.0,0.0,0.0,0.0,0.0,0.0,0.0,0.0,0.0,0.0,0.0,0.0,0.0,0.0,0.0,0.0,0.0,0.0,0.0,0.0,0.0,0.0,0.0,3.5493,3.5493,3.6238,0.0,0.0,0.0,0.0,0.0,0.0,0.0,0.0,0.0,0.0,0.0,0.0,0.0,5.2171,5.2175,5.1995,5.1538,4.8927,0.0,0.0,0.0,0.0,0.0,0.0,0.0,0.0,0.0,0.0,0.0,0.0,0.0,0.0,0.0,0.0,0.0,0.0,0.0,0.0,0.0,0.0,0.0,0.0,0.0,0.0,0.0,0.0,0.0,0.0,0.0,0.0,0.0,0.0,0.0,0.0,0.0,0.0,0.0,0.0,0.0,0.0,0.0,4.5656,4.5773,0.0,0.0,0.0,0.0,0.0,0.0,0.0,0.0,0.0,0.0,0.0,0.0,0.0,0.0,4.6192,4.8386,4.9496,4.9527,5.1807,5.2879,5.2879,5.2699,5.3196,5.4155,5.3522,0.0,4.9123,4.8414,0.0,0.0,0.0,0.0,0.0,0.0,0.0,0.0,0.0,0.0,0.0,0.0,0.0,0.0,0.0,0.0,0.0,0.0,0.0,0.0,0.0,0.0,3.7642,3.7642,4.0123,4.1258,0.0,0.0,0.0,0.0,0.0,0.0,0.0,0.0,0.0,0.0,5.1562,5.3444,5.4888,5.4888,5.4888,5.4849,5.3698,5.155,4.872,4.7608,0.0,0.0,0.0,0.0,0.0,0.0,0.0,0.0,0.0,0.0,0.0,0.0,0.0,0.0,0.0,0.0,0.0,0.0,0.0,0.0,0.0,0.0,0.0,0.0,0.0,0.0,0.0,0.0,0.0,0.0,0.0,0.0,0.0,0.0,0.0,0.0,0.0,0.0,0.0,4.3669,4.4473,4.546,4.4133,4.2747,0.0,0.0,0.0,0.0,0.0,0.0,0.0,0.0,0.0,4.9727,4.9811,5.0491,5.1973,5.3101,5.3638,5.3677,5.4807,5.5353,5.5353,5.5278,5.5372,5.5631,5.5544,5.4552,5.2819,5.0892,4.8579,4.6082,0.0,0.0,0.0,0.0,4.3505,4.3962,0.0,0.0,0.0,0.0,0.0,0.0,0.0,0.0,0.0,0.0,0.0,0.0,3.6469,3.8757,4.0258,4.0258,4.3528,4.4509,4.197,0.0,0.0,0.0,0.0,0.0,0.0,0.0,0.0,5.2702,5.3366,5.4693,5.6606,5.6606,5.6606,5.6606,5.6606,5.4439,5.075,5.0059,4.8673,0.0,0.0,0.0,0.0,0.0,0.0,0.0,0.0,0.0,0.0,0.0,0.0,0.0,0.0,0.0,0.0,0.0,0.0,0.0,0.0,0.0,0.0,0.0,0.0,0.0,0.0,0.0,0.0,0.0,0.0,0.0,0.0,0.0,0.0,0.0,0.0,0.0,0.0,4.4577,4.5269,4.5902,4.5984,4.5226,0.0,0.0,0.0,0.0,0.0,0.0,4.9764,4.9785,5.0949,5.3512,5.3598,5.4534,5.6483,5.6503,5.6503,5.6503,5.6503,5.6503,5.6503,5.6503,5.6427,5.6283,5.6283,5.6168,5.5788,5.3169,5.1505,5.0356,4.7912,4.6433,4.5776,4.66,4.6896,4.7362,0.0,0.0,0.0,0.0,0.0,0.0,0.0,0.0,0.0,0.0,0.0,3.9104,3.9104,4.1373,4.2912,4.2912,4.4547,4.4509,4.197,4.3374,4.3162,0.0,0.0,0.0,0.0,0.0,0.0,5.2702,5.5181,5.6469,5.6606,5.6606,5.6606,5.6606,5.6606,5.645,5.604,5.3493,5.233,5.1784,0.0,0.0,0.0,0.0,0.0,0.0,0.0,0.0,0.0,0.0,0.0,0.0,0.0,0.0,0.0,0.0,0.0,0.0,0.0,0.0,0.0,0.0,0.0,0.0,0.0,0.0,0.0,0.0,0.0,0.0,0.0,0.0,0.0,0.0,0.0,0.0,0.0,0.0,0.0,4.8889,5.0761,0.0,0.0,0.0,0.0,4.8603,4.872,4.9885,5.2361,5.2438,5.3611,5.6216,5.6308,5.6375,5.6503,5.6503,5.6503,5.6503,5.6503,5.6503,5.6503,5.6503,5.6483,5.6483,5.6483,5.6358,5.6162,5.5796,5.3759,5.0855,5.0685,4.8697,4.6261,4.9319,5.0447,5.0893,0.0,0.0,0.0,0.0,0.0,0.0,0.0,0.0,0.0,3.5493,3.7719,3.9296,3.9296,4.3047,4.5759,4.6278,4.8875,4.9644,4.7663,4.7048,4.5657,0.0,0.0,0.0,0.0,0.0,5.2585,5.5201,5.6138,5.6606,5.6606,5.6606,5.6606,5.6606,5.6606,5.6606,5.6547,5.5582,5.4181,5.2447,5.0608,4.7872,0.0,0.0,0.0,0.0,0.0,0.0,0.0,0.0,0.0,0.0,0.0,0.0,0.0,0.0,0.0,0.0,0.0,0.0,0.0,0.0,0.0,0.0,0.0,0.0,0.0,0.0,0.0,0.0,0.0,0.0,0.0,0.0,0.0,0.0,0.0,0.0,0.0,4.9103,5.1117,0.0,0.0,5.0317,5.1316,5.1316,5.2878,5.422,5.5095,5.5117,5.554,5.647,5.6491,5.6503,5.6503,5.6503,5.6503,5.6503,5.6503,5.6503,5.6503,5.6503,5.6503,5.6503,5.6503,5.6465,5.6398,5.632,5.5423,5.4123,5.4119,5.3398,5.2521,5.3546,5.3918,5.4073,0.0,0.0,0.0,0.0,0.0,0.0,0.0,0.0,0.0,3.6661,3.9008,4.0912,4.1777,4.5643,4.8509,4.9317,5.1722,5.2125,4.9586,4.8641,4.6687,0.0,4.2482,0.0,0.0,5.1791,5.3971,5.6606,5.6606,5.6606,5.6606,5.6606,5.6606,5.6606,5.6577,5.6572,5.6553,5.6542,5.5516,5.3813,5.2948,5.0537,4.7267,0.0,0.0,0.0,0.0,0.0,0.0,0.0,0.0,0.0,0.0,0.0,0.0,0.0,0.0,0.0,0.0,0.0,0.0,0.0,0.0,0.0,0.0,0.0,0.0,0.0,0.0,0.0,0.0,0.0,0.0,0.0,0.0,0.0,0.0,0.0,5.1669,4.9103,5.1898,5.2975,5.0332,5.2464,5.401,5.401,5.5611,5.6575,5.6534,5.6518,5.6504,5.6504,5.6493,5.6509,5.6496,5.6496,5.6508,5.6503,5.6503,5.6503,5.6503,5.6503,5.6503,5.6503,5.6492,5.65,5.65,5.6491,5.6338,5.611,5.6051,5.6024,5.6001,5.584,5.5768,5.575,0.0,0.0,0.0,0.0,0.0,0.0,0.0,0.0,0.0,3.8965,4.1527,4.4066,4.6606,4.9163,5.1029,5.1875,5.2722,5.1452,4.7336,4.7841,4.6061,0.0,0.0,0.0,5.2585,5.278,5.4068,5.6606,5.6606,5.6606,5.6606,5.6606,5.6606,5.6582,5.6536,5.6498,5.6498,5.6422,5.6405,5.6171,5.3715,5.2625,5.1969,0.0,0.0,0.0,0.0,0.0,0.0,0.0,0.0,0.0,0.0,0.0,0.0,0.0,0.0,0.0,0.0,0.0,0.0,0.0,0.0,0.0,0.0,0.0,0.0,0.0,0.0,0.0,0.0,0.0,0.0,0.0,0.0,0.0,4.9259,5.1171,5.1878,4.9338,5.3513,5.5582,5.2986,5.507,5.6606,5.6606,5.6606,5.6606,5.6606,5.6532,5.6502,5.6502,5.6502,5.6504,5.6509,5.6509,5.6504,5.6503,5.6503,5.6503,5.6503,5.6503,5.6503,5.6511,5.6508,5.6496,5.6496,5.6498,5.6491,5.6484,5.6359,5.6232,5.6097,5.5959,5.5915,5.588,0.0,0.0,0.0,0.0,0.0,0.0,0.0,0.0,3.6477,3.8919,4.1459,4.3978,4.6474,4.9067,5.12,5.2641,5.3028,5.2473,5.0771,4.918,4.6913,4.3817,0.0,0.0,5.2663,5.4556,5.5884,5.6606,5.6606,5.6606,5.6606,5.6548,5.6536,5.6517,5.6464,5.6422,5.6422,5.6414,5.6368,5.6281,5.557,5.4169,5.2348,0.0,0.0,0.0,0.0,0.0,0.0,0.0,0.0,0.0,0.0,0.0,0.0,0.0,0.0,0.0,0.0,0.0,0.0,0.0,0.0,0.0,0.0,0.0,0.0,0.0,0.0,0.0,0.0,0.0,0.0,0.0,0.0,5.2386,5.1659,5.384,5.5259,5.4548,5.5723,5.6309,5.5562,5.6172,5.6606,5.6606,5.6606,5.6606,5.6606,5.6575,5.6549,5.6502,5.6503,5.6499,5.6509,5.6509,5.6504,5.6503,5.6503,5.6503,5.6503,5.6503,5.6503,5.6503,5.6492,5.65,5.6496,5.6498,5.6491,5.6509,5.6452,5.6446,5.6432,5.6261,5.6057,5.588,0.0,0.0,0.0,0.0,0.0,0.0,0.0,0.0,3.6872,4.0345,4.2078,4.4363,4.7893,4.966,5.1275,5.2946,5.2223,5.1334,5.0568,4.8205,4.7223,4.8073,5.1054,5.321,5.4303,5.5825,5.6606,5.6606,5.6606,5.6606,5.6606,5.6536,5.6504,5.6498,5.6405,5.6359,5.6359,5.6359,5.6347,5.6294,5.6294,5.5408,5.3969,5.2981,5.1646,5.0168,4.9126,4.8729,4.8472,4.6999,0.0,0.0,0.0,0.0,0.0,0.0,0.0,0.0,0.0,0.0,0.0,0.0,0.0,0.0,0.0,0.0,0.0,0.0,0.0,0.0,0.0,0.0,0.0,0.0,5.2551,5.4284,5.4284,5.5621,5.6606,5.6606,5.6606,5.6606,5.6606,5.6606,5.6606,5.6606,5.6606,5.6606,5.6606,5.6606,5.6575,5.6532,5.6532,5.6523,5.6493,5.6493,5.6503,5.6503,5.6503,5.6503,5.6503,5.6503,5.6503,0.0,5.6508,5.6496,5.651,5.6536,5.6548,0.0,0.0,0.0,0.0,0.0,5.6158,5.5959,0.0,0.0,0.0,0.0,0.0,0.0,0.0,3.5693,3.7441,4.236,4.2981,4.4901,4.9944,5.0562,5.1275,5.2946,5.0892,4.9173,4.8387,4.6678,4.7786,5.2487,5.2975,5.4225,5.6547,5.6606,5.6606,5.6606,5.6606,5.6602,5.6582,5.6511,5.6478,5.6471,5.6349,5.6297,5.6297,5.6297,5.6291,5.6291,5.6291,5.6291,5.6052,5.3857,5.2991,5.263,5.0363,4.9554,4.9515,4.9223,0.0,0.0,0.0,0.0,0.0,0.0,0.0,0.0,0.0,0.0,0.0,0.0,0.0,0.0,0.0,0.0,0.0,0.0,0.0,0.0,0.0,0.0,0.0,0.0,5.4855,5.6606,5.6582,5.6602,5.6606,5.6606,5.6606,5.6606,5.6606,5.6606,5.6606,5.6606,5.6606,5.6606,5.6606,0.0,0.0,0.0,0.0,5.6571,5.6497,5.6495,5.6489,5.65,5.6511,5.6503,5.6503,5.6503,5.6511,5.6492,5.6503,5.6504,5.6511,5.6553,5.6586,5.6606,5.6606,5.6606,5.6582,5.6359,5.6212,5.6097,0.0,0.0,0.0,0.0,0.0,0.0,0.0,3.5693,3.7431,4.2291,4.2909,4.4844,4.9879,5.0478,5.1214,5.2946,5.0892,4.9224,4.8584,5.0192,5.1625,5.2663,5.4713,5.6079,5.6586,5.6606,5.6606,5.6606,5.6606,5.6577,5.6511,5.6457,5.6377,5.6339,5.6314,5.6297,5.6297,5.6304,5.6291,5.6291,5.6291,5.6291,5.6246,5.5772,5.5586,5.55,5.5013,5.4827,5.4509,5.2391,5.1725,5.1405,4.9352,0.0,0.0,0.0,0.0,0.0,0.0,0.0,0.0,0.0,0.0,0.0,0.0,0.0,0.0,0.0,0.0,0.0,0.0,0.0,0.0,5.2519,5.4839,5.6577,5.6536,5.6572,5.6606,5.6606,5.6606,5.6606,5.6606,5.6606,5.6606,5.6606,5.6606,5.6606,5.6606,5.6606,0.0,5.6606,5.6606,5.6563,5.6503,5.65,5.6501,5.6491,0.0,0.0,5.6503,5.6503,5.6492,5.6508,5.6496,5.6498,5.6503,5.6509,5.6558,5.6606,5.6606,5.6606,5.6582,5.6359,5.6279,5.6252,0.0,0.0,0.0,0.0,0.0,0.0,0.0,3.5678,3.6949,4.0581,4.1048,4.2468,4.6241,4.6723,4.7453,4.9239,4.9175,4.8953,4.8724,5.1206,5.3288,5.4596,5.5903,5.6606,5.6606,5.6606,5.6606,5.6606,5.6572,5.6536,5.6504,5.6405,5.6339,5.6308,5.6309,5.6291,5.6291,5.6291,5.6291,5.6291,5.6291,5.6291,5.6291,5.629,5.6297,5.6291,5.629,5.6297,5.6097,5.4796,5.4361,5.4171,5.2889,5.1638,5.0091,0.0,0.0,0.0,0.0,0.0,0.0,0.0,0.0,0.0,0.0,0.0,0.0,0.0,0.0,4.9186,0.0,0.0,5.3813,5.5567,5.6971,5.7831,5.7816,5.7826,5.7543,5.6704,5.6606,5.6606,5.6606,5.6606,5.6606,5.6606,5.6606,5.6606,5.6606,5.6606,5.6606,5.6606,5.6606,5.6563,5.6502,5.6504,5.6495,5.6509,5.6504,5.6496,5.6503,5.6503,5.6492,5.65,5.6508,5.6491,5.6497,5.6533,5.6563,5.6606,5.6606,5.6606,5.6582,5.6497,5.6446,5.6439,0.0,0.0,0.0,0.0,0.0,0.0,0.0,0.0,0.0,3.8888,3.9183,4.0142,4.2675,4.2979,4.3558,4.4896,4.7679,4.9198,4.8814,5.1726,5.44,5.6508,5.6606,5.6606,5.6606,5.6606,5.6606,5.6606,5.6536,5.6498,5.6471,5.6359,5.6308,5.6286,5.6297,5.6291,5.6291,5.6291,5.6291,5.6291,5.6291,5.6291,5.6291,5.6291,5.6291,5.6291,5.6291,5.6291,5.6291,5.6291,5.6291,5.6291,5.6291,5.4879,5.2638,4.9586,4.8672,0.0,0.0,0.0,0.0,0.0,0.0,0.0,0.0,0.0,4.728,4.9837,5.0508,5.1472,5.4295,5.4849,5.5818,5.8601,5.9072,5.9075,5.909,5.9095,5.8597,5.725,5.7094,5.7094,5.7094,5.7094,5.7094,5.7094,5.7094,5.7094,5.7094,5.7094,5.7094,5.7094,5.6918,5.6813,5.6753,5.6579,5.6503,5.6499,5.6489,5.6504,5.6503,5.6503,5.6511,5.6492,5.6496,5.6517,5.6517,5.6577,5.6606,5.6606,5.6606,5.6606,5.6606,5.6606,5.6606,5.6582,0.0,0.0,0.0,0.0,0.0,0.0,0.0,0.0,0.0,3.8885,3.9183,4.0188,4.278,4.3081,4.2957,4.2613,4.8405,5.1128,4.8931,5.3424,5.6294,5.6586,5.6606,5.6606,5.6606,5.6606,5.6606,5.6606,5.6536,5.6464,5.6414,5.6339,5.6306,5.6304,5.6291,5.6291,5.6291,5.6291,5.6291,5.6291,5.6291,5.6291,5.6291,5.6291,5.6291,5.6291,5.6291,5.6291,5.6291,5.6291,5.6291,5.6291,5.6291,5.6097,5.4925,5.0048,0.0,4.7484,4.2316,4.3025,4.5705,4.7686,4.8172,4.9379,0.0,0.0,5.3536,5.6144,5.7303,5.7965,5.8344,5.8422,5.853,5.886,5.8975,5.9014,5.9022,5.9053,5.9026,5.8851,5.8812,5.8812,5.8812,5.8812,5.8812,5.8812,5.8812,5.8812,5.8812,5.8812,5.8812,5.8812,5.807,5.7664,5.7645,5.6886,5.6504,5.649,5.6504,5.6504,5.6503,5.6503,5.6492,5.6496,5.6511,5.6528,5.6582,5.6606,5.6606,5.6606,5.6606,5.6606,5.6606,5.6606,5.6606,5.6606,0.0,0.0,0.0,0.0,0.0,0.0,0.0,0.0,0.0,0.0,0.0,3.752,3.8614,3.9685,4.0422,4.0727,4.6618,4.9908,4.8876,5.3698,5.6606,5.6606,5.6606,5.6606,5.6606,5.6606,5.6577,5.6542,5.6471,5.6414,5.6339,5.6306,5.6297,5.6291,5.6291,5.6291,5.6291,5.6291,5.6291,5.6291,5.6291,5.6291,5.6291,5.6291,5.6291,5.6175,5.5145,5.4796,0.0,0.0,5.4796,5.4951,5.5981,5.5262,5.3319,4.9668,4.8599,0.0,4.7784,4.7317,0.0,0.0,5.1183,5.2127,5.4288,5.4638,5.5233,5.7803,5.862,5.9029,5.9554,5.9698,5.9903,0.0,6.0508,6.0567,6.0575,6.0592,6.0607,6.0607,6.0607,6.0217,5.9202,5.9104,5.9104,5.9104,5.9104,5.9104,5.9104,5.9104,5.9104,5.9104,5.8753,5.8558,5.8558,5.8199,5.7767,5.7265,5.7254,5.6992,5.6498,5.6496,5.6496,5.6491,5.6497,5.6509,5.6538,5.6582,5.6606,5.6606,5.6606,5.6606,5.6606,5.6606,5.6606,5.6606,0.0,0.0,0.0,0.0,0.0,0.0,0.0,0.0,0.0,0.0,0.0,0.0,0.0,3.7622,3.8994,3.9677,4.4645,4.8053,4.8751,5.3006,5.5811,5.6509,5.6553,5.6577,5.6577,5.6582,5.6572,5.6504,5.643,5.6368,5.6308,5.6309,5.6291,5.6291,5.6291,5.6291,5.6291,5.6291,5.6291,5.6291,5.6291,5.6291,5.6291,5.6291,5.5845,5.5068,5.3786,5.3339,0.0,0.0,5.229,5.2504,5.3786,5.2873,5.0853,4.8308,4.7045,4.7045,4.9609,0.0,0.0,5.2057,5.3786,5.4835,5.5048,5.5786,5.6932,5.8778,5.936,5.971,6.0332,6.0546,0.0,6.1413,6.1584,6.1648,6.1634,6.1634,6.166,6.1666,6.1671,6.1183,5.9944,5.9827,5.9827,5.9827,5.9827,5.9827,5.9827,5.9827,5.9827,5.9827,5.9573,5.9456,5.9456,5.9222,5.8788,5.8162,5.8164,5.7821,5.7216,5.6966,5.6725,5.6491,5.6503,5.6509,5.6533,5.6582,5.6606,5.6606,5.6606,5.6606,5.6626,5.686,5.6782,5.6606,0.0,0.0,0.0,0.0,0.0,0.0,0.0,0.0,0.0,0.0,0.0,0.0,0.0,0.0,0.0,3.9797,4.306,4.6152,4.8638,5.1258,5.3819,5.6297,5.6464,5.6504,5.6504,5.6572,5.6572,5.6504,5.643,5.6368,5.6308,5.6309,5.6291,5.6291,5.6291,5.6291,5.6291,5.6291,5.6291,5.6291,5.6291,5.6291,5.6291,5.6291,5.4737,5.2504,5.2465,0.0,0.0,0.0,4.8755,4.8755,4.8813,4.8774,0.0,4.5666,4.3122,0.0,0.0,0.0,4.9415,5.2814,5.5592,5.769,5.8467,5.9322,5.9963,6.004,6.074,6.1342,6.1361,6.1361,6.1408,6.1491,6.1503,6.1507,6.151,6.151,6.1528,6.1595,6.1595,6.1609,0.0,6.1622,6.1622,6.1622,6.1622,6.1622,6.1622,6.1622,6.1622,6.1622,6.0803,6.0354,6.0354,5.9514,5.9101,5.9059,5.906,5.9042,5.8987,5.8161,5.7291,5.6509,5.6509,5.6533,5.6606,5.6606,5.6606,5.6606,5.6606,5.6606,5.6684,5.7484,5.727,5.6606,0.0,0.0,0.0,0.0,0.0,0.0,0.0,0.0,0.0,0.0,0.0,0.0,0.0,0.0,0.0,0.0,0.0,0.0,4.623,5.0249,5.2987,5.3832,5.5521,5.643,5.643,5.6504,5.6471,5.6359,5.6377,5.6369,5.6309,5.6304,5.6291,5.6291,5.6291,5.6291,5.6291,5.6291,5.6291,5.6291,5.6291,5.6291,5.6117,5.4368,5.3164,5.196,0.0,0.0,0.0,0.0,0.0,0.0,4.823,0.0,0.0,4.2966,0.0,0.0,0.0,0.0,5.2678,5.5573,5.7787,5.9322,5.9593,6.0332,6.0953,6.0953,5.9399,5.802,5.802,5.8039,5.8095,5.8098,6.0019,6.151,6.151,6.1537,6.1561,6.1595,6.1634,0.0,0.0,0.0,0.0,6.1701,6.1701,6.1701,6.1701,6.1701,6.1701,6.1701,6.1427,6.1252,6.1252,6.0978,6.0534,5.996,5.9387,5.9081,5.9023,5.8772,5.8476,5.8157,5.8215,5.8241,5.8265,5.8265,5.8265,5.8265,5.8265,5.8265,5.8285,5.8558,5.8499,5.8265,0.0,0.0,0.0,0.0,0.0,0.0,0.0,0.0,0.0,0.0,0.0,0.0,0.0,0.0,0.0,0.0,0.0,0.0,4.4899,4.8025,5.0251,5.1174,5.2804,5.3674,5.3674,5.3735,5.3696,5.3575,5.4556,5.4986,5.4932,5.5864,5.6291,5.6291,5.6291,5.6291,5.6291,5.6291,5.5767,5.4912,5.4912,5.4349,5.3378,5.1688,5.0484,0.0,0.0,0.0,0.0,0.0,0.0,0.0,0.0,0.0,0.0,0.0,0.0,0.0,0.0,5.2018,5.4465,5.769,5.9302,6.0176,6.0487,6.1011,6.14,6.14,5.8681,5.6291,5.6291,5.6329,5.5967,5.4743,5.7672,6.001,5.9717,5.9969,6.0531,6.1497,6.1634,0.0,0.0,0.0,0.0,6.1701,6.1701,6.1701,6.1701,6.1701,6.1701,6.1701,6.1701,6.1701,6.1701,6.1701,6.1427,6.0861,6.0301,5.9837,5.9461,5.9512,5.9336,5.8999,5.9043,5.906,5.906,5.906,5.906,5.906,5.906,5.9055,5.9107,5.9419,5.9536,5.9494,0.0,0.0,0.0,0.0,0.0,0.0,0.0,0.0,0.0,0.0,0.0,0.0,0.0,0.0,0.0,0.0,0.0,0.0,4.4538,4.483,4.5982,4.8402,4.8691,4.8788,4.8788,4.8801,4.8772,4.8709,5.1195,5.2339,5.2251,5.4757,5.5903,5.5903,5.5903,5.5903,5.5903,5.5903,5.4465,5.2212,5.2212,5.0755,4.858,4.8463,4.689,4.4773,0.0,0.0,0.0,0.0,0.0,0.0,0.0,0.0,0.0,0.0,0.0,4.6482,5.2154,5.3863,5.499,5.9069,6.0137,6.037,6.1206,6.14,6.1361,6.1186,5.8428,5.5981,0.0,0.0,5.4976,5.1736,5.4902,5.7527,5.6766,5.7323,5.8744,0.0,0.0,0.0,0.0,0.0,0.0,6.1696,0.0,6.1701,6.1701,6.1701,6.1701,6.1701,6.1701,6.1701,6.1701,6.1701,6.1701,6.1701,6.1701,6.1229,6.0368,6.0354,5.9901,5.9134,5.9139,5.9139,5.9139,5.9139,5.9139,5.9139,5.9139,5.9123,5.9238,6.0058,6.0351,6.0254,0.0,0.0,0.0,0.0,0.0,0.0,0.0,0.0,0.0,0.0,0.0,0.0,0.0,0.0,0.0,0.0,0.0,0.0,4.1979,4.3846,4.5195,4.5845,4.7703,4.8729,4.8729,4.8769,4.8763,4.8694,4.9364,4.9671,4.9663,5.0273,5.0561,5.0561,5.0561,5.0561,5.0561,5.0561,5.0173,4.9571,4.9571,4.9182,4.8386,4.6482,4.5375,0.0,0.0,0.0,0.0,0.0,0.0,0.0,0.0,0.0,4.6773,0.0,0.0,5.1766,5.3281,5.6019,5.8719,5.9827,6.0584,6.1128,6.1361,6.14,6.0681,5.8137,5.4873,5.1707,0.0,0.0,0.0,5.1342,5.6401,0.0,6.0139,6.0332,0.0,0.0,0.0,6.1537,6.1545,6.1545,0.0,0.0,6.1671,6.1701,6.1701,6.1701,6.1701,6.1701,6.1701,6.1701,6.1701,6.1701,6.1701,6.1701,6.1705,6.1529,6.1194,6.1256,6.1119,6.0863,6.086,6.0861,6.0861,6.0861,6.0861,6.0861,6.0861,6.087,6.0897,6.1112,6.119,6.1174,0.0,0.0,0.0,0.0,0.0,0.0,0.0,0.0,0.0,0.0,0.0,0.0,0.0,0.0,0.0,0.0,0.0,0.0,0.0,4.2225,4.3231,4.3231,4.4601,4.537,4.537,4.5411,4.5401,4.5365,4.6488,4.7022,4.7018,4.8097,4.8599,4.8599,4.8599,4.8599,4.8599,4.8599,4.7958,0.0,0.0,4.623,4.5064,4.3627,4.3083,0.0,0.0,0.0,0.0,0.0,0.0,4.6715,4.8153,4.8599,4.8813,4.994,0.0,5.4019,5.5534,5.7981,6.0196,6.0565,6.105,6.1011,5.9496,5.9166,5.8195,5.4776,5.1295,0.0,0.0,0.0,0.0,0.0,0.0,0.0,5.9264,5.9534,6.0211,0.0,6.1529,0.0,6.1545,6.158,6.1595,0.0,6.164,6.1666,6.1701,6.1671,6.1666,6.1701,6.1671,6.1666,6.1701,6.1666,6.166,6.166,6.1628,6.1564,6.15,6.1537,6.1519,6.1456,0.0,6.147,6.147,6.147,6.147,6.147,6.147,6.1475,6.1504,6.1504,6.1498,6.1509,0.0,0.0,0.0,0.0,0.0,0.0,0.0,0.0,0.0,0.0,0.0,0.0,0.0,0.0,0.0,0.0,0.0,0.0,0.0,0.0,0.0,4.0932,4.103,4.1108,4.1108,0.0,0.0,0.0,0.0,4.4362,4.4342,4.6552,4.76,4.757,4.757,4.757,4.757,4.757,4.6307,4.4287,4.4287,4.2928,4.0917,0.0,0.0,0.0,0.0,0.0,0.0,0.0,4.8813,4.9163,4.9512,4.9609,5.0076,5.2407,5.3689,5.5048,5.8137,5.9613,6.0448,6.1206,6.14,6.0506,5.7088,5.6291,5.5204,5.1319,0.0,4.6208,4.6568,0.0,5.0099,4.8277,0.0,5.7483,5.7125,5.7681,5.8957,6.1228,6.1545,6.1588,6.1588,6.1634,6.1671,6.1696,6.1634,6.1628,6.1696,6.164,6.1634,6.1701,6.1634,6.1634,6.1701,6.1634,6.1595,6.1595,6.1537,6.15,6.1503,6.1503,6.1467,6.14,0.0,0.0,6.14,6.14,6.14,6.14,6.14,6.1428,6.149,6.15,6.1509,6.151,0.0,0.0,0.0,0.0,0.0,0.0,0.0,0.0,0.0,0.0,3.5383,3.5589,0.0,0.0,0.0,0.0,0.0,0.0,0.0,0.0,0.0,0.0,4.0717,4.1108,0.0,0.0,0.0,0.0,0.0,0.0,4.1662,4.2113,4.2285,4.2248,4.2248,4.2248,4.2248,4.2248,4.1976,4.1587,4.1587,4.1343,4.098,0.0,0.0,0.0,0.0,0.0,0.0,0.0,4.9998,5.2115,5.4271,5.4951,5.5184,5.635,5.7282,5.8195,5.9516,6.0506,6.1206,6.1361,6.14,6.0506,5.7088,5.6291,0.0,0.0,0.0,4.6227,4.3588,4.6335,0.0,5.1241,0.0,0.0,0.0,0.0,6.0981,0.0,0.0,0.0,0.0,0.0,0.0,0.0,0.0,0.0,6.1696,6.1696,6.1696,6.1701,6.1696,6.1696,6.1701,6.1634,6.1595,6.1595,6.1537,6.15,6.1503,6.1503,6.1467,6.14,0.0,0.0,6.14,6.14,6.14,6.14,6.14,6.1414,6.1421,6.1484,6.1507,6.1509,0.0,0.0,0.0,0.0,0.0,0.0,0.0,3.5209,3.5209,3.5209,3.5345,3.5477,3.5596,3.5715,3.5996,0.0,0.0,0.0,0.0,0.0,0.0,0.0,0.0,0.0,0.0,0.0,0.0,0.0,0.0,0.0,0.0,0.0,0.0,0.0,0.0,0.0,0.0,0.0,0.0,0.0,0.0,0.0,0.0,0.0,0.0,0.0,0.0,0.0,0.0,0.0,4.9202,5.2853,5.5476,5.6291,5.6466,5.734,5.8176,5.8991,5.9865,6.074,6.14,6.14,6.14,6.004,5.4835,0.0,0.0,0.0,0.0,4.4195,4.3073,0.0,0.0,0.0,0.0,0.0,0.0,0.0,0.0,0.0,0.0,0.0,0.0,0.0,0.0,0.0,0.0,0.0,6.1696,6.1701,6.1671,6.166,6.1671,6.1701,6.1701,6.1634,6.1595,6.1595,6.1537,6.15,6.1489,6.1489,6.1479,6.1445,6.1447,0.0,6.1454,6.1414,6.14,6.14,6.14,6.14,6.14,6.1479,6.1507,6.15,0.0,0.0,0.0,0.0,0.0,0.0,0.0,3.5209,3.5209,3.5209,3.5304,3.5449,3.5588,3.5679,3.5779,0.0,0.0,0.0,0.0,0.0,0.0,0.0,0.0,0.0,0.0,0.0,0.0,0.0,0.0,0.0,0.0,0.0,0.0,0.0,0.0,0.0,0.0,0.0,0.0,0.0,0.0,0.0,0.0,0.0,0.0,0.0,0.0,0.0,0.0,0.0,4.7453,5.1222,5.3824,5.5009,5.567,5.6719,5.7496,5.835,5.9943,6.0875,6.14,6.14,6.14,5.9613,5.2756,5.1202,0.0,0.0,4.1653,4.2563,4.3345,0.0,0.0,0.0,0.0,0.0,0.0,0.0,0.0,0.0,0.0,0.0,0.0,0.0,0.0,0.0,0.0,0.0,6.1671,6.1696,6.1666,6.1595,6.1666,6.1701,6.1701,6.1634,6.1595,6.1595,6.1537,6.149,6.149,6.149,6.149,6.151,6.1498,0.0,0.0,6.1447,6.1421,6.1421,6.1421,6.1421,6.1434,6.1495,6.151,6.1537,0.0,0.0,0.0,0.0,0.0,0.0,0.0,3.5209,3.5209,3.5209,3.5277,3.5369,3.5572,3.5713,3.5827,0.0,0.0,0.0,0.0,0.0,0.0,0.0,0.0,0.0,0.0,0.0,0.0,0.0,0.0,0.0,0.0,0.0,0.0,0.0,0.0,0.0,0.0,0.0,0.0,0.0,0.0,0.0,0.0,0.0,0.0,0.0,0.0,0.0,0.0,0.0,0.0,4.5938,4.8502,5.0891,5.3086,5.4757,0.0,0.0,6.0196,6.1342,6.14,6.14,6.14,5.9613,5.2756,0.0,0.0,4.2325,4.2199,4.3384,4.3491,4.4976,0.0,0.0,0.0,0.0,0.0,0.0,0.0,0.0,0.0,0.0,0.0,0.0,0.0,0.0,0.0,0.0,0.0,6.1666,6.1666,6.1595,6.1666,6.1701,6.1701,6.1634,6.1595,6.1595,6.1537,6.149,6.149,6.149,6.149,6.151,0.0,0.0,0.0,6.15,6.15,6.15,6.15,6.15,6.15,6.1573,6.1588,6.1595,0.0,0.0,0.0,0.0,0.0,0.0,3.5209,3.5209,3.5209,3.5209,3.5226,3.5296,3.5461,3.5592,3.576,3.5939,0.0,0.0,0.0,0.0,0.0,0.0,0.0,0.0,0.0,0.0,0.0,0.0,0.0,0.0,0.0,0.0,0.0,0.0,0.0,0.0,0.0,0.0,0.0,0.0,0.0,0.0,0.0,0.0,0.0,0.0,0.0,0.0,0.0,0.0,0.0,0.0,4.4132,4.5744,0.0,0.0,5.5009,5.5942,6.0234,6.14,6.14,6.14,5.9846,5.7088,5.229,0.0,4.6715,4.1898,4.2287,4.351,4.351,4.487,4.6327,0.0,0.0,0.0,0.0,0.0,0.0,0.0,0.0,0.0,0.0,0.0,0.0,0.0,0.0,0.0,0.0,6.1958,6.1696,6.1666,6.1696,6.1701,6.1701,6.1671,6.1666,6.1666,6.1628,6.1621,6.1621,6.1621,6.1621,6.1621,0.0,0.0,0.0,6.1519,6.149,6.149,6.149,6.149,6.1519,6.158,6.1595,6.1602,0.0,0.0,0.0,0.0,0.0,3.5209,3.5209,3.5209,3.5209,3.5209,3.5209,3.5251,3.5393,3.5465,3.5657,3.5923,3.5985,0.0,0.0,0.0,0.0,0.0,0.0,0.0,0.0,0.0,0.0,0.0,0.0,0.0,0.0,0.0,0.0,0.0,0.0,0.0,0.0,0.0,0.0,0.0,0.0,0.0,0.0,0.0,0.0,0.0,0.0,0.0,0.0,0.0,0.0,0.0,0.0,0.0,0.0,0.0,5.3067,5.4757,5.8797,6.0642,6.14,6.14,5.8836,5.5398,0.0,0.0,4.5025,4.1607,4.2287,4.351,4.351,4.487,4.5997,4.5997,0.0,4.9029,0.0,0.0,0.0,0.0,0.0,0.0,0.0,0.0,0.0,0.0,0.0,0.0,0.0,6.2783,6.2223,6.1691,6.1696,6.1701,6.1701,6.1701,6.1701,6.1701,6.1701,6.1701,6.1701,6.1701,6.1701,6.1696,0.0,0.0,0.0,6.1553,6.1537,6.1553,6.1553,6.1553,6.1553,6.1602,6.1628,6.1634,0.0,0.0,0.0,0.0,0.0,0.0,3.5209,3.5209,3.5209,3.5209,3.5209,3.5251,3.5393,3.5387,3.5499,3.5775,3.5927,0.0,0.0,0.0,0.0,0.0,0.0,0.0,0.0,0.0,3.603,3.603,3.5955,0.0,0.0,0.0,0.0,0.0,0.0,0.0,0.0,0.0,0.0,0.0,0.0,0.0,0.0,0.0,0.0,0.0,0.0,0.0,0.0,0.0,0.0,0.0,0.0,0.0,0.0,0.0,4.8541,5.1999,5.5417,5.8817,6.14,6.14,5.8836,5.5398,0.0,0.0,4.5025,4.1607,4.2287,4.351,4.351,4.487,4.5997,4.5997,4.6016,0.0,0.0,0.0,0.0,0.0,0.0,0.0,0.0,0.0,0.0,0.0,0.0,0.0,0.0,6.4277,6.3447,6.1654,6.1666,6.1701,6.1701,6.1701,6.1701,6.1701,6.1701,6.1701,6.1701,6.1701,6.1701,0.0,0.0,0.0,0.0,6.1628,6.1634,6.1696,6.1696,6.1696,6.1701,6.1701,6.1701,6.1701,0.0,0.0,0.0,0.0,0.0,0.0,0.0,3.5209,3.5209,3.5209,3.5209,3.5207,3.5266,3.5391,3.5516,3.5657,3.5801,0.0,0.0,0.0,0.0,0.0,0.0,0.0,0.0,0.0,3.5988,3.5935,3.5914,3.5908,3.5898,3.5857,0.0,0.0,0.0,0.0,0.0,0.0,0.0,0.0,0.0,0.0,0.0,0.0,0.0,0.0,0.0,0.0,0.0,0.0,0.0,0.0,0.0,0.0,0.0,4.2189,0.0,0.0,5.1863,5.3611,5.4427,5.4427,5.1824,4.8968,4.7881,0.0,4.2209,4.1121,4.2287,4.351,4.351,4.487,4.5997,4.5997,4.5997,0.0,0.0,0.0,0.0,0.0,0.0,0.0,0.0,0.0,0.0,0.0,0.0,0.0,0.0,6.4628,6.3765,6.2588,6.2574,6.2306,6.172,6.1701,6.1701,6.1701,6.1701,6.1701,6.1701,6.1701,0.0,0.0,0.0,0.0,0.0,6.1671,6.1671,6.1701,6.1701,6.1701,6.1701,6.1701,6.1701,6.1701,0.0,0.0,0.0,0.0,0.0,0.0,0.0,3.5209,3.5209,3.5209,3.5209,3.5209,3.5209,3.5326,3.5483,3.5592,3.5702,0.0,0.0,0.0,0.0,0.0,0.0,0.0,3.5991,3.5991,3.5965,3.5908,3.5904,3.5897,3.5898,3.5834,3.5799,0.0,0.0,0.0,0.0,0.0,0.0,0.0,0.0,0.0,3.5957,0.0,0.0,0.0,0.0,0.0,0.0,0.0,0.0,0.0,0.0,0.0,0.0,0.0,4.2403,0.0,0.0,5.0192,5.1202,5.1202,4.858,0.0,0.0,0.0,4.0985,4.1315,4.252,4.3607,4.3938,4.5084,4.5997,4.5997,4.5997,0.0,0.0,0.0,0.0,0.0,0.0,0.0,0.0,0.0,0.0,0.0,0.0,0.0,0.0,0.0,6.4863,6.4004,6.3652,6.3067,6.2208,6.2189,6.2032,6.1701,6.1701,6.1701,6.1701,6.1701,0.0,0.0,0.0,0.0,0.0,6.1671,6.1671,6.1701,6.1701,6.1701,6.1701,6.1701,6.1701,6.1701,0.0,0.0,0.0,0.0,0.0,0.0,0.0,3.5209,3.5209,3.5209,3.5209,3.5209,3.5209,3.5261,3.5369,3.5582,0.0,0.0,0.0,0.0,0.0,0.0,0.0,0.0,3.5991,3.5991,3.5965,3.5903,3.5904,3.5897,3.5898,3.5842,3.5799,3.5818,3.5799,0.0,0.0,0.0,0.0,0.0,0.0,0.0,0.0,0.0,0.0,0.0,0.0,0.0,0.0,0.0,0.0,0.0,0.0,0.0,0.0,0.0,0.0,0.0,0.0,0.0,0.0,0.0,0.0,0.0,0.0,0.0,0.0,4.2015,4.2889,4.3763,4.4637,4.5453,4.5997,4.5997,0.0,0.0,0.0,0.0,0.0,0.0,0.0,0.0,0.0,0.0,0.0,0.0,0.0,0.0,0.0,0.0,6.6463,6.5702,6.4902,6.4023,6.3106,6.3086,6.2657,6.1798,6.1798,6.1759,6.1701,6.1701,0.0,0.0,0.0,0.0,0.0,6.1634,6.1634,6.1701,6.1701,6.1701,6.1701,6.1701,6.1701,6.1701,0.0,0.0,0.0,0.0,0.0,0.0,0.0,0.0,0.0,0.0,3.5209,3.5226,3.5277,3.5289,3.535,0.0,0.0,0.0,0.0,0.0,0.0,0.0,0.0,0.0,3.5991,3.5991,3.5978,3.5899,3.5895,3.5894,3.5898,3.5872,3.5884,3.5864,3.5815,3.5799,0.0,0.0,0.0,0.0,0.0,0.0,0.0,0.0,0.0,0.0,3.5891,3.5983,0.0,0.0,0.0,0.0,0.0,0.0,0.0,0.0,4.0422,4.1082,4.1879,0.0,4.3316,4.3316,4.2694,4.2092,0.0,0.0,0.0,0.0,0.0,4.3763,4.4637,4.5453,4.5997,0.0,0.0,0.0,0.0,0.0,0.0,0.0,0.0,0.0,0.0,0.0,0.0,0.0,0.0,0.0,0.0,0.0,6.6717,6.6522,6.6327,6.5507,6.4004,6.3984,6.3555,6.2696,6.2696,6.2345,6.1701,6.1701,0.0,0.0,0.0,0.0,6.1701,6.1671,6.1696,6.1701,6.1701,6.1701,6.1701,6.1701,6.1701,6.1701,0.0,0.0,0.0,0.0,0.0,0.0,0.0,0.0,0.0,0.0,0.0,3.4503,3.4152,3.414,0.0,0.0,0.0,0.0,0.0,0.0,0.0,0.0,0.0,3.5991,3.5991,3.5991,3.5962,3.5909,3.5899,3.5909,3.5905,3.5911,3.5905,3.5898,3.5834,3.5826,0.0,0.0,0.0,0.0,0.0,0.0,0.0,0.0,0.0,0.0,3.5905,3.5872,0.0,3.6363,3.6526,3.6708,0.0,0.0,0.0,0.0,4.0266,4.0907,4.0907,4.0907,4.0907,4.0907,4.0907,4.0907,0.0,0.0,0.0,0.0,0.0,4.4345,4.52,0.0,0.0,0.0,0.0,0.0,0.0,0.0,0.0,0.0,0.0,0.0,0.0,0.0,0.0,0.0,0.0,0.0,0.0,0.0,6.6795,6.6795,6.6795,6.619,6.4902,6.4902,6.4453,6.3594,6.3184,6.2755,6.2286,6.1876,6.1701,0.0,0.0,0.0,6.1701,6.1701,6.1701,6.1701,6.1701,6.1701,6.1701,6.1701,6.1701,6.1701,0.0,0.0,0.0,0.0,0.0,0.0,0.0,0.0,0.0,0.0,0.0,0.0,0.0,0.0,0.0,0.0,0.0,0.0,0.0,0.0,0.0,0.0,3.5913,3.5991,3.5991,3.5991,3.5965,3.5908,3.5912,3.5899,3.5894,3.5905,3.5885,3.5872,3.5842,3.5842,0.0,0.0,0.0,0.0,0.0,0.0,0.0,0.0,0.0,0.0,0.0,0.0,0.0,3.583,3.585,3.6008,3.6689,0.0,0.0,0.0,0.0,0.0,4.0907,4.1276,4.1548,4.1024,4.0907,4.0907,4.0907,0.0,0.0,0.0,0.0,0.0,0.0,0.0,0.0,0.0,0.0,0.0,0.0,0.0,0.0,0.0,0.0,0.0,0.0,0.0,0.0,0.0,0.0,0.0,0.0,0.0,0.0,6.6795,6.6795,6.6463,6.58,6.578,6.5351,6.4492,6.375,6.3262,6.2969,6.2247,6.1837,0.0,0.0,0.0,6.1701,6.1701,6.1701,6.1701,6.1701,6.1701,6.1701,6.1701,6.1701,6.1701,0.0,0.0,0.0,0.0,0.0,0.0,0.0,0.0,0.0,0.0,0.0,0.0,0.0,0.0,0.0,0.0,0.0,0.0,0.0,0.0,0.0,3.4779,3.5588,3.5991,3.5991,3.5991,3.5965,3.5908,3.5962,3.5962,3.5899,3.5894,3.5872,3.5826,3.5857,3.5857,3.5826,3.5857,3.5857,3.5815,0.0,0.0,0.0,0.0,0.0,0.0,0.0,0.0,0.0,3.5864,3.5898,3.591,3.5982,0.0,0.0,0.0,0.0,0.0,4.0907,4.3005,4.452,4.1626,4.0907,4.0907,0.0,0.0,0.0,0.0,0.0,0.0,0.0,0.0,0.0,0.0,0.0,0.0,0.0,0.0,0.0,0.0,0.0,0.0,0.0,0.0,0.0,0.0,0.0,0.0,0.0,0.0,0.0,6.6795,6.6795,6.6737,6.6619,6.6619,6.6209,6.5409,6.5253,6.4433,6.3008,6.2852,6.2403,0.0,0.0,6.1701,6.1701,6.1701,6.1701,6.1701,6.1701,6.1701,6.1701,6.1701,6.1701,6.1696,0.0,0.0,0.0,0.0,0.0,0.0,0.0,0.0,0.0,0.0,0.0,0.0,0.0,0.0,0.0,0.0,0.0,0.0,0.0,0.0,3.2939,3.3848,3.4807,3.5525,3.5991,3.5991,3.5988,3.5942,3.5988,3.5988,3.5942,3.5929,3.5885,3.5857,3.5891,3.5885,3.5859,3.5885,3.5872,3.585,0.0,0.0,0.0,0.0,0.0,0.0,0.0,0.0,0.0,0.0,3.585,3.5842,3.5799,0.0,0.0,0.0,0.0,0.0,4.0907,4.2053,4.3326,4.3635,4.5103,4.6455,0.0,0.0,0.0,0.0,0.0,0.0,0.0,0.0,0.0,0.0,0.0,0.0,0.0,0.0,0.0,0.0,0.0,0.0,0.0,0.0,0.0,0.0,0.0,0.0,0.0,0.0,0.0,0.0,6.6795,6.6795,6.6795,6.6795,6.66,6.6249,6.5819,6.4921,6.3691,6.3204,6.252,6.1701,0.0,6.1701,6.1701,6.1701,6.1701,6.1701,6.1701,6.1701,6.1701,6.1701,6.1671,6.1634,0.0,0.0,0.0,0.0,0.0,0.0,0.0,0.0,0.0,0.0,0.0,0.0,0.0,0.0,0.0,0.0,0.0,0.0,0.0,3.1532,3.1987,3.2931,3.3684,3.4583,3.5662,3.5896,3.5991,3.5991,3.5991,3.5988,3.5981,3.5929,3.5891,3.5905,3.5905,3.5898,3.5897,3.5892,3.5898,3.5864,0.0,0.0,0.0,0.0,0.0,0.0,0.0,0.0,0.0,0.0,0.0,0.0,0.0,0.0,0.0,3.8402,3.9577,4.0878,4.0878,4.145,4.2673,4.5357,0.0,0.0,0.0,0.0,0.0,0.0,0.0,0.0,0.0,0.0,0.0,0.0,0.0,0.0,0.0,0.0,0.0,0.0,0.0,0.0,0.0,0.0,0.0,0.0,0.0,0.0,0.0,0.0,0.0,0.0,6.6795,6.6795,6.6795,6.6795,6.6795,6.6795,6.617,6.5331,6.4277,6.3613,6.2716,6.1701,6.1701,6.1701,6.1701,6.1701,6.1701,6.1701,6.1701,6.1701,6.1701,6.1701,6.1666,6.1595,0.0,0.0,0.0,0.0,0.0,0.0,0.0,0.0,0.0,0.0,0.0,0.0,0.0,0.0,0.0,0.0,0.0,0.0,0.0,3.0539,3.1019,3.1967,3.2127,3.3013,3.4764,3.5584,3.5991,3.5991,3.5991,3.5978,3.5914,3.5889,3.5891,3.5905,3.5905,3.5905,3.5905,3.5905,3.5857,3.5818,3.5799,0.0,0.0,0.0,0.0,0.0,0.0,0.0,0.0,0.0,0.0,0.0,0.0,0.0,3.8402,3.8402,3.9539,4.0812,4.0812,4.3034,4.5443,4.5732,4.3721,0.0,4.9648,4.9259,0.0,0.0,0.0,0.0,0.0,0.0,0.0,0.0,0.0,0.0,0.0,0.0,0.0,0.0,0.0,0.0,0.0,0.0,0.0,0.0,0.0,0.0,0.0,0.0,0.0,0.0,0.0,6.6795,6.6795,6.6795,6.6795,6.6795,6.6737,6.5878,6.4297,6.4238,6.3282,6.1701,6.1701,6.1701,6.1701,6.1701,6.1701,6.1701,6.1701,6.1701,6.1701,6.1701,6.1666,6.1595,0.0,0.0,0.0,0.0,0.0,0.0,0.0,0.0,0.0,0.0,0.0,0.0,0.0,0.0,0.0,0.0,0.0,0.0,0.0,3.0453,3.0719,3.1079,3.2231,3.3191,3.3886,3.4744,3.5467,3.5991,3.5991,3.5974,3.5908,3.5904,3.5889,3.5905,3.5905,3.5898,3.5905,3.5905,3.5857,3.5799,3.5799,3.5842,0.0,0.0,0.0,0.0,0.0,0.0,0.0,0.0,3.5799,3.5799,3.5799,3.7003,3.8373,3.8307,3.9467,4.0788,4.0707,4.3228,4.599,4.6448,4.5677,0.0,0.0,5.372,0.0,0.0,0.0,0.0,0.0,0.0,0.0,0.0,0.0,0.0,0.0,0.0,0.0,0.0,0.0,0.0,0.0,0.0,0.0,0.0,0.0,0.0,0.0,0.0,0.0,0.0,0.0,6.6795,6.6795,6.6795,6.6795,6.6795,6.6795,6.5917,6.4297,6.4297,6.334,6.1701,6.1701,6.1701,6.1701,6.1701,6.1701,6.1701,6.1701,6.1671,6.1634,6.1634,6.16,6.1549,0.0,0.0,0.0,0.0,0.0,0.0,0.0,0.0,0.0,0.0,0.0,0.0,0.0,0.0,0.0,0.0,0.0,0.0,3.0304,3.0482,3.0707,3.1001,3.2255,3.323,3.3807,3.4393,3.5135,3.5991,3.5991,3.5974,3.5889,3.5895,3.5899,3.5905,3.5905,3.5905,3.5898,3.5884,3.5842,3.5799,3.5799,3.5834,0.0,0.0,0.0,0.0,0.0,0.0,0.0,0.0,3.5782,3.5803,3.6066,3.7143,3.8345,3.8501,4.037,4.2356,4.2273,4.4247,4.6615,4.7854,0.0,0.0,5.4553,5.5653,5.5555,0.0,0.0,0.0,0.0,0.0,0.0,0.0,0.0,0.0,0.0,0.0,0.0,0.0,0.0,0.0,0.0,0.0,0.0,0.0,0.0,0.0,0.0,0.0,0.0,0.0,6.6795,6.6795,6.6795,6.6795,6.6678,6.6424,6.6424,6.5682,6.4297,6.4023,6.3086,6.1701,6.1701,6.1701,6.1701,6.1701,6.1701,6.1701,6.1671,6.1634,6.1595,6.158,6.1549,6.1503,0.0,0.0,0.0,0.0,0.0,0.0,0.0,0.0,0.0,0.0,0.0,0.0,0.0,0.0,0.0,0.0,0.0,0.0,3.0304,3.0432,3.0933,3.1856,3.1985,3.2877,3.4666,3.4705,3.5135,3.5991,3.5991,3.5974,3.5889,3.5895,3.5899,3.5898,3.5905,3.5905,3.5898,3.5834,3.5799,3.5799,3.5799,3.5799,3.5799,0.0,0.0,0.0,0.0,0.0,0.0,0.0,3.5747,3.5843,3.6646,3.746,3.8254,3.905,4.235,4.5751,4.5751,4.6389,4.7627,0.0,0.0,0.0,0.0,5.3818,0.0,0.0,0.0,0.0,0.0,0.0,0.0,0.0,0.0,0.0,0.0,0.0,0.0,0.0,0.0,0.0,0.0,0.0,0.0,0.0,0.0,0.0,0.0,0.0,0.0,0.0,6.6795,6.6795,6.6795,6.6795,6.6385,6.5604,6.5585,6.5116,6.4258,6.3399,6.252,6.1701,6.1701,6.1701,6.1701,6.1701,6.1701,6.1696,6.1628,6.1595,6.1588,6.1528,6.1489,6.1503,0.0,0.0,0.0,0.0,0.0,0.0,0.0,0.0,0.0,0.0,0.0,0.0,0.0,0.0,0.0,0.0,0.0,0.0,3.0305,3.1033,3.16,3.1902,3.3171,3.415,3.4686,3.5291,3.574,3.5991,3.5991,3.5974,3.5889,3.5951,3.5929,3.5842,3.5872,3.5872,3.5834,3.5799,3.5799,3.5799,3.5799,3.5799,3.5799,0.0,0.0,0.0,0.0,0.0,0.0,0.0,0.0,0.0,3.6554,3.7398,3.824,3.895,4.0504,4.1979,4.195,4.5791,0.0,0.0,0.0,0.0,0.0,0.0,0.0,0.0,0.0,0.0,0.0,0.0,0.0,0.0,0.0,0.0,0.0,0.0,0.0,0.0,0.0,0.0,0.0,0.0,0.0,0.0,0.0,0.0,0.0,0.0,0.0,0.0,6.6795,6.6795,6.6795,6.6249,6.5839,6.5585,6.4355,6.3633,6.3379,6.3125,6.252,6.1701,6.1701,6.1701,6.1701,6.1701,6.1671,6.1628,6.1602,6.1556,6.1539,6.1518,6.1472,6.1428,0.0,0.0,0.0,0.0,0.0,0.0,0.0,0.0,0.0,0.0,0.0,0.0,0.0,0.0,0.0,0.0,0.0,0.0,0.0,3.1497,3.2158,3.2818,3.4008,3.4827,3.5213,3.574,3.5991,3.5991,3.5991,3.5978,3.5904,3.5935,3.5924,3.5842,3.5872,3.5859,3.5799,3.5799,3.5799,3.5799,3.5799,3.5799,3.5799,0.0,0.0,0.0,0.0,0.0,0.0,0.0,0.0,0.0,3.6958,3.7796,3.8877,4.1062,4.2086,4.313,4.5831,0.0,0.0,0.0,0.0,0.0,0.0,0.0,0.0,0.0,0.0,0.0,0.0,0.0,0.0,0.0,0.0,0.0,0.0,0.0,0.0,0.0,0.0,0.0,0.0,0.0,0.0,0.0,0.0,0.0,0.0,0.0,0.0,0.0,6.6483,6.6327,6.6327,6.5507,6.4902,6.455,6.3486,6.2778,6.2446,6.2476,6.2208,6.1701,6.1671,6.1654,6.1621,6.1621,6.1595,6.1553,6.1556,6.1549,6.1503,6.1467,6.1428,6.14,0.0,0.0,0.0,0.0,0.0,0.0,0.0,0.0,0.0,0.0,0.0,0.0,0.0,0.0,0.0,0.0,0.0,0.0,0.0,3.1909,3.2706,3.4234,3.4559,3.5105,3.5968,3.5988,3.5991,3.5991,3.5991,3.5965,3.5908,3.5908,3.5899,3.5905,3.5905,3.5857,3.5799,3.5799,3.5799,3.5799,3.5799,3.5799,3.5791,3.5791,0.0,0.0,0.0,0.0,0.0,0.0,0.0,0.0,3.7705,3.8448,3.9811,4.392,4.5413,4.712,5.3424,0.0,0.0,0.0,0.0,0.0,0.0,0.0,0.0,0.0,0.0,0.0,0.0,0.0,0.0,0.0,0.0,0.0,0.0,0.0,0.0,0.0,0.0,0.0,0.0,0.0,0.0,0.0,0.0,0.0,0.0,0.0,0.0,0.0,6.5975,6.5565,6.5487,6.4628,6.377,0.0,6.2844,6.2375,6.1595,6.166,6.1671,6.1671,6.1621,6.1573,6.149,6.149,6.151,6.15,6.1507,6.1503,6.1491,6.1414,6.14,6.1414,0.0,0.0,0.0,0.0,0.0,0.0,0.0,0.0,0.0,0.0,0.0,0.0,0.0,0.0,0.0,0.0,0.0,0.0,0.0,3.2968,3.3924,3.4272,3.5047,3.5606,3.5904,3.5924,3.5942,3.5991,3.5991,3.5965,3.5908,3.5908,3.5899,3.5905,3.5905,3.5857,3.5799,3.5799,3.5799,3.5799,3.5799,3.5799,3.5791,3.5737,3.5698,0.0,0.0,0.0,0.0,0.0,0.0,0.0,3.8282,3.8876,3.9316,4.0957,4.3366,4.5819,0.0,5.1385,0.0,0.0,0.0,0.0,0.0,0.0,0.0,0.0,0.0,0.0,0.0,0.0,0.0,0.0,0.0,0.0,0.0,0.0,0.0,0.0,0.0,0.0,0.0,0.0,0.0,0.0,0.0,0.0,0.0,0.0,0.0,6.5878,6.5682,6.5273,6.4589,6.3711,6.3184,0.0,6.2239,6.1771,6.1595,6.1553,6.1537,6.1537,6.1528,6.15,6.149,6.149,6.15,6.1495,6.1503,6.1467,6.1414,6.14,6.1428,6.147,0.0,0.0,0.0,0.0,0.0,0.0,0.0,0.0,0.0,0.0,0.0,0.0,0.0,0.0,0.0,0.0,0.0,0.0,0.0,0.0,3.445,3.4891,3.5388,3.5696,3.5801,3.5801,3.5846,3.589,3.5942,3.5951,3.5958,3.5919,3.5894,3.5905,3.5872,3.5834,3.5799,3.5799,3.5773,3.5747,3.5747,3.5708,3.5707,3.6079,3.6188,3.6189,3.651,0.0,0.0,0.0,0.0,0.0,0.0,0.0,4.006,4.2213,4.294,4.413,0.0,0.0,0.0,0.0,0.0,0.0,0.0,0.0,0.0,0.0,0.0,0.0,0.0,0.0,0.0,0.0,0.0,0.0,0.0,0.0,0.0,0.0,0.0,0.0,0.0,0.0,0.0,0.0,0.0,0.0,0.0,6.6229,6.5839,6.4999,6.457,6.414,6.3672,6.2813,6.2384,6.2364,6.1829,6.1547,6.15,6.15,6.15,6.1489,6.1489,6.1479,6.1445,6.1445,6.144,6.1454,6.1487,6.1487,6.1445,6.1441,6.1478,6.1497,0.0,0.0,0.0,0.0,0.0,0.0,0.0,0.0,0.0,0.0,0.0,0.0,0.0,0.0,0.0,0.0,0.0,0.0,0.0,0.0,0.0,3.5554,3.5574,3.5609,3.5676,3.5676,3.5721,3.5774,3.584,3.5894,3.5951,3.5924,3.5883,3.5866,3.5823,3.5782,3.5765,3.5929,3.595,3.5899,3.6043,3.6029,3.6016,3.6723,3.6925,3.6915,3.7609,0.0,0.0,0.0,0.0,0.0,0.0,0.0,4.0882,4.383,4.3111,4.3211,0.0,0.0,0.0,0.0,0.0,0.0,0.0,0.0,0.0,0.0,0.0,0.0,0.0,0.0,0.0,0.0,0.0,0.0,0.0,0.0,0.0,0.0,0.0,0.0,0.0,0.0,0.0,0.0,0.0,0.0,6.5409,6.537,6.498,6.4101,6.3379,6.293,6.2774,6.2052,6.1696,6.1671,6.1564,6.1456,6.14,6.1456,6.1479,6.1479,6.1479,6.1454,6.14,6.1408,6.1408,6.1434,6.1481,6.1498,6.1506,6.1509,6.1514,6.1518,0.0,0.0,0.0,0.0,0.0,0.0,0.0,0.0,0.0,0.0,0.0,0.0,0.0,0.0,0.0,0.0,0.0,0.0,0.0,0.0,0.0,3.5515,3.5515,3.554,3.5609,3.5609,3.566,3.571,3.5713,3.5732,3.5749,3.584,3.5833,3.5724,3.5771,3.5708,3.5601,3.6422,3.6709,3.6723,3.7405,3.7681,3.7654,3.7723,3.7736,3.7724,3.7723,0.0,0.0,0.0,0.0,0.0,0.0,0.0,0.0,4.0882,4.2776,4.5036,0.0,0.0,0.0,0.0,0.0,0.0,0.0,0.0,0.0,0.0,0.0,0.0,0.0,0.0,0.0,0.0,0.0,0.0,0.0,0.0,0.0,0.0,0.0,0.0,0.0,0.0,0.0,0.0,0.0,0.0,6.4472,6.4472,6.4062,6.3204,6.3067,6.2637,6.1876,6.1759,6.1666,6.1602,6.1529,6.146,6.14,6.1414,6.1394,6.1414,6.1414,6.14,6.14,6.1468,6.149,6.15,6.1491,6.1495,6.1495,6.1505,6.1548,6.1581,0.0,0.0,0.0,0.0,0.0,0.0,0.0,0.0,0.0,0.0,0.0,0.0,0.0,0.0,0.0,0.0,0.0,0.0,0.0,0.0,0.0,3.5493,3.5493,3.5515,3.554,3.554,3.5589,3.5639,3.562,3.562,3.5639,3.5697,3.5697,3.564,3.5639,3.5836,3.6267,3.667,3.7064,3.745,3.7796,3.875,3.9857,3.8887,3.9406,4.0498,3.9526,0.0,0.0,0.0,0.0,0.0,0.0,0.0,0.0,0.0,0.0,0.0,0.0,0.0,0.0,0.0,0.0,0.0,0.0,0.0,0.0,0.0,0.0,0.0,0.0,0.0,0.0,0.0,0.0,0.0,0.0,0.0,0.0,0.0,0.0,0.0,0.0,0.0,0.0,0.0,0.0,6.4082,6.3594,6.3574,6.3164,6.2306,6.2232,6.2031,6.1654,6.1615,6.1564,6.1539,6.1507,6.1467,6.14,6.14,6.14,6.14,6.14,6.1421,6.1456,6.149,6.1506,6.1491,6.1545,6.1555,6.1557,6.1601,6.1637,6.1668,0.0,0.0,0.0,0.0,0.0,0.0,0.0,0.0,0.0,0.0,0.0,0.0,0.0,0.0,0.0,0.0,0.0,0.0,0.0,0.0,0.0,3.5493,3.5493,3.5493,3.5493,3.5493,3.5515,3.5566,3.5502,3.5463,3.5521,3.5514,3.563,3.5842,3.5823,3.6151,3.6752,3.7203,3.7685,3.8249,3.9112,4.0535,4.2068,4.1476,4.2431,4.3825,4.1934,0.0,0.0,0.0,0.0,0.0,0.0,0.0,0.0,0.0,0.0,0.0,0.0,0.0,0.0,0.0,0.0,0.0,0.0,0.0,0.0,0.0,0.0,0.0,0.0,0.0,0.0,0.0,0.0,0.0,0.0,0.0,0.0,0.0,0.0,0.0,0.0,0.0,0.0,0.0,0.0,6.336,6.2686,6.2647,6.2329,6.1679,6.1595,6.1561,6.1561,6.1519,6.1509,6.1503,6.1479,6.1454,6.14,6.1421,6.1434,6.1434,6.1434,6.1448,6.1506,6.1529,6.1529,6.1525,6.1601,6.1638,6.1637,6.1674,6.1701,6.1701,0.0,0.0,0.0,0.0,0.0,0.0,0.0,0.0,0.0,0.0,0.0,0.0,3.3834,3.3968,3.4324,3.5166,3.5277,3.5364,3.5493,3.5493,3.5493,3.5493,3.5493,0.0,3.5493,3.5493,3.5507,3.5507,3.5379,3.5311,3.5296,3.5254,3.5646,3.6466,3.6656,3.6647,3.6621,3.8287,3.898,3.9221,4.2393,4.3768,4.4131,4.6462,0.0,0.0,0.0,0.0,0.0,0.0,0.0,0.0,0.0,0.0,0.0,0.0,0.0,0.0,0.0,0.0,0.0,0.0,0.0,0.0,0.0,0.0,0.0,0.0,0.0,0.0,0.0,0.0,0.0,0.0,0.0,0.0,0.0,0.0,0.0,0.0,0.0,0.0,0.0,0.0,0.0,0.0,0.0,6.1788,6.168,6.168,6.1619,6.1519,6.1519,6.151,6.151,6.1498,6.1503,6.1503,6.1441,6.14,6.14,6.1468,6.1481,6.1481,6.1481,6.1495,6.1505,6.1577,6.1582,6.1601,6.1662,6.1686,6.1701,6.1701,6.1701,6.1701,0.0,0.0,0.0,0.0,0.0,0.0,0.0,0.0,0.0,0.0,0.0,0.0,0.0,3.4821,3.4967,3.5262,3.5379,3.5446,3.5493,3.5493,3.5493,3.5493,3.5493,3.5493,3.5493,3.5493,3.5493,3.5446,3.533,3.53,3.5308,3.5799,3.6203,3.6509,3.6572,3.7165,3.8151,3.8778,0.0,0.0,0.0,0.0,4.6366,0.0,0.0,0.0,0.0,0.0,0.0,0.0,0.0,0.0,0.0,0.0,0.0,0.0,0.0,0.0,0.0,0.0,0.0,0.0,0.0,0.0,0.0,0.0,0.0,0.0,0.0,0.0,0.0,0.0,0.0,0.0,0.0,0.0,0.0,0.0,0.0,0.0,0.0,0.0,0.0,0.0,0.0,0.0,0.0,0.0,6.1595,6.1553,6.1528,6.149,6.15,6.1476,6.144,6.1454,6.1441,6.1441,6.1414,6.14,6.14,6.1479,6.1506,6.1498,6.1553,6.157,6.1578,6.1581,6.1638,6.1662,6.1686,6.1701,6.1701,6.1701,6.1701,6.1701,0.0,0.0,0.0,0.0,0.0,0.0,0.0,0.0,0.0,3.4407,0.0,0.0,0.0,0.0,3.5308,3.533,3.5446,3.5493,3.5493,3.5493,3.5493,3.5493,3.5493,3.5493,3.5493,3.5218,3.5172,3.5412,3.5062,3.5036,3.5331,3.6124,3.6642,3.6929,3.7215,3.796,3.903,0.0,0.0,4.0597,0.0,0.0,4.6538,0.0,0.0,0.0,0.0,0.0,0.0,0.0,0.0,0.0,0.0,0.0,0.0,0.0,0.0,0.0,0.0,0.0,0.0,0.0,0.0,0.0,0.0,0.0,0.0,0.0,0.0,0.0,0.0,0.0,0.0,0.0,0.0,0.0,0.0,0.0,0.0,0.0,0.0,0.0,0.0,0.0,0.0,0.0,0.0,0.0,6.158,6.151,6.1489,6.1479,6.1472,6.1441,6.14,6.14,6.14,6.14,6.14,6.1408,6.144,6.1471,6.1517,6.1548,6.1601,6.1637,6.1637,6.1637,6.1665,6.1701,6.1701,6.1701,6.1701,6.1701,6.1701,6.1701,0.0,0.0,0.0,0.0,0.0,0.0,0.0,0.0,3.5209,3.5209,0.0,0.0,0.0,0.0,0.0,3.5398,3.546,3.5493,3.5493,3.5493,3.5493,3.5493,3.5493,3.5493,3.5493,3.468,3.4628,3.5398,3.4544,3.4553,3.535,3.6162,3.6967,3.7769,3.8648,3.9049,3.9088,0.0,4.031,4.075,0.0,4.6328,4.4666,0.0,0.0,0.0,4.7952,4.7876,0.0,0.0,0.0,0.0,0.0,0.0,0.0,0.0,0.0,0.0,0.0,0.0,0.0,0.0,0.0,0.0,0.0,0.0,0.0,0.0,0.0,0.0,0.0,0.0,0.0,0.0,0.0,0.0,0.0,0.0,0.0,0.0,0.0,0.0,0.0,0.0,0.0,0.0,0.0,6.158,6.149,6.1498,6.1467,6.14,6.14,6.14,6.14,6.14,6.14,6.14,6.14,6.144,6.15,6.1504,6.1548,6.1601,6.1678,6.1701,6.1701,6.1701,6.1701,6.1701,6.1701,6.1701,6.1701,6.1696,6.1696,6.1696,0.0,0.0,0.0,0.0,0.0,0.0,3.4866,3.5057,3.5209,0.0,0.0,0.0,3.5226,3.5273,3.535,3.546,3.5493,3.5493,3.5493,3.5493,3.5493,3.5493,3.5493,3.5493,3.5493,3.5229,3.5149,3.533,3.5094,3.5372,3.62,3.6986,3.7827,3.8686,3.9546,3.9947,3.9966,4.0215,0.0,0.0,4.5793,4.7379,0.0,0.0,0.0,0.0,0.0,4.9366,0.0,0.0,4.7398,4.2259,0.0,0.0,0.0,0.0,0.0,0.0,4.031,0.0,0.0,0.0,0.0,0.0,0.0,0.0,0.0,0.0,0.0,0.0,0.0,0.0,0.0,0.0,0.0,0.0,0.0,0.0,0.0,0.0,0.0,0.0,0.0,0.0,0.0,0.0,6.1634,6.158,6.149,6.1452,6.1414,6.14,6.14,6.14,6.14,6.14,6.1415,6.1459,6.1459,6.148,6.1504,6.155,6.1581,6.1601,6.1678,6.1701,6.1701,6.1701,6.1701,6.1701,6.1701,6.1701,6.1696,6.1588,6.1564,6.1537,0.0,0.0,0.0,0.0,0.0,0.0,3.5209,3.5209,3.5209,0.0,0.0,0.0,3.5239,3.5335,3.5412,3.5493,3.5493,3.5493,3.5493,3.5493,3.5493,3.5493,3.5493,3.5493,3.546,3.5062,3.5,3.5304,3.5293,3.5701,3.6547,3.7693,3.8514,3.9049,3.9909,4.031,0.0,0.0,0.0,0.0,4.5793,0.0,0.0,5.0245,5.1868,0.0,0.0,0.0,5.0397,5.3779,5.0054,0.0,0.0,0.0,0.0,0.0,0.0,0.0,0.0,0.0,0.0,0.0,0.0,0.0,0.0,5.1333,0.0,0.0,0.0,0.0,0.0,0.0,0.0,0.0,0.0,0.0,0.0,0.0,0.0,0.0,0.0,0.0,0.0,0.0,0.0,6.1701,6.1602,6.1519,6.1468,6.1421,6.14,6.14,6.14,6.14,6.14,6.1434,6.1468,6.149,6.1495,6.1504,6.155,6.1581,6.162,6.1633,6.167,6.1701,6.1701,6.1701,6.1701,6.1701,6.1701,6.1666,6.1615,6.1528,6.1441,6.1359,0.0,0.0,0.0,3.5209,3.5209,3.5209,3.5209,3.5209,3.5209,0.0,3.5209,3.5223,3.5281,3.5412,3.5493,3.5493,3.5493,3.5493,3.5493,3.5493,3.5493,3.5493,3.5493,3.546,3.5412,3.4644,3.4621,3.5426,3.5446,3.5892,3.6814,3.8304,3.9049,3.9183,0.0,0.0,0.0,0.0,0.0,4.1113,4.5583,4.6194,0.0,0.0,5.0436,0.0,5.2155,5.3091,5.3359,5.6129,5.3817,0.0,0.0,0.0,0.0,0.0,4.0635,0.0,0.0,0.0,0.0,0.0,0.0,0.0,4.8162,5.0314,5.2698,0.0,0.0,0.0,0.0,0.0,0.0,0.0,0.0,0.0,0.0,0.0,0.0,0.0,0.0,0.0,0.0,6.1696,6.1696,6.1696,6.1573,6.1479,6.1414,6.14,6.14,6.14,6.14,6.14,6.1394,6.1459,6.15,6.1506,6.1509,6.1553,6.1601,6.1601,6.1633,6.1701,6.1701,6.1696,6.1671,6.1671,6.1671,6.1671,6.1671,6.1595,6.1452,6.1441,6.1324,6.1177,0.0,0.0,0.0,3.5209,3.5209,3.5209,3.5209,3.5209,3.5209,3.5209,3.5261,3.5293,3.53,3.5364,3.5446,3.5493,3.5493,3.5493,3.5493,3.5493,3.5493,3.5493,3.5493,3.5493,3.5493,3.5206,3.5488,3.6335,3.6291,3.7043,3.8514,3.8858,3.9374,4.0062,4.0234,0.0,0.0,0.0,0.0,4.3367,4.436,0.0,4.7398,5.0455,5.2977,5.4963,5.5613,5.4982,5.3626,0.0,5.2843,5.3339,0.0,0.0,0.0,0.0,0.0,0.0,0.0,0.0,0.0,0.0,0.0,0.0,4.2029,4.4557,4.7011,0.0,0.0,0.0,0.0,0.0,0.0,0.0,0.0,0.0,0.0,0.0,0.0,0.0,0.0,0.0,0.0,6.164,6.1628,6.1628,6.1549,6.1495,6.1479,6.1428,6.14,6.14,6.14,6.1434,6.148,6.1481,6.1524,6.1577,6.158,6.162,6.1674,6.1674,6.169,6.1701,6.1701,6.1634,6.1537,6.1537,6.1537,6.1537,6.1537,6.1422,6.1253,6.1139,6.1072,6.1019,0.0,0.0,0.0,3.5209,3.5209,3.5209,3.5209,3.5209,3.5209,3.5209,3.5258,3.5492,3.5959,3.6027,3.6229,3.6719,3.6757,3.6757,3.6757,3.6757,3.6757,3.6757,3.6757,3.6724,3.6709,3.6631,3.6795,3.7201,3.7575,3.819,3.9011,3.9451,4.054,4.2106,4.0864,0.0,0.0,0.0,4.1036,4.2374,4.4895,0.0,5.0569,5.311,5.5403,5.7267,5.7492,5.7301,5.6768,5.5694,5.4524,0.0,0.0,4.9767,4.7818,0.0,4.4609,4.4647,0.0,0.0,0.0,4.031,0.0,0.0,0.0,4.4173,4.5878,0.0,0.0,0.0,0.0,0.0,0.0,0.0,0.0,0.0,0.0,0.0,0.0,0.0,0.0,0.0,0.0,6.1628,6.16,6.1549,6.1518,6.1491,6.1454,6.1414,6.1408,6.1445,6.1445,6.1461,6.1497,6.1529,6.1564,6.1601,6.1635,6.1662,6.1701,6.1701,6.1701,6.1696,6.1628,6.1553,6.149,6.139,6.1311,6.1258,6.1324,6.1253,6.1087,6.1019,6.0944,6.088,0.0,0.0,0.0,3.5209,3.5209,3.5209,3.5209,3.5209,3.5267,3.5455,3.594,3.6635,3.7563,3.8112,3.87,3.9392,3.945,3.9258,3.8757,0.0,3.8738,3.8738,3.8243,3.8189,3.862,3.815,3.7948,3.8049,3.8685,3.9088,3.9279,3.9966,4.138,0.0,0.0,0.0,0.0,0.0,0.0,4.2216,0.0,4.932,5.1639,5.4352,5.6179,5.7406,5.8325,5.9105,5.9682,5.9577,0.0,5.2654,5.3811,5.1544,0.0,0.0,0.0,0.0,0.0,0.0,0.0,0.0,0.0,4.1036,0.0,0.0,0.0,0.0,0.0,0.0,0.0,0.0,0.0,0.0,0.0,0.0,0.0,0.0,0.0,0.0,0.0,0.0,0.0,6.0605,6.0837,6.1433,6.0857,6.0754,6.1381,6.14,6.1428,6.151,6.149,6.1502,6.1518,6.158,6.1601,6.162,6.1678,6.1701,6.1701,6.1671,6.1666,6.164,6.1509,6.1431,6.1379,6.1239,6.1087,6.0964,6.112,6.107,6.0964,6.0964,6.088,6.08,3.5209,3.5209,0.0,0.0,3.5209,3.5209,3.5209,3.5209,3.5493,3.6326,3.8424,4.0145,4.1039,0.0,0.0,0.0,0.0,0.0,4.1527,0.0,4.1373,4.1373,3.9154,3.8965,4.1212,3.8999,3.8183,3.8967,3.8972,3.9412,4.0157,4.0253,4.0463,0.0,4.2737,0.0,0.0,0.0,4.5103,0.0,4.8177,4.7504,0.0,4.9767,5.2722,5.5508,5.8173,5.9195,5.8968,0.0,5.605,5.4828,0.0,5.2403,0.0,0.0,0.0,0.0,0.0,0.0,0.0,0.0,4.0826,0.0,0.0,0.0,0.0,0.0,0.0,0.0,0.0,0.0,0.0,0.0,0.0,0.0,0.0,0.0,0.0,0.0,0.0,0.0,0.0,0.0,5.8215,6.1181,5.8597,5.8208,6.1245,6.14,6.1428,6.151,6.149,6.153,6.1581,6.1601,6.1637,6.169,6.1701,6.1701,6.1696,6.158,6.1528,6.15,6.1316,6.1167,6.1057,6.1019,6.0924,6.085,6.0983,6.0943,6.0827,6.0827,6.0804,6.08,3.5209,3.5209,0.0,0.0,3.5209,3.5209,3.5209,3.5627,3.6291,3.7239,3.8284,3.9311,0.0,0.0,0.0,0.0,0.0,4.4393,0.0,0.0,4.2585,4.1104,3.998,0.0,4.0982,3.9862,3.9427,3.9809,3.9775,3.9947,4.031,4.031,4.1074,0.0,4.333,0.0,4.5143,0.0,0.0,0.0,0.0,0.0,0.0,5.2607,5.5668,5.721,5.8671,5.9046,5.8742,0.0,5.6045,0.0,0.0,0.0,0.0,0.0,0.0,0.0,0.0,0.0,0.0,0.0,0.0,0.0,0.0,0.0,4.031,0.0,0.0,0.0,0.0,0.0,0.0,0.0,0.0,0.0,0.0,0.0,0.0,0.0,0.0,0.0,0.0,0.0,0.0,0.0,0.0,5.9885,6.1322,6.14,6.1425,6.1504,6.1504,6.1541,6.1668,6.1668,6.1678,6.1701,6.1701,6.166,6.158,6.1528,6.1441,6.1324,6.1151,6.1055,6.0983,6.0922,6.0853,6.0823,6.0856,6.0853,6.08,6.08,6.08,6.08,3.5209,0.0,0.0,0.0,0.0,3.563,3.5859,3.6427,3.7185,0.0,0.0,0.0,4.0566,4.2124,0.0,0.0,0.0,4.7836,0.0,0.0,4.5145,4.3902,4.1675,0.0,0.0,0.0,4.0308,4.0308,4.031,4.031,4.031,4.031,4.1266,0.0,0.0,4.506,4.75,0.0,0.0,4.8281,5.0729,5.108,5.0684,5.5283,5.7693,5.8628,5.8831,5.8669,5.8368,5.8068,5.5726,0.0,5.6249,0.0,0.0,0.0,0.0,0.0,4.6077,0.0,0.0,0.0,0.0,0.0,0.0,0.0,0.0,0.0,0.0,0.0,0.0,0.0,0.0,0.0,0.0,0.0,0.0,0.0,0.0,0.0,0.0,0.0,0.0,0.0,0.0,5.9924,6.0001,6.0409,6.1361,6.1408,6.1461,6.1505,6.1518,6.1581,6.1701,6.1701,6.1701,6.1701,6.1666,6.1588,6.151,6.1409,6.1285,6.1132,6.1002,6.0963,6.0943,6.0831,6.08,6.08,6.08,6.08,6.08,6.08,6.08,6.08,3.5209,3.5209,0.0,0.0,0.0,0.0,0.0,0.0,0.0,0.0,0.0,0.0,0.0,0.0,0.0,0.0,0.0,5.6799,5.4337,0.0,5.016,0.0,0.0,4.2565,0.0,0.0,0.0,4.031,4.031,4.031,4.031,4.031,4.0348,4.052,0.0,4.43,4.4978,4.7443,5.0378,5.3362,5.3454,5.5198,5.7445,0.0,5.6447,5.8545,5.8186,0.0,0.0,5.5655,5.4849,0.0,0.0,0.0,0.0,0.0,0.0,0.0,0.0,0.0,0.0,4.4467,0.0,0.0,0.0,0.0,4.031,0.0,0.0,0.0,0.0,0.0,0.0,3.9183,0.0,0.0,0.0,0.0,0.0,0.0,0.0,0.0,0.0,0.0,0.0,5.6214,5.6466,5.7904,6.1225,6.1468,6.1495,6.1505,6.1557,6.1637,6.1701,6.1701,6.1701,6.1701,6.1573,6.149,6.1481,6.1155,6.102,6.1002,6.0856,6.0823,6.0823,6.08,6.08,6.08,6.08,6.08,6.08,6.08,6.08,6.08,0.0,0.0,0.0,0.0,0.0,0.0,0.0,3.864,0.0,0.0,0.0,0.0,0.0,0.0,5.2222,0.0,0.0,5.5311,5.4188,5.1139,0.0,0.0,0.0,4.2087,0.0,0.0,0.0,0.0,0.0,0.0,4.031,4.031,4.031,0.0,0.0,4.5148,0.0,0.0,0.0,0.0,0.0,5.4988,5.5955,0.0,0.0,5.8186,5.8024,5.7997,0.0,5.714,5.5974,5.4899,5.5609,5.4483,5.3019,5.3591,5.3328,0.0,0.0,0.0,5.1916,4.7277,0.0,0.0,0.0,0.0,0.0,0.0,0.0,0.0,0.0,0.0,4.0215,3.9909,4.0119,0.0,0.0,0.0,0.0,0.0,0.0,0.0,0.0,0.0,0.0,5.6214,5.8409,6.0197,0.0,6.149,6.1517,6.1557,6.1581,6.1637,6.1701,6.1701,6.1701,6.1701,6.1553,6.1431,6.1292,6.109,6.0944,6.0856,6.0827,6.08,6.08,6.08,6.08,6.08,6.08,6.08,6.08,6.08,6.08,6.0757,3.6929,0.0,0.0,0.0,0.0,0.0,0.0,0.0,0.0,0.0,4.5568,0.0,5.0317,0.0,5.296,0.0,5.5744,5.5798,5.446,5.2428,0.0,5.0921,4.6215,0.0,0.0,0.0,0.0,0.0,0.0,4.0253,4.0157,4.0253,4.0253,0.0,0.0,0.0,0.0,0.0,5.3293,0.0,0.0,5.5937,0.0,0.0,5.7537,5.6963,0.0,5.7997,5.7997,5.7997,5.7092,5.6172,5.7573,5.6079,5.4127,5.554,5.4954,5.374,5.3171,5.4345,0.0,5.0312,4.9986,0.0,4.4418,0.0,0.0,0.0,0.0,0.0,0.0,0.0,0.0,4.1877,4.1093,4.0377,0.0,0.0,0.0,0.0,0.0,0.0,0.0,0.0,5.365,5.6117,5.8363,6.0172,0.0,0.0,6.1553,6.1601,6.1619,6.1668,6.1701,6.1701,6.1691,6.1628,6.1461,6.1311,6.1116,6.0983,6.0899,6.08,6.08,6.08,6.08,6.08,6.08,6.08,6.08,6.08,6.08,6.08,6.0734,6.0572,0.0,0.0,0.0,0.0,3.8514,0.0,0.0,0.0,4.1871,0.0,4.5935,4.7375,5.0798,5.3728,5.5427,5.5453,5.8106,0.0,5.5584,5.4952,0.0,0.0,5.0892,5.038,5.2512,0.0,0.0,0.0,0.0,0.0,3.9892,4.0157,0.0,0.0,4.0157,0.0,4.8711,4.8982,5.2512,5.7997,5.7997,5.7923,5.7877,5.7941,5.6657,5.5084,5.7232,5.7997,5.7997,5.7997,5.7997,5.7997,5.7997,5.7997,5.7997,5.7997,5.7997,5.7645,5.5996,5.5561,5.5168,5.3389,0.0,0.0,0.0,0.0,4.5545,0.0,0.0,0.0,0.0,0.0,0.0,4.4572,4.2467,4.05,0.0,0.0,0.0,0.0,0.0,0.0,0.0,4.6065,4.898,5.5546,5.6261,0.0,0.0,0.0,6.1426,6.1601,6.1662,6.1701,6.1701,6.1701,6.1634,6.1519,6.1304,6.1132,6.1002,6.0856,6.08,6.08,6.08,6.08,6.08,6.08,6.08,6.08,6.08,6.08,6.08,6.08,6.0572,6.0265,3.8667,3.9183,3.9642,0.0,3.9833,4.0061,0.0,0.0,0.0,0.0,5.1151,5.4044,5.7475,5.8292,5.8718,5.8967,5.9486,0.0,0.0,0.0,0.0,5.7072,5.2071,5.0557,5.3404,4.7523,0.0,4.4289,0.0,0.0,3.958,0.0,0.0,0.0,0.0,0.0,4.8692,4.8763,5.2357,5.7997,5.7997,5.7055,0.0,0.0,5.6657,5.5084,5.7232,5.7997,5.7997,5.7997,5.7997,5.7997,5.7997,5.7997,5.7997,5.7997,5.7997,5.7968,5.7825,5.7996,5.7728,5.5697,5.4779,5.3702,0.0,0.0,0.0,0.0,0.0,0.0,0.0,0.0,0.0,0.0,0.0,0.0,0.0,0.0,0.0,0.0,0.0,0.0,0.0,4.685,5.0611,5.2375,5.4924,0.0,0.0,0.0,0.0,6.158,6.1686,6.1701,6.1701,6.1701,6.1671,6.1654,6.134,6.1192,6.1132,6.0922,6.08,6.08,6.08,6.08,6.08,6.08,6.08,6.08,6.08,6.08,6.0757,6.052,6.0208,5.9887,3.9565,0.0,0.0,4.0291,0.0,0.0,4.2372,0.0,0.0,5.0064,5.2335,0.0,5.8288,5.9172,5.9605,5.9785,5.9502,0.0,0.0,0.0,0.0,5.6429,5.4314,5.3921,5.5609,5.0878,0.0,4.6052,0.0,0.0,3.9324,0.0,0.0,0.0,0.0,4.2267,0.0,4.999,5.3271,5.6676,5.7602,0.0,0.0,5.7555,5.725,5.6375,5.7592,5.7997,5.7997,5.7997,5.7997,5.7997,5.7997,5.7997,5.7997,5.7997,5.8097,5.8326,5.875,5.9159,5.9197,5.8171,5.773,5.6836,5.3932,5.2881,5.2518,0.0,0.0,0.0,0.0,0.0,0.0,0.0,0.0,0.0,0.0,0.0,0.0,0.0,0.0,0.0,4.1092,4.7164,5.1232,5.1209,5.3045,0.0,0.0,0.0,0.0,5.9417,6.092,6.1701,6.1701,6.1701,6.1666,6.1621,6.1328,6.1177,6.1103,6.0901,6.08,6.08,6.08,6.08,6.08,6.08,6.08,6.08,6.0641,6.0572,6.052,6.0023,5.9804,5.9758,0.0,0.0,0.0,0.0,0.0,0.0,0.0,4.4369,0.0,5.1034,0.0,5.3568,5.6529,5.8216,5.914,5.9215,0.0,5.7612,5.4949,5.7122,5.7256,5.452,5.6805,5.8106,5.7997,5.5059,0.0,0.0,0.0,0.0,0.0,0.0,0.0,0.0,0.0,0.0,0.0,5.1852,5.4741,0.0,5.725,5.7997,5.7997,5.7997,5.7997,5.7997,5.7997,5.7997,5.7997,5.7997,5.7997,5.7997,5.7997,5.7997,5.7997,5.807,5.8344,5.871,5.9178,5.9537,5.9906,6.0313,6.0389,5.9644,5.6721,5.6052,5.6052,5.5995,5.367,5.3341,0.0,0.0,0.0,0.0,0.0,0.0,0.0,0.0,0.0,0.0,0.0,0.0,0.0,0.0,0.0,0.0,0.0,0.0,0.0,0.0,0.0,5.7231,6.0159,0.0,6.1701,0.0,6.1621,6.151,6.1279,6.11,6.0983,6.0856,6.08,6.08,6.08,6.08,6.08,6.08,6.08,6.0757,6.0475,6.0321,6.0237,5.9518,5.9467,5.9658,0.0,0.0,0.0,0.0,0.0,4.6001,4.9278,5.1225,5.267,5.3574,5.6109,0.0,5.8662,5.8763,5.8887,5.9178,5.8887,0.0,0.0,0.0,0.0,5.7629,5.7884,5.8042,5.7997,5.4883,5.1981,0.0,0.0,0.0,3.9755,0.0,0.0,0.0,0.0,0.0,4.9005,5.3038,0.0,5.7463,5.7859,5.7997,5.7997,5.7997,5.7997,5.7997,5.7997,5.7997,5.7997,5.7997,5.7997,5.7997,5.7997,5.7997,5.807,5.8412,5.8545,5.8772,5.9502,5.9758,5.9906,6.0313,6.0389,6.0236,5.9663,5.951,5.951,5.951,5.9134,5.8294,5.6678,0.0,0.0,0.0,0.0,0.0,0.0,0.0,0.0,0.0,0.0,0.0,0.0,0.0,0.0,0.0,0.0,0.0,0.0,0.0,0.0,0.0,6.1388,0.0,0.0,0.0,6.1528,6.151,6.1186,6.1019,6.0983,6.0856,6.08,6.08,6.08,6.08,6.08,6.08,6.08,6.0781,6.0734,6.0546,6.0265,5.9836,5.9537,5.9252,0.0,0.0,0.0,0.0,0.0,0.0,0.0,5.494,0.0,5.4982,5.6217,5.7228,5.7228,5.8122,5.8762,5.8926,5.8803,5.8656,5.8614,5.8462,5.8349,5.8305,5.8106,0.0,5.7997,5.6473,5.3665,4.9536,0.0,0.0,0.0,0.0,0.0,0.0,0.0,4.4851,0.0,0.0,0.0,5.6424,5.7555,5.7997,5.7997,5.7997,5.7997,5.7997,5.7997,5.7997,5.7997,5.7997,5.7997,5.8042,5.8257,5.8282,5.8412,5.8791,5.9046,5.9306,5.9673,5.9937,6.0159,6.0342,6.0389,6.0389,6.0389,6.0389,6.0398,6.0494,6.0578,5.96,5.6366,5.3102,0.0,0.0,0.0,0.0,0.0,0.0,0.0,0.0,0.0,0.0,0.0,0.0,0.0,0.0,0.0,0.0,0.0,0.0,0.0,0.0,0.0,0.0,0.0,0.0,0.0,6.151,6.1225,6.1072,6.0983,6.0856,6.08,6.08,6.08,6.08,6.08,6.08,6.071,6.052,6.0349,6.016,5.9981,5.9416,5.9234,5.914,0.0,4.3285,0.0,0.0,4.9493,0.0,0.0,5.6871,5.8074,5.6332,5.6108,5.6108,5.6108,5.767,5.8716,5.8716,5.8716,5.8656,5.8511,5.8418,5.8349,5.8197,5.8088,5.7997,5.7997,5.7997,5.5556,0.0,0.0,0.0,0.0,0.0,0.0,0.0,0.0,0.0,0.0,0.0,5.4893,5.5651,5.7324,5.7997,5.7997,5.7997,5.7997,5.7997,5.8115,5.8142,5.8142,5.8231,5.8186,5.8186,5.8586,5.875,5.8831,5.9196,5.9537,5.9823,5.9906,6.0159,6.0389,6.0389,6.0389,6.0389,6.0389,6.0425,6.046,6.0553,6.0584,5.9669,5.6573,5.4381,0.0,0.0,0.0,0.0,0.0,0.0,0.0,0.0,0.0,0.0,0.0,0.0,0.0,0.0,0.0,0.0,0.0,0.0,0.0,0.0,0.0,6.0627,6.0627,0.0,6.1588,0.0,6.1253,6.1087,6.0944,6.0853,6.08,6.08,6.08,6.0757,6.069,6.069,6.0494,6.0179,5.9887,5.9758,5.9605,5.9005,5.8926,5.9045,0.0,0.0,0.0,0.0,0.0,0.0,0.0,5.7225,5.8624,5.8423,5.8386,5.8386,5.8386,5.8568,5.8716,5.8716,5.8716,5.8656,5.8511,5.8418,5.8349,5.8197,5.8088,5.7997,5.7997,5.7997,5.6675,0.0,0.0,0.0,0.0,0.0,0.0,0.0,0.0,0.0,0.0,5.4463,5.5918,5.7712,5.7905,5.7997,5.7997,5.7997,5.7997,5.8024,5.8394,5.8545,5.8586,5.8969,5.887,5.8628,5.9008,5.9122,5.9233,5.9624,5.9758,5.9874,6.0237,6.0389,6.0389,6.0389,6.0389,6.0389,6.0389,6.0494,6.0553,6.0453,6.052,5.9669,5.6573,5.8286,5.9207,0.0,0.0,0.0,0.0,0.0,0.0,0.0,0.0,0.0,0.0,0.0,0.0,0.0,0.0,0.0,0.0,0.0,0.0,5.6489,0.0,5.7074,5.7074,6.002,0.0,6.1233,6.1106,6.0944,6.0827,6.0823,6.08,6.08,6.08,6.0641,6.0368,6.0368,6.015,5.9823,5.9791,5.9571,5.9252,5.9178,5.8986,5.8739,0.0,0.0,0.0,0.0,0.0,0.0,0.0,5.8129,5.8716,5.8716,5.8716,5.8716,5.8716,5.8716,5.8716,5.8716,5.8614,5.8529,5.8462,5.8331,5.8197,5.8106,5.8042,5.7997,5.7997,5.7997,5.6822,0.0,0.0,0.0,0.0,0.0,0.0,0.0,0.0,5.2375,5.4491,5.608,5.7214,5.7997,5.7997,5.7997,5.7997,5.7997,5.8142,5.8369,5.8545,5.875,5.9008,5.9413,5.927,5.9008,5.9432,5.9571,5.9639,6.0049,6.0159,6.0207,6.0361,6.0389,6.0389,6.0389,6.0389,6.0425,6.0494,6.0494,6.052,6.0652,6.0727,6.0457,5.9436,5.8587,5.8319,0.0,0.0,0.0,0.0,0.0,0.0,0.0,0.0,0.0,0.0,0.0,0.0,0.0,0.0,0.0,0.0,0.0,0.0,5.6547,0.0,5.9671,5.9671,6.0951,6.148,6.1206,6.1147,6.102,6.08,6.08,6.08,6.08,6.08,6.0616,6.0293,6.0293,5.9962,5.9432,5.9432,5.9234,5.8887,5.8887,5.8803,5.8716,5.2389,0.0,5.333,0.0,5.635,5.6889,5.8438,5.8716,5.8716,5.8716,5.8716,5.8716,5.8716,5.8716,5.8656,5.8656,5.8553,5.8425,5.8349,5.8242,5.8152,5.7997,5.7997,0.0,5.7997,5.7997,5.7171,5.5464,5.3041,0.0,0.0,0.0,0.0,0.0,5.3647,5.4785,5.5574,5.7281,5.7997,5.7997,5.7997,5.7997,5.7997,5.8142,5.8369,5.8628,5.8852,5.9122,5.9432,5.9842,5.9791,5.9605,5.9874,5.9988,6.0019,6.0313,6.0389,6.0389,6.0389,6.0389,6.0389,6.0389,6.0389,6.0425,6.0501,6.0546,6.0622,6.0902,6.0963,6.1022,6.1271,5.9258,5.8424,6.0978,0.0,0.0,0.0,0.0,0.0,0.0,0.0,5.6359,5.6394,0.0,0.0,0.0,0.0,0.0,0.0,0.0,0.0,0.0,0.0,0.0,0.0,6.1193,6.1534,6.1206,6.1206,6.1053,6.08,6.08,6.08,6.08,6.08,6.0616,6.0293,6.0208,5.9804,5.9215,5.9083,5.8926,5.8716,5.8716,5.8716,5.8716,5.435,5.4986,5.5843,5.7999,5.8553,5.8679,5.8716,5.8716,5.8716,5.8716,5.8716,5.8716,5.8716,5.8716,5.8656,5.8511,5.8511,5.8443,5.8197,5.8197,5.8152,0.0,0.0,5.7997,5.7997,5.7997,5.7978,5.796,0.0,0.0,5.1885,0.0,5.0472,5.4363,5.4399,5.5721,5.796,5.7997,5.7997,5.7997,5.7997,5.7997,5.8024,5.8437,5.8586,5.8691,5.9502,5.9791,5.9874,6.0256,6.0389,6.0389,6.0389,6.0389,6.0389,6.0389,6.0389,6.0389,6.0389,6.0389,6.0389,6.0389,6.0389,6.0389,6.0389,6.0671,6.0923,6.1076,6.1094,6.1094,6.1094,6.1229,6.1361,6.14,0.0,0.0,0.0,0.0,0.0,0.0,5.6375,5.64,5.6402,0.0,0.0,0.0,0.0,0.0,0.0,0.0,0.0,5.6606,5.6645,0.0,5.6665,6.0002,6.1534,6.1206,6.1206,6.1053,6.08,6.08,6.08,6.08,6.08,6.0616,6.0265,5.995,5.9571,5.9178,5.8825,5.8698,5.8716,5.8716,5.8716,5.8716,5.6965,5.7174,5.7518,5.8314,5.8511,5.8596,5.8716,5.8716,5.8716,5.8716,5.8716,5.8716,5.8716,5.8716,5.8656,0.0,5.8443,5.8375,0.0,5.8088,5.8042,5.7997,5.7997,5.7997,5.7997,5.7997,5.7997,5.7997,0.0,0.0,0.0,5.2839,5.4032,5.684,5.684,5.7281,5.7997,5.7997,5.7997,5.7997,5.7997,5.8142,5.8394,5.8545,5.893,5.9449,5.9725,5.9988,6.0237,6.0361,6.0389,6.0389,6.0389,6.0389,6.0389,6.0389,6.0389,6.0389,6.0389,6.0389,6.0389,6.0389,6.0389,6.0453,6.0676,6.0883,6.104,6.1094,6.1094,6.1148,6.1287,6.1352,6.14,6.14,6.14,0.0,0.0,0.0,0.0,0.0,5.9852,5.989,0.0,5.9924,0.0,0.0,0.0,0.0,0.0,0.0,0.0,0.0,5.887,0.0,6.008,6.1154,6.1534,6.1206,6.1206,6.1053,6.08,6.08,6.08,6.08,6.08,6.0616,6.0265,5.995,5.9571,5.9178,5.8825,5.8716,5.8716,5.8716,5.8716,5.8716,5.8106,5.8152,5.8242,5.8443,5.8468,5.8553,5.8656,5.8716,5.8716,5.8716,5.8716,5.8656,5.8614,5.8614,0.0,5.8486,5.8375,5.8242,5.8152,5.8042,5.7997,5.7997,5.7997,5.7997,5.7997,0.0,0.0,5.7997,5.6492,5.5757,5.5757,5.5757,5.6565,5.7997,5.7997,5.7997,5.7997,5.7997,5.7997,5.7997,5.8186,5.8369,5.8628,5.8791,5.9233,5.9791,5.9791,6.0068,6.0389,6.0389,6.0389,6.0389,6.0389,6.0389,6.0389,6.0389,6.0389,6.0389,6.0389,6.0389,6.0389,6.0389,6.0389,6.048,6.0836,6.1002,6.1111,6.12,6.1217,6.1252,6.1386,6.14,6.14,6.14,6.1421,6.144,6.144,0.0,0.0,0.0,0.0,0.0,0.0,5.9667,0.0,0.0,0.0,0.0,0.0,0.0,0.0,5.8538,6.0548,0.0,6.1628,6.1541,6.1381,6.1116,6.107,6.0964,6.08,6.08,6.08,6.08,6.08,6.0666,6.0449,5.9981,5.9639,5.9361,5.8905,5.8716,5.8716,5.8716,5.8716,5.8716,5.807,5.818,0.0,0.0,5.8573,0.0,5.8749,5.8735,5.8716,5.8716,5.8698,5.8656,5.8511,5.8511,5.8443,5.8393,0.0,0.0,0.0,5.7997,5.7997,5.7997,5.7997,5.7997,5.7997,5.7997,5.7997,5.7997,5.7997,5.7997,5.7997,5.7997,5.7997,5.7997,5.7997,5.7997,5.7997,5.7997,5.7997,5.8042,5.8412,5.8605,5.8628,5.9046,5.9467,5.9791,5.9842,6.008,6.0389,6.0389,6.0389,6.0389,6.0389,6.0389,6.0389,6.0389,6.0389,6.0389,6.0389,6.0389,6.0389,6.0389,6.0417,6.0514,6.0839,6.1022,6.1164,6.1352,6.14,6.14,6.14,6.14,6.14,6.14,6.1456,6.149,6.149,0.0,0.0,0.0,0.0,0.0,0.0,5.6914,5.8187,0.0,0.0,0.0,0.0,0.0,5.8081,6.1579,6.1545,6.1481,6.1481,6.1292,6.1132,6.1002,6.0856,6.08,6.08,6.08,6.08,6.0777,6.0777,6.0757,6.0666,6.0042,5.9758,5.9692,5.8984,5.8716,5.8716,5.8716,5.8716,5.8716,0.0,0.0,5.9209,6.0065,5.9659,5.9261,5.9584,5.9004,5.8553,5.8716,5.8614,5.8553,5.8511,5.8356,5.8268,5.8242,5.8197,5.8133,5.7997,5.7997,5.7997,5.7997,5.7997,5.7997,5.7997,5.7997,5.7997,5.7997,5.7997,5.7997,5.7997,5.7997,5.7997,5.7997,5.7997,5.7997,5.7997,5.7997,5.7997,5.7997,5.8115,5.8344,5.8628,5.9046,5.9467,5.9842,6.0129,6.0313,6.0389,6.0389,6.0389,6.0389,6.0389,6.0389,6.0389,6.0389,6.0389,6.0389,6.0389,6.0389,6.0389,6.0389,6.0597,6.0817,6.1002,6.1184,6.1337,6.1386,6.14,6.14,6.14,6.14,6.14,6.14,6.1456,6.149,6.149,6.1544,0.0,0.0,6.0424,6.0464,6.046,6.0475,5.9749,0.0,0.0,0.0,0.0,5.6887,5.7953,6.1448,6.1359,6.1279,6.1279,6.122,6.1132,6.1002,6.0856,6.08,6.08,6.08,6.0666,6.0422,6.0422,6.0265,6.0011,5.9518,5.9342,5.9289,5.8865,5.8716,5.8716,5.8716,5.8716,5.8716,5.9758,5.9758,5.9934,6.0582,6.0287,6.0038,6.0263,5.9937,5.9511,5.914,5.9103,5.8912,5.8437,5.8286,5.8197,5.8088,5.8106,5.8106,5.7997,5.7997,5.7997,5.7997,5.7997,5.7997,5.7997,5.7997,5.7997,5.7997,5.7997,5.7997,5.7997,5.7997,5.7997,5.7997,5.7997,5.7997,5.7997,5.7997,5.7997,5.8042,5.8186,5.8521,5.891,5.914,5.9571,6.0099,6.0129,6.0237,6.0389,6.0389,6.0389,6.0389,6.0389,6.0389,6.0389,6.0389,6.0389,6.0389,6.0389,6.0389,6.0398,6.0487,6.075,6.1002,6.1076,6.1252,6.14,6.14,6.14,6.14,6.14,6.14,6.14,6.14,6.0146,5.9708,6.1276,6.0247,0.0,6.1458,6.1674,6.1701,6.1701,6.1701,6.0939,5.9065,0.0,0.0,5.8929,5.8694,5.9443,6.1432,6.1258,6.112,6.112,6.1055,6.0983,6.0922,6.0831,6.08,6.0781,6.0641,6.0475,6.0293,6.015,5.9981,5.9758,5.9361,5.9215,5.9178,5.8825,5.8716,5.8716,5.8716,5.8716,5.8716,6.0584,6.0584,6.0669,6.094,6.0885,6.084,6.0997,6.0977,6.0689,5.9915,5.9775,5.9379,5.85,5.8271,5.8133,5.7997,5.7997,5.7997,5.7997,5.7997,5.7997,5.7997,5.7997,5.7997,5.7997,5.7997,5.7997,5.7997,5.7997,5.7997,5.7997,5.7997,5.7997,5.7997,5.7997,5.7997,5.7997,5.7997,5.8042,5.8115,5.8479,5.8812,5.9215,5.9289,5.9725,6.0285,5.9988,6.0099,6.0389,6.0389,6.0389,6.0389,6.0389,6.0389,6.0389,6.0389,6.0389,6.0389,6.0389,6.0398,6.046,6.0638,6.0884,6.1111,6.1148,6.1287,6.14,6.14,6.14,6.14,6.14,6.14,6.1225,6.0714,5.8674,5.8007,6.0401,0.0,5.846,6.1349,6.1701,6.1701,6.1701,6.1701,6.1701,6.1701,6.1701,6.1701,0.0,6.1392,6.1279,6.1441,6.1139,6.0964,6.0964,6.0875,6.08,6.08,6.08,6.08,6.08,6.052,6.0321,6.0208,5.9918,5.9725,5.959,5.9252,5.9103,5.9083,5.8803,5.8716,5.8716,5.8716,5.8716,5.8716,6.141,6.141,6.1728,6.262,6.2129,6.1716,6.2075,6.1392,6.0802,6.0781,6.0018,5.9403,5.921,5.8511,5.8042,5.7997,5.7997,5.7997,5.7997,5.7997,5.7997,5.7997,5.7997,5.7997,5.7997,5.7997,5.7997,5.7997,5.7997,5.7997,5.7997,5.7997,5.7997,5.7997,5.7997,5.7997,5.7997,5.7997,5.8186,5.8521,5.8586,5.8812,5.9252,5.9571,5.9791,5.9937,6.0207,6.0361,6.0389,6.0389,6.0389,6.0389,6.0389,6.0389,6.0389,6.0389,6.0389,6.0389,6.0389,6.0468,6.0638,6.0945,6.1058,6.1148,6.1302,6.1386,6.14,6.14,6.14,6.14,6.14,6.14,6.0456,5.7553,5.9123,5.9898,5.7594,0.0,6.1115,6.1642,6.1701,6.1701,6.1701,6.1701,6.1701,6.1701,6.1701,6.1701,6.1701,6.1392,6.122,6.1246,6.0983,6.0831,6.0831,6.0804,6.08,6.08,6.08,6.08,6.08,6.0734,6.0422,5.9855,5.9823,5.947,5.8884,5.8803,5.8762,5.8762,5.8698,5.8716,5.8716,5.8716,5.8716,5.8716,6.2254,6.2254,6.2414,6.2898,6.261,6.2401,6.2612,6.2345,6.1892,6.1403,6.0647,5.9918,5.9356,5.8538,5.7997,5.7997,5.7997,5.7997,5.7997,5.7997,5.7997,5.7997,5.7997,5.7997,5.7997,5.7997,5.7997,5.7997,5.7997,5.7997,5.7997,5.7997,5.7997,5.7997,5.7997,5.7997,5.7997,5.8213,5.8437,5.8628,5.8831,5.9159,5.9537,5.9725,5.9937,6.0129,6.0342,6.0389,6.0389,6.0389,6.0389,6.0389,6.0389,6.0389,6.0398,6.0487,6.052,6.052,6.052,6.0685,6.0905,6.1058,6.1164,6.1287,6.1386,6.14,6.14,6.14,6.14,6.14,6.14,6.14,6.0897,5.9348,5.8916,0.0,0.0,5.9071,5.9631,6.1486,6.1701,6.1701,6.1701,6.1701,6.1701,6.1701,6.1701,6.1701,6.1701,6.1392,6.1206,6.1206,6.0924,6.08,6.08,6.08,6.08,6.08,6.08,6.08,6.08,6.0616,6.0265,5.9791,5.9571,5.9159,5.8716,5.8716,5.8716,5.8716,5.8716,5.8716,5.8716,5.8716,5.8716,5.8716,6.2805,6.2805,6.2805,6.2855,6.2855,6.2855,6.2873,6.3051,6.283,6.2059,6.1198,6.0397,5.9557,5.8602,5.7997,5.7997,5.7997,5.7997,5.7997,5.7997,5.7997,5.7997,5.7997,5.7997,5.7997,5.7997,5.7997,5.7997,5.7997,5.7997,5.7997,5.7997,5.7997,5.7997,5.7997,5.8024,5.8142,5.8479,5.871,5.8891,5.9215,5.9571,5.9937,5.9937,6.0129,6.0389,6.0389,6.0361,6.0361,6.0389,6.0361,6.0361,6.0389,6.0425,6.046,6.0559,6.0661,6.0731,6.0731,6.0905,6.1111,6.1164,6.1287,6.14,6.14,6.14,6.14,6.14,6.14,6.14,6.14,6.14,6.1162,6.0428,0.0,0.0,0.0,5.8909,5.8753,6.1388,6.1701,6.1701,6.1701,6.1701,6.1701,6.1701,6.1701,6.1701,6.1701,6.1392,6.1177,6.112,6.0922,6.08,6.08,6.08,6.08,6.08,6.08,6.08,6.08,6.0546,6.0208,5.9791,5.9467,5.9102,5.8716,5.8716,5.8716,5.8716,5.8716,5.8716,5.8716,5.8716,5.8716,5.8716,6.2805,6.2805,6.2855,6.2953,6.3002,6.3051,6.3165,6.3099,6.2984,6.291,6.147,6.0382,6.0327,5.8933,5.7997,5.7997,5.7997,5.7997,5.7997,5.7997,5.7997,5.7997,5.7997,5.7997,5.7997,5.7997,5.7997,5.7997,5.7997,5.7997,5.7997,5.7997,5.7997,5.7997,5.7997,5.8231,5.8563,5.8586,5.9046,5.9725,5.9758,5.9988,6.0361,6.0361,6.0389,6.0389,6.0389,6.0285,6.0148,6.0361,6.0285,6.0148,6.0361,6.0487,6.0584,6.0589,6.0822,6.1076,6.1076,6.1076,6.1148,6.1337,6.1386,6.14,6.14,6.14,6.14,6.14,6.14,6.14,6.14,6.14,6.039,5.7271,0.0,0.0,5.7363,5.9475,6.1427,6.1681,6.1701,6.1701,6.1701,6.1701,6.1701,6.1701,6.1701,6.1701,6.1701,6.1392,6.1087,6.0831,6.0804,6.08,6.08,6.08,6.08,6.08,6.08,6.08,6.08,6.0757,6.0422,5.9791,5.9758,5.9344,5.8716,5.8716,5.8716,5.8716,5.8716,5.8716,5.8716,5.8716,5.8716,5.8716,6.2805,6.2805,6.2823,6.2855,6.2855,6.2904,6.2953,6.2953,6.2953,6.2904,6.1489,6.0496,6.0401,5.8951,5.7997,5.7997,5.7997,5.7997,5.7997,5.7997,5.7997,5.7997,5.7997,5.7997,5.7997,5.7997,5.7997,5.7997,5.7997,5.7997,5.7997,5.7997,5.7997,5.7997,5.8257,5.8437,5.8628,5.9122,5.9537,5.9823,6.0049,6.0266,6.0389,6.0389,6.0313,6.0207,6.0207,6.0118,5.9994,6.0148,6.0178,6.0099,6.0178,6.0395,6.0638,6.0843,6.1095,6.1287,6.1287,6.1287,6.1302,6.1386,6.14,6.14,6.14,6.1371,6.1352,6.1386,6.1371,6.1352,6.1386,6.1428,6.1042,5.9773,0.0,6.1131,5.9933,6.0881,6.1701,6.1701,6.1701,6.1701,6.1701,6.1701,6.1701,6.1701,6.1701,6.1701,6.1701,6.1392,6.107,6.0823,6.08,6.08,6.08,6.08,6.08,6.08,6.08,6.069,6.0475,6.0475,6.0082,5.9432,5.9432,5.9159,5.8716,5.8716,5.8716,5.8716,5.8716,5.8716,5.8716,5.8716,5.8716,5.8716,6.2805,6.2805,6.2805,6.2805,6.2805,6.2755,6.2534,6.2737,6.2695,6.1943,6.1111,6.0338,5.9822,5.8692,5.7997,5.7997,5.7997,5.7997,5.7997,5.7997,5.7997,5.7997,5.7997,5.7997,5.7997,5.7997,5.7997,5.7997,5.7997,5.7997,5.7997,5.7997,5.807,5.8186,5.8479,5.8669,5.8812,5.9502,5.9791,5.9842,6.0237,6.0389,6.0389,6.0389,6.0285,6.0099,6.0099,5.9963,5.982,5.9994,6.0087,6.0099,6.0159,6.043,6.0798,6.1113,6.1287,6.1371,6.1371,6.1371,6.1356,6.1371,6.1371,6.1356,6.1356,6.1337,6.1302,6.1352,6.1352,6.1352,6.1386,6.144,6.149,6.1495,6.1541,6.16,6.169,6.1701,6.1701,6.1701,6.1701,6.1701,6.1701,6.1701,6.1701,6.1701,6.1701,6.1646,6.1541,6.1292,6.1037,6.0823,6.08,6.08,6.08,6.08,6.08,6.08,6.08,6.0666,6.0449,6.0449,6.0053,5.9397,5.9397,5.914,5.8716,5.8716,5.8716,5.8716,5.8716,5.8716,5.8698,5.8656,5.8656,5.8614,6.2805,6.2805,6.2805,6.2805,6.2805,6.2585,6.2005,6.2412,6.205,6.0092,6.0171,5.9877,5.8486,5.8135,5.7997,5.7997,5.7997,5.7997,5.7997,5.7997,5.7997,5.7997,5.7997,5.7997,5.7997,5.7997,5.7997,5.7997,5.7997,5.7997,5.7997,5.7997,5.8213,5.8586,5.8586,5.8812,5.9196,5.9624,5.9791,5.9842,6.0237,6.0389,6.0389,6.0389,6.0285,6.0099,6.0099,5.988,5.965,5.982,5.9994,6.0129,6.0265,6.0681,6.1136,6.1341,6.1352,6.1302,6.1302,6.1291,6.1294,6.1287,6.1291,6.1297,6.1297,6.1291,6.1302,6.1302,6.1352,6.14,6.14,6.14,6.1414,6.149,6.1505,6.1553,6.1674,6.1701,6.1701,6.1701,6.1701,6.1701,6.1701,6.1701,6.1701,6.1701,6.1701,6.1541,6.122,6.107,6.0943,6.0781,6.08,6.08,6.08,6.08,6.08,6.08,6.08,6.08,6.08,6.08,6.0422,5.9791,5.9791,5.938,5.8698,5.8698,5.8698,5.8716,5.8716,5.8716,5.8656,5.8553,5.8511,5.8468,6.2805,6.2805,6.2805,6.2805,6.2805,6.2755,6.2585,6.2686,6.2393,6.1248,6.0682,6.0041,5.9024,5.8362,5.7997,5.7997,5.7997,5.7997,5.7997,5.7997,5.7997,5.7997,5.7997,5.7997,5.7997,5.7997,5.7997,5.7997,5.7997,5.7997,5.7997,5.7997,5.807,5.8186,5.8479,5.8669,5.8812,5.9502,5.9791,5.9842,6.0237,6.0389,6.0389,6.0389,6.0226,5.9982,5.9982,5.9734,5.9455,5.988,6.0087,6.0169,6.0657,6.0836,6.0942,6.1242,6.133,6.1294,6.1294,6.1261,6.1245,6.1294,6.1314,6.1297,6.1297,6.1261,6.1242,6.1287,6.1326,6.1326,6.1337,6.1363,6.139,6.1354,6.1486,6.1577,6.162,6.1665,6.1701,6.1701,6.1701,6.1701,6.1701,6.1701,6.1701,6.1701,6.1602,6.1461,6.122,6.107,6.0943,6.0781,6.08,6.08,6.08,6.08,6.08,6.08,6.08,6.0666,6.0449,6.0449,6.0208,5.9791,5.9791,5.9502,5.9045,5.9045,5.8926,5.8716,5.8716,5.8656,5.8553,5.8511,5.8486,5.8418,6.2805,6.2585,6.2464,6.2464,6.2219,6.2041,6.2041,6.2016,6.1524,6.025,5.9971,5.9353,5.7828,5.7856,5.7886,5.766,5.7886,5.7997,5.7997,5.7997,5.7997,5.7997,5.7997,5.7997,5.7997,5.7997,5.7997,5.7997,5.7997,5.7997,5.7997,5.7997,5.807,5.8257,5.8479,5.871,5.8891,5.9537,5.9791,5.9842,6.0237,6.0389,6.0389,6.0389,6.0197,5.9885,5.9885,5.9631,5.9364,5.9828,6.0121,6.043,6.0922,6.1022,6.1002,6.1227,6.1281,6.1245,6.1245,6.121,6.1173,6.121,6.1227,6.1227,6.1227,6.121,6.1208,6.1259,6.1278,6.1314,6.1291,6.1342,6.135,6.134,6.1466,6.1562,6.1601,6.167,6.1701,6.1701,6.1701,6.1701,6.1701,6.1705,6.1705,6.1701,6.158,6.1441,6.1336,6.1167,6.102,6.088,6.0877,6.0834,6.08,6.08,6.08,6.08,6.08,6.069,6.0494,6.0494,6.0321,5.9981,5.9981,5.9772,5.9432,5.9432,5.9234,5.8887,5.8887,5.8784,5.8553,5.8486,5.8418,5.8349,6.2805,6.236,6.1951,6.1897,6.1397,6.0938,6.0808,6.0696,5.9885,5.7928,5.8501,5.8141,5.5804,5.6964,5.7726,5.7216,5.766,5.7997,5.7997,5.7997,5.7997,5.7997,5.7997,5.7997,5.7997,5.7997,5.7997,5.7997,5.7997,5.7997,5.7997,5.7997,5.8213,5.8586,5.8586,5.8812,5.9252,5.9624,5.9791,5.9842,6.0237,6.0389,6.0389,6.0389,6.0197,5.9918,5.9885,5.9666,5.9364,5.9725,6.0208,6.075,6.108,6.1192,6.121,6.1261,6.1245,6.1192,6.1192,6.1155,6.1099,6.1099,6.1099,6.1099,6.1099,6.1155,6.1192,6.121,6.1245,6.1297,6.1297,6.1297,6.1322,6.1367,6.1439,6.1495,6.1559,6.1633,6.169,6.169,6.1705,6.1701,6.1701,6.1694,6.1697,6.1701,6.158,6.149,6.149,6.1304,6.1147,6.1019,6.102,6.0964,6.0831,6.0827,6.0804,6.08,6.08,6.08,6.08,6.08,6.0641,6.0349,6.0349,6.0131,5.9823,5.9791,5.9571,5.9215,5.9159,5.8947,5.8633,5.8462,5.8393,5.8349,6.2805,6.2705,6.2464,6.1951,6.1769,6.1312,6.021,6.0035,5.9388,5.7786,5.7727,5.7585,5.6829,5.7065,5.7431,5.7774,5.7932,5.7997,5.7997,5.7997,5.7997,5.7997,5.7997,5.7997,5.7997,5.7997,5.7997,5.7997,5.7997,5.7997,5.7997,5.7997,5.8213,5.8586,5.8586,5.8812,5.9252,5.9624,5.9791,5.9842,6.0237,6.0389,6.0389,6.0389,6.0256,6.0057,5.995,5.9753,5.9578,5.9973,6.0372,6.075,6.1022,6.1117,6.1117,6.1155,6.1117,6.1117,6.1117,6.1099,6.1099,6.1099,6.1099,6.1099,6.1099,6.1099,6.1137,6.1192,6.121,6.1227,6.1227,6.1227,6.1245,6.1255,6.1298,6.1344,6.1354,6.1514,6.162,6.1619,6.1676,6.1694,6.1701,6.1701,6.1705,6.1701,6.158,6.149,6.149,6.1304,6.1192,6.1162,6.1162,6.1147,6.11,6.102,6.0901,6.08,6.08,6.08,6.08,6.08,6.0757,6.069,6.069,6.0501,6.0179,5.9918,5.9571,5.9178,5.8788,5.8596,5.8437,5.8286,5.8197,5.7997,6.2515,6.2166,6.1677,6.1127,6.0469,5.9838,5.943,5.8722,5.796,5.7162,5.7225,5.694,5.5961,5.6616,5.7116,5.7184,5.7449,5.7546,5.7546,5.7839,5.7997,5.7997,5.7997,5.7997,5.7997,5.7997,5.7997,5.7997,5.7997,5.7997,5.7997,5.8186,5.8412,5.8628,5.8772,5.9122,5.9502,5.9725,5.9906,6.0099,6.0313,6.0389,6.0389,6.0389,6.0285,6.0068,6.0026,6.0007,6.0061,6.0161,6.0501,6.0922,6.1061,6.1099,6.1099,6.1099,6.1099,6.1099,6.1099,6.1099,6.1099,6.1099,6.1099,6.1099,6.1099,6.1099,6.1099,6.1155,6.1155,6.1155,6.1155,6.1155,6.1155,6.1173,6.1283,6.137,6.1381,6.1541,6.1658,6.1659,6.1674,6.1701,6.1701,6.1701,6.1701,6.1701,6.1634,6.1588,6.1588,6.1489,6.1402,6.1348,6.1348,6.1292,6.1186,6.1132,6.1019,6.0901,6.085,6.08,6.08,6.08,6.08,6.08,6.08,6.071,6.052,6.0179,5.9785,5.9323,5.8928,5.8638,5.8393,5.8242,5.8106,5.7932,6.2166,6.151,6.082,5.9953,5.8868,5.812,5.8293,5.7184,5.6309,5.6265,5.6502,5.613,5.479,5.613,5.6894,5.6492,5.6843,5.7116,5.7116,5.7565,5.7839,5.7839,5.7932,5.7997,5.7997,5.7997,5.7997,5.7997,5.7997,5.8042,5.8115,5.8437,5.8669,5.8812,5.9084,5.9432,5.9791,5.9791,5.9988,6.0313,6.0389,6.0389,6.0389,6.0389,6.0285,6.0118,6.0068,6.0169,6.0302,6.0217,6.0531,6.0963,6.108,6.1099,6.1099,6.1099,6.1099,6.1099,6.1099,6.1099,6.1099,6.1099,6.1099,6.1099,6.1099,6.1099,6.1099,6.1099,6.1099,6.1099,6.1099,6.1118,6.1156,6.121,6.1332,6.1437,6.1489,6.1616,6.1681,6.1678,6.1684,6.1642,6.1486,6.1486,6.1427,6.1271,6.1271,6.1271,6.1271,6.1271,6.1211,6.1088,6.1088,6.1004,6.0837,6.0968,6.0949,6.0826,6.0843,6.0827,6.08,6.08,6.08,6.08,6.08,6.08,6.0757,6.0349,5.9943,5.9568,5.9103,5.8702,5.8349,5.8197,5.8042,5.7839,6.2059,6.1824,6.1199,5.9391,5.8885,5.8125,5.6309,5.5865,5.5502,5.4862,5.4842,5.4939,5.5224,5.6349,5.7065,5.7015,5.7065,5.7116,5.7116,5.7166,5.7216,5.7216,5.7726,5.7997,5.7997,5.7997,5.7997,5.7997,5.7997,5.8186,5.8521,5.8586,5.8969,5.9605,5.9325,5.9432,5.9791,5.9791,5.9842,5.9906,6.0266,6.0389,6.0389,6.0389,6.0285,6.0068,5.9982,5.9715,5.954,6.0025,6.0253,6.0431,6.0942,6.1099,6.1099,6.1099,6.1099,6.1099,6.1099,6.1099,6.1099,6.1099,6.1099,6.1099,6.1099,6.1099,6.1099,6.1099,6.1099,6.1099,6.1099,6.1195,6.1272,6.1268,6.1384,6.1502,6.1495,6.1561,6.1606,6.1614,6.1655,6.1393,6.0646,6.0588,6.0256,5.9514,5.9456,5.9456,5.9456,5.9456,5.9432,5.9427,5.9427,5.9402,5.9371,6.0027,6.0277,6.0134,6.0708,6.0902,6.08,6.08,6.08,6.08,6.08,6.08,6.0734,6.0004,5.9668,5.9515,5.8665,5.8268,5.8197,5.8106,5.766,5.7216,6.1109,6.0535,5.9863,5.8567,5.7625,5.6762,5.5783,5.527,5.4874,5.4546,5.479,5.4957,5.4896,5.5325,5.5658,5.5658,5.5981,5.6312,5.6634,5.6946,5.7234,5.7613,5.7839,5.7997,5.7997,5.7997,5.7997,5.7997,5.7997,5.8115,5.8257,5.8479,5.8772,5.9122,5.9159,5.9325,5.9467,5.9725,5.9791,5.9842,6.0237,6.0389,6.0389,6.0285,6.0178,6.0068,5.9801,5.9734,5.9777,6.0103,6.0326,6.0551,6.0963,6.1002,6.088,6.088,6.088,6.088,6.088,6.0982,6.1099,6.1099,6.1099,6.1099,6.1099,6.1099,6.1118,6.1195,6.1215,6.1215,6.1253,6.1311,6.1363,6.1369,6.1469,6.1559,6.1569,6.1616,6.1483,6.0994,6.0529,6.01,5.971,5.9671,5.9514,5.9124,5.9104,5.9104,5.9104,5.9104,5.9104,5.9104,5.9104,5.9104,5.9104,5.943,5.9529,5.9382,5.9692,6.0162,6.08,6.08,6.08,6.08,6.0777,6.0734,6.071,6.0121,5.9687,5.9376,5.8769,5.8363,5.8088,5.8257,5.7739,5.6937]},{"header":{"parameterUnit":"m.s-1","parameterCategory":1,"la1":30.6,"la2":28.766,"lo1":-90.7593,"lo2":-88.6598,"dy":0.0162,"dx":0.0183,"nx":116,"ny":114,"refTime":"2023-03-23T12:00:00:Z","depth":0,"parameterNumber":3,"parameterNumberName":"V-component_of_WINDS"},"data":[0.0,0.0,0.0,0.0,0.0,0.0,0.0,0.0,0.0,0.0,0.0,0.0,0.0,0.0,0.0,0.0,0.0,0.0,0.0,0.0,0.0,0.0,0.0,0.0,0.0,0.0,0.0,0.0,0.0,0.0,0.0,0.0,0.0,0.0,0.0,0.0,0.0,0.0,0.0,0.0,0.0,0.0,0.0,0.0,0.0,0.0,0.0,0.0,0.0,0.0,0.0,0.0,0.0,0.0,0.0,0.0,0.0,0.0,0.0,0.0,0.0,0.0,0.0,0.0,0.0,0.0,0.0,0.0,0.0,0.0,0.0,0.0,0.0,0.0,0.0,0.0,0.0,0.0,0.0,0.0,0.0,0.0,0.0,0.0,0.0,0.0,0.0,0.0,0.0,0.0,0.0,0.0,0.0,0.0,0.0,0.0,0.0,0.0,0.0,0.0,0.0,0.0,0.0,0.0,0.0,0.0,0.0,0.0,0.0,0.0,0.0,0.0,0.0,0.0,0.0,0.0,0.0,0.0,0.0,0.0,0.0,0.0,0.0,0.0,0.0,0.0,0.0,0.0,0.0,0.0,0.0,0.0,0.0,0.0,0.0,0.0,0.0,0.0,0.0,0.0,0.0,0.0,0.0,0.0,0.0,0.0,0.0,0.0,0.0,0.0,0.0,0.0,0.0,0.0,0.0,0.0,0.0,0.0,0.0,0.0,0.0,0.0,0.0,0.0,0.0,0.0,0.0,0.0,0.0,0.0,0.0,0.0,0.0,0.0,0.0,0.0,0.0,0.0,0.0,0.0,0.0,0.0,0.0,0.0,0.0,0.0,0.0,0.0,0.0,0.0,0.0,0.0,0.0,0.0,0.0,0.0,0.0,0.0,0.0,0.0,0.0,0.0,0.0,0.0,0.0,0.0,0.0,0.0,0.0,0.0,0.0,0.0,0.0,0.0,0.0,0.0,0.0,0.0,0.0,0.0,0.0,0.0,0.0,0.0,0.0,0.0,0.0,0.0,0.0,0.0,0.0,0.0,0.0,0.0,0.0,0.0,0.0,0.0,0.0,0.0,0.0,0.0,0.0,0.0,0.0,0.0,0.0,0.0,0.0,0.0,0.0,0.0,0.0,0.0,0.0,0.0,0.0,0.0,0.0,0.0,0.0,0.0,0.0,0.0,0.0,0.0,0.0,0.0,0.0,0.0,0.0,0.0,0.0,0.0,0.0,0.0,0.0,0.0,0.0,0.0,0.0,0.0,0.0,0.0,0.0,0.0,0.0,0.0,0.0,0.0,0.0,0.0,0.0,0.0,0.0,0.0,0.0,0.0,0.0,0.0,0.0,0.0,0.0,0.0,0.0,0.0,0.0,0.0,0.0,0.0,0.0,0.0,0.0,0.0,0.0,0.0,0.0,0.0,0.0,0.0,0.0,0.0,0.0,0.0,0.0,0.0,0.0,0.0,0.0,0.0,0.0,0.0,0.0,0.0,0.0,0.0,0.0,0.0,0.0,0.0,0.0,0.0,0.0,0.0,0.0,0.0,0.0,0.0,0.0,0.0,0.0,0.0,0.0,0.0,0.0,0.0,0.0,0.0,0.0,0.0,0.0,0.0,0.0,0.0,0.0,0.0,0.0,0.0,0.0,0.0,0.0,0.0,0.0,0.0,0.0,0.0,0.0,0.0,0.0,0.0,0.0,0.0,0.0,0.0,0.0,0.0,0.0,0.0,0.0,0.0,0.0,0.0,0.0,0.0,0.0,0.0,0.0,0.0,0.0,0.0,0.0,0.0,0.0,0.0,0.0,0.0,0.0,0.0,0.0,0.0,0.0,0.0,0.0,0.0,0.0,0.0,0.0,0.0,0.0,0.0,0.0,0.0,0.0,0.0,0.0,0.0,0.0,0.0,0.0,0.0,0.0,0.0,0.0,0.0,0.0,0.0,0.0,0.0,0.0,0.0,0.0,0.0,0.0,0.0,0.0,0.0,0.0,0.0,0.0,0.0,0.0,0.0,0.0,0.0,0.0,0.0,0.0,0.0,0.0,0.0,0.0,0.0,0.0,0.0,0.0,0.0,0.0,0.0,0.0,0.0,0.0,0.0,0.0,0.0,0.0,0.0,0.0,0.0,0.0,0.0,0.0,0.0,0.0,0.0,0.0,0.0,0.0,0.0,0.0,0.0,0.0,0.0,0.0,0.0,0.0,0.0,0.0,0.0,0.0,0.0,0.0,0.0,0.0,0.0,0.0,0.0,0.0,0.0,0.0,0.0,0.0,0.0,0.0,0.0,0.0,0.0,0.0,0.0,0.0,0.0,0.0,0.0,0.0,0.0,0.0,0.0,0.0,0.0,0.0,0.0,0.0,0.0,0.0,0.0,0.0,0.0,0.0,0.0,0.0,0.0,0.0,0.0,0.0,0.0,0.0,0.0,0.0,0.0,0.0,0.0,0.0,0.0,0.0,0.0,0.0,0.0,0.0,0.0,0.0,0.0,0.0,0.0,0.0,0.0,0.0,0.0,0.0,0.0,0.0,0.0,0.0,0.0,0.0,0.0,0.0,0.0,0.0,0.0,0.0,0.0,0.0,0.0,0.0,0.0,0.0,0.0,0.0,0.0,0.0,0.0,0.0,0.0,0.0,0.0,0.0,0.0,0.0,0.0,0.0,0.0,0.0,0.0,0.0,0.0,0.0,0.0,0.0,0.0,0.0,0.0,0.0,0.0,0.0,0.0,0.0,0.0,0.0,0.0,0.0,0.0,0.0,0.0,0.0,0.0,0.0,0.0,0.0,0.0,0.0,0.0,0.0,0.0,0.0,0.0,0.0,0.0,0.0,0.0,0.0,0.0,0.0,0.0,0.0,0.0,0.0,0.0,0.0,0.0,0.0,0.0,0.0,0.0,0.0,0.0,0.0,0.0,0.0,0.0,0.0,0.0,0.0,0.0,0.0,0.0,0.0,0.0,0.0,0.0,0.0,0.0,0.0,0.0,0.0,0.0,0.0,0.0,0.0,0.0,0.0,0.0,0.0,0.0,0.0,0.0,0.0,0.0,0.0,0.0,0.0,0.0,0.0,0.0,0.0,0.0,0.0,0.0,0.0,0.0,0.0,0.0,0.0,0.0,0.0,0.0,0.0,0.0,0.0,0.0,0.0,0.0,0.0,0.0,0.0,0.0,0.0,0.0,0.0,0.0,0.0,0.0,0.0,0.0,0.0,0.0,0.0,0.0,0.0,0.0,0.0,0.0,0.0,0.0,0.0,0.0,0.0,0.0,0.0,0.0,0.0,0.0,0.0,0.0,0.0,0.0,0.0,0.0,0.0,0.0,0.0,0.0,0.0,0.0,0.0,0.0,0.0,0.0,0.0,0.0,0.0,0.0,0.0,0.0,0.0,0.0,0.0,0.0,0.0,0.0,0.0,0.0,0.0,0.0,0.0,0.0,0.0,0.0,0.0,0.0,0.0,0.0,0.0,0.0,0.0,0.0,0.0,0.0,0.0,0.0,0.0,0.0,0.0,0.0,0.0,0.0,0.0,0.0,0.0,0.0,0.0,0.0,0.0,0.0,0.0,0.0,0.0,0.0,0.0,0.0,0.0,0.0,0.0,0.0,0.0,0.0,0.0,0.0,0.0,0.0,0.0,0.0,0.0,0.0,0.0,0.0,0.0,0.0,0.0,0.0,0.0,0.0,0.0,0.0,0.0,0.0,0.0,0.0,0.0,0.0,0.0,0.0,0.0,0.0,0.0,0.0,0.0,0.0,0.0,0.0,0.0,0.0,0.0,0.0,0.0,0.0,0.0,0.0,0.0,0.0,0.0,0.0,0.0,0.0,0.0,0.0,0.0,0.0,0.0,0.0,0.0,0.0,0.0,0.0,0.0,0.0,0.0,0.0,0.0,0.0,0.0,0.0,0.0,0.0,0.0,0.0,0.0,0.0,0.0,0.0,0.0,0.0,0.0,0.0,0.0,0.0,0.0,0.0,0.0,0.0,0.0,0.0,0.0,0.0,0.0,0.0,0.0,0.0,0.0,0.0,0.0,0.0,0.0,0.0,0.0,0.0,0.0,0.0,0.0,0.0,0.0,0.0,0.0,0.0,0.0,0.0,0.0,0.0,0.0,0.0,0.0,0.0,0.0,0.0,0.0,0.0,0.0,0.0,0.0,0.0,0.0,0.0,0.0,0.0,0.0,0.0,0.0,0.0,0.0,0.0,0.0,0.0,0.0,0.0,0.0,0.0,0.0,0.0,0.0,0.0,0.0,0.0,0.0,0.0,0.0,0.0,0.0,0.0,0.0,0.0,0.0,0.0,0.0,0.0,0.0,0.0,0.0,0.0,0.0,0.0,0.0,0.0,0.0,0.0,0.0,0.0,0.0,0.0,0.0,0.0,0.0,0.0,0.0,0.0,0.0,0.0,0.0,0.0,0.0,0.0,0.0,0.0,0.0,0.0,0.0,0.0,0.0,0.0,0.0,0.0,0.0,0.0,0.0,0.0,0.0,0.0,0.0,0.0,0.0,0.0,0.0,0.0,0.0,0.0,0.0,0.0,0.0,0.0,0.0,0.0,0.0,0.0,0.0,0.0,0.0,0.0,0.0,0.0,0.0,0.0,0.0,0.0,0.0,0.0,0.0,0.0,0.0,0.0,0.0,0.0,0.0,0.0,0.0,0.0,0.0,0.0,0.0,0.0,0.0,0.0,0.0,0.0,0.0,0.0,0.0,0.0,0.0,0.0,0.0,0.0,0.0,0.0,0.0,0.0,0.0,0.0,0.0,0.0,0.0,0.0,0.0,0.0,0.0,0.0,0.0,0.0,0.0,0.0,0.0,0.0,0.0,0.0,0.0,0.0,0.0,0.0,0.0,0.0,0.0,0.0,0.0,0.0,0.0,0.0,0.0,0.0,0.0,0.0,0.0,0.0,0.0,0.0,0.0,0.0,0.0,0.0,0.0,0.0,0.0,0.0,0.0,0.0,0.0,0.0,0.0,0.0,0.0,0.0,0.0,0.0,0.0,0.0,0.0,0.0,0.0,0.0,0.0,0.0,0.0,0.0,0.0,0.0,0.0,0.0,0.0,0.0,0.0,0.0,0.0,0.0,0.0,0.0,0.0,0.0,0.0,0.0,0.0,0.0,0.0,0.0,0.0,0.0,0.0,0.0,0.0,0.0,0.0,0.0,0.0,0.0,0.0,0.0,0.0,0.0,0.0,0.0,0.0,0.0,0.0,0.0,0.0,0.0,0.0,0.0,0.0,0.0,0.0,0.0,0.0,0.0,0.0,0.0,0.0,0.0,0.0,0.0,0.0,0.0,0.0,0.0,0.0,0.0,0.0,0.0,0.0,0.0,0.0,0.0,0.0,0.0,0.0,0.0,0.0,0.0,0.0,0.0,0.0,0.0,0.0,0.0,0.0,0.0,0.0,0.0,0.0,0.0,0.0,0.0,0.0,0.0,0.0,0.0,0.0,0.0,0.0,0.0,0.0,0.0,0.0,0.0,0.0,0.0,0.0,0.0,0.0,0.0,0.0,0.0,0.0,0.0,0.0,0.0,0.0,0.0,0.0,0.0,0.0,0.0,0.0,0.0,0.0,0.0,0.0,0.0,0.0,0.0,0.0,0.0,0.0,0.0,0.0,0.0,0.0,0.0,0.0,0.0,0.0,0.0,0.0,0.0,0.0,0.0,0.0,0.0,0.0,0.0,0.0,0.0,0.0,0.0,0.0,0.0,0.0,0.0,0.0,0.0,0.0,0.0,0.0,0.0,0.0,0.0,0.0,0.0,0.0,0.0,0.0,0.0,0.0,0.0,0.0,0.0,0.0,0.0,0.0,0.0,0.0,0.0,0.0,0.0,0.0,0.0,0.0,0.0,0.0,0.0,0.0,0.0,0.0,0.0,0.0,0.0,0.0,0.0,0.0,0.0,0.0,0.0,0.0,0.0,0.0,0.0,0.0,0.0,0.0,0.0,0.0,0.0,0.0,0.0,0.0,0.0,0.0,0.0,0.0,0.0,0.0,0.0,0.0,0.0,0.0,0.0,0.0,0.0,0.0,0.0,0.0,0.0,0.0,0.0,0.0,0.0,0.0,0.0,0.0,0.0,0.0,0.0,0.0,0.0,0.0,0.0,-0.4979,0.0,0.0,0.0,0.0,0.0,0.0,0.0,0.0,0.0,0.0,0.0,0.0,0.0,0.0,0.0,0.0,0.0,0.0,0.0,0.0,0.0,0.0,0.0,0.0,0.0,0.0,0.0,0.0,0.0,0.0,0.0,0.0,0.0,0.0,0.0,0.0,0.0,0.0,0.0,0.0,0.0,0.0,0.0,0.0,0.0,0.0,0.0,0.0,0.0,0.0,0.0,0.0,0.0,0.0,0.0,0.0,0.0,0.0,0.0,0.0,0.0,0.0,0.0,0.0,0.0,0.0,0.0,0.0,0.0,0.0,0.0,0.0,0.0,0.0,0.0,0.0,0.0,0.0,0.0,0.0,0.0,0.0,0.0,0.0,0.0,0.0,0.0,0.0,0.0,0.0,0.0,0.0,0.0,0.0,0.0,0.0,0.0,0.0,0.0,0.0,0.0,0.0,0.0,0.0,0.0,0.0,0.0,0.0,0.0,0.0,0.0,0.0,0.0,0.0,0.0,0.0,-0.6101,0.0,0.0,0.0,0.0,0.0,0.0,0.0,0.0,0.0,0.0,0.0,0.0,0.0,0.0,0.0,0.0,0.0,0.0,0.0,0.0,0.0,0.0,0.0,0.0,0.0,0.0,0.0,0.0,0.0,0.0,0.0,0.0,0.0,0.0,0.0,0.0,0.0,0.0,0.0,0.0,0.0,0.0,0.0,0.0,0.0,0.0,0.0,0.0,0.0,0.0,0.0,0.0,0.0,0.0,0.0,0.0,0.0,0.0,0.0,0.0,0.0,0.0,0.0,0.0,0.0,0.0,0.0,0.0,0.0,0.0,0.0,0.0,0.0,0.0,0.0,0.0,0.0,0.0,0.0,0.0,0.0,0.0,0.0,0.0,0.0,0.0,0.0,0.0,0.0,0.0,0.0,0.0,0.0,0.0,0.0,0.0,0.0,0.0,0.0,0.0,0.0,0.0,0.0,0.0,0.0,0.0,0.0,0.0,-0.3309,-0.3324,-0.3324,-0.353,-0.4784,-0.6955,-0.6981,-0.7814,-0.9051,0.0,0.0,0.0,0.0,0.0,0.0,0.0,0.0,0.0,0.0,0.0,0.0,0.0,0.0,0.0,0.0,0.0,0.0,0.0,0.0,0.0,0.0,0.0,0.6338,0.6338,0.639,0.0,0.0,0.0,0.0,0.0,0.0,0.0,0.0,0.0,0.0,0.0,0.0,0.0,0.1936,0.1822,0.1929,0.2138,0.1922,0.0,0.0,0.0,0.0,0.0,0.0,0.0,0.0,0.0,0.0,0.0,0.0,0.0,0.0,0.0,0.0,0.0,0.0,0.0,0.0,0.0,0.0,0.0,0.0,0.0,0.0,0.0,0.0,0.0,0.0,0.0,0.0,0.0,0.0,0.0,0.0,0.0,0.0,0.0,0.0,0.0,0.0,0.0,0.1594,0.1598,0.0,0.0,0.0,0.0,0.0,0.0,0.0,0.0,0.0,0.0,0.0,0.0,0.0,0.0,-0.232,-0.2959,-0.3353,-0.3463,-0.3623,-0.3698,-0.3698,-0.4726,-0.5474,-0.6051,-0.7046,0.0,-0.9215,-0.8755,0.0,0.0,0.0,0.0,0.0,0.0,0.0,0.0,0.0,0.0,0.0,0.0,0.0,0.0,0.0,0.0,0.0,0.0,0.0,0.0,0.0,0.0,0.6637,0.6637,0.7075,0.7275,0.0,0.0,0.0,0.0,0.0,0.0,0.0,0.0,0.0,0.0,0.2026,0.1866,0.1917,0.1917,0.1917,0.1915,0.1875,0.18,0.1701,0.1662,0.0,0.0,0.0,0.0,0.0,0.0,0.0,0.0,0.0,0.0,0.0,0.0,0.0,0.0,0.0,0.0,0.0,0.0,0.0,0.0,0.0,0.0,0.0,0.0,0.0,0.0,0.0,0.0,0.0,0.0,0.0,0.0,0.0,0.0,0.0,0.0,0.0,0.0,0.0,0.1907,0.1845,0.1588,0.1541,0.1493,0.0,0.0,0.0,0.0,0.0,0.0,0.0,0.0,0.0,-0.1954,-0.2284,-0.2757,-0.3179,-0.3597,-0.3751,-0.3753,-0.3833,-0.3871,-0.3871,-0.435,-0.5088,-0.5847,-0.6451,-0.7303,-0.8484,-0.8288,-0.7912,-0.7196,0.0,0.0,0.0,0.0,-0.5921,-0.6179,0.0,0.0,0.0,0.0,0.0,0.0,0.0,0.0,0.0,0.0,0.0,0.0,0.643,0.6834,0.7099,0.7099,0.7675,0.7848,0.74,0.0,0.0,0.0,0.0,0.0,0.0,0.0,0.0,0.184,0.1864,0.191,0.1977,0.1977,0.1977,0.1977,0.1977,0.1901,0.1772,0.1967,0.1912,0.0,0.0,0.0,0.0,0.0,0.0,0.0,0.0,0.0,0.0,0.0,0.0,0.0,0.0,0.0,0.0,0.0,0.0,0.0,0.0,0.0,0.0,0.0,0.0,0.0,0.0,0.0,0.0,0.0,0.0,0.0,0.0,0.0,0.0,0.0,0.0,0.0,0.0,0.2141,0.1976,0.1803,0.1706,0.1579,0.0,0.0,0.0,0.0,0.0,0.0,0.0326,0.0,-0.0889,-0.257,-0.2809,-0.3216,-0.395,-0.3951,-0.3951,-0.3951,-0.3951,-0.3951,-0.3951,-0.3951,-0.4441,-0.5419,-0.5419,-0.6151,-0.7345,-0.7472,-0.8042,-0.8653,-0.7374,-0.6836,-0.6739,-0.7172,-0.7428,-0.7607,0.0,0.0,0.0,0.0,0.0,0.0,0.0,0.0,0.0,0.0,0.0,0.6895,0.6895,0.7295,0.7567,0.7567,0.7855,0.7848,0.74,0.7648,0.7611,0.0,0.0,0.0,0.0,0.0,0.0,0.184,0.1927,0.1972,0.1977,0.1977,0.1977,0.1977,0.1977,0.1971,0.1957,0.2569,0.2743,0.2714,0.0,0.0,0.0,0.0,0.0,0.0,0.0,0.0,0.0,0.0,0.0,0.0,0.0,0.0,0.0,0.0,0.0,0.0,0.0,0.0,0.0,0.0,0.0,0.0,0.0,0.0,0.0,0.0,0.0,0.0,0.0,0.0,0.0,0.0,0.0,0.0,0.0,0.0,0.0,0.2348,0.1994,0.0,0.0,0.0,0.0,0.1697,0.1701,0.1306,0.0457,-0.0572,-0.1521,-0.2454,-0.3321,-0.3819,-0.3951,-0.3951,-0.3951,-0.3951,-0.3951,-0.3951,-0.3951,-0.3951,-0.395,-0.395,-0.395,-0.4807,-0.6027,-0.6974,-0.7197,-0.6808,-0.6448,-0.5979,-0.5783,-0.7481,-0.8103,-0.8402,0.0,0.0,0.0,0.0,0.0,0.0,0.0,0.0,0.0,0.6338,0.6651,0.6929,0.6929,0.759,0.8069,0.816,0.8618,0.8754,0.8404,0.8296,0.7743,0.0,0.0,0.0,0.0,0.0,0.1836,0.1928,0.196,0.1977,0.1977,0.1977,0.1977,0.1977,0.1977,0.1977,0.1975,0.2184,0.2484,0.2749,0.2763,0.2718,0.0,0.0,0.0,0.0,0.0,0.0,0.0,0.0,0.0,0.0,0.0,0.0,0.0,0.0,0.0,0.0,0.0,0.0,0.0,0.0,0.0,0.0,0.0,0.0,0.0,0.0,0.0,0.0,0.0,0.0,0.0,0.0,0.0,0.0,0.0,0.0,0.0,0.1929,0.1897,0.0,0.0,0.1867,0.1792,0.1792,0.1847,0.142,0.0481,0.012,-0.0848,-0.2466,-0.2837,-0.3332,-0.3951,-0.3951,-0.3951,-0.3951,-0.3951,-0.3951,-0.3951,-0.3951,-0.3951,-0.3951,-0.3951,-0.4196,-0.4562,-0.4556,-0.5581,-0.7125,-0.7005,-0.6793,-0.6565,-0.8002,-0.854,-0.8806,0.0,0.0,0.0,0.0,0.0,0.0,0.0,0.0,0.0,0.6464,0.6878,0.7214,0.7366,0.8048,0.8554,0.8696,0.912,0.9191,0.8743,0.8249,0.7499,0.0,0.531,0.0,0.0,0.2148,0.1885,0.1977,0.1977,0.1977,0.1977,0.1977,0.1977,0.1977,0.2223,0.2346,0.2346,0.2592,0.2788,0.3173,0.2891,0.298,0.3305,0.0,0.0,0.0,0.0,0.0,0.0,0.0,0.0,0.0,0.0,0.0,0.0,0.0,0.0,0.0,0.0,0.0,0.0,0.0,0.0,0.0,0.0,0.0,0.0,0.0,0.0,0.0,0.0,0.0,0.0,0.0,0.0,0.0,0.0,0.0,0.2256,0.1929,0.1926,0.185,0.1978,0.1947,0.1886,0.1886,0.1942,0.1729,0.0987,0.074,-0.0123,-0.148,-0.1849,-0.2467,-0.3455,-0.3455,-0.358,-0.3951,-0.3951,-0.3951,-0.3951,-0.3951,-0.3951,-0.3951,-0.3826,-0.3703,-0.3703,-0.3208,-0.4063,-0.5774,-0.6139,-0.6383,-0.6752,-0.7972,-0.8459,-0.8705,0.0,0.0,0.0,0.0,0.0,0.0,0.0,0.0,0.0,0.6783,0.7322,0.777,0.8323,0.8669,0.8998,0.9147,0.9296,0.9072,0.8347,0.7577,0.6679,0.0,0.0,0.0,0.1836,0.1843,0.1888,0.1977,0.1977,0.1977,0.1977,0.1977,0.1977,0.2099,0.2716,0.3085,0.3085,0.3698,0.3944,0.3928,0.3168,0.368,0.4547,0.0,0.0,0.0,0.0,0.0,0.0,0.0,0.0,0.0,0.0,0.0,0.0,0.0,0.0,0.0,0.0,0.0,0.0,0.0,0.0,0.0,0.0,0.0,0.0,0.0,0.0,0.0,0.0,0.0,0.0,0.0,0.0,0.0,0.2366,0.2011,0.1925,0.237,0.2103,0.2184,0.2545,0.2284,0.1977,0.1977,0.1977,0.1977,0.1977,0.111,0.0493,0.0493,-0.0493,-0.148,-0.2467,-0.2467,-0.2961,-0.3951,-0.3951,-0.3951,-0.3951,-0.3951,-0.3951,-0.3828,-0.358,-0.3455,-0.3455,-0.3085,-0.2837,-0.259,-0.3447,-0.4673,-0.5896,-0.7243,-0.7858,-0.8102,0.0,0.0,0.0,0.0,0.0,0.0,0.0,0.0,0.5533,0.7038,0.759,0.8151,0.8823,0.9094,0.9374,0.9638,0.947,0.9017,0.7928,0.735,0.6072,0.3833,0.0,0.0,0.1839,0.1905,0.1952,0.1977,0.1977,0.1977,0.1977,0.2469,0.2716,0.2715,0.333,0.3698,0.3698,0.3821,0.4189,0.4553,0.4373,0.4501,0.4695,0.0,0.0,0.0,0.0,0.0,0.0,0.0,0.0,0.0,0.0,0.0,0.0,0.0,0.0,0.0,0.0,0.0,0.0,0.0,0.0,0.0,0.0,0.0,0.0,0.0,0.0,0.0,0.0,0.0,0.0,0.0,0.0,0.2402,0.2481,0.2233,0.193,0.2143,0.2068,0.2089,0.2183,0.2084,0.1977,0.1977,0.1977,0.1977,0.1977,0.1729,0.1234,0.0493,0.0247,-0.074,-0.2467,-0.2467,-0.2961,-0.3951,-0.3951,-0.3951,-0.3951,-0.3951,-0.3951,-0.3951,-0.3826,-0.3703,-0.3455,-0.3085,-0.2837,-0.2467,-0.2835,-0.2958,-0.3204,-0.4551,-0.6263,-0.8102,0.0,0.0,0.0,0.0,0.0,0.0,0.0,0.0,0.5264,0.7386,0.7894,0.8322,0.9309,0.9428,0.9503,0.9813,0.8974,0.8245,0.7445,0.6132,0.4547,0.2625,0.2006,0.1858,0.1896,0.1949,0.1977,0.1977,0.1977,0.1977,0.1977,0.2716,0.2961,0.3085,0.3944,0.4312,0.4312,0.4559,0.493,0.5297,0.5297,0.5335,0.5197,0.417,0.3951,0.4058,0.3328,0.3407,0.3708,0.3493,0.0,0.0,0.0,0.0,0.0,0.0,0.0,0.0,0.0,0.0,0.0,0.0,0.0,0.0,0.0,0.0,0.0,0.0,0.0,0.0,0.0,0.0,0.0,0.0,0.2639,0.237,0.237,0.2185,0.1977,0.1977,0.1977,0.1977,0.1977,0.1977,0.1977,0.1977,0.1977,0.1977,0.1977,0.1977,0.1729,0.111,0.111,0.0123,-0.1849,-0.1849,-0.259,-0.3951,-0.3951,-0.3951,-0.3951,-0.3951,-0.3951,0.0,-0.358,-0.3455,-0.3209,-0.2716,-0.2469,0.0,0.0,0.0,0.0,0.0,-0.5284,-0.7243,0.0,0.0,0.0,0.0,0.0,0.0,0.0,0.383,0.4846,0.766,0.8063,0.8525,0.9708,0.9599,0.9503,0.9813,0.8288,0.713,0.6693,0.4289,0.2504,0.1833,0.185,0.1894,0.1975,0.1977,0.1977,0.1977,0.1977,0.21,0.2099,0.2838,0.3083,0.3207,0.4435,0.5049,0.5049,0.5669,0.5916,0.5916,0.5916,0.5916,0.5768,0.4475,0.4287,0.4836,0.4074,0.39,0.3897,0.3874,0.0,0.0,0.0,0.0,0.0,0.0,0.0,0.0,0.0,0.0,0.0,0.0,0.0,0.0,0.0,0.0,0.0,0.0,0.0,0.0,0.0,0.0,0.0,0.0,0.2275,0.1977,0.2099,0.21,0.1977,0.1977,0.1977,0.1977,0.1977,0.1977,0.1977,0.1977,0.1977,0.1977,0.1977,0.0,0.0,0.0,0.0,0.1111,-0.0863,-0.0986,-0.1973,-0.3703,-0.3828,-0.3951,-0.3951,-0.3951,-0.3828,-0.3826,-0.3332,-0.2961,-0.2838,-0.2346,-0.1976,-0.1977,-0.1977,-0.1977,-0.2099,-0.3447,-0.4671,-0.5896,0.0,0.0,0.0,0.0,0.0,0.0,0.0,0.383,0.4928,0.8029,0.8438,0.8818,1.0035,0.9926,0.9723,0.9813,0.8288,0.648,0.4464,0.285,0.1916,0.1839,0.1911,0.1958,0.1976,0.1977,0.1977,0.1977,0.1977,0.2223,0.2838,0.3453,0.4066,0.4558,0.5298,0.5669,0.5669,0.5794,0.5916,0.5916,0.5916,0.5916,0.5788,0.5002,0.5108,0.5589,0.4934,0.5038,0.5489,0.5276,0.4867,0.4497,0.4209,0.0,0.0,0.0,0.0,0.0,0.0,0.0,0.0,0.0,0.0,0.0,0.0,0.0,0.0,0.0,0.0,0.0,0.0,0.0,0.0,0.3212,0.2634,0.2223,0.2716,0.2346,0.1977,0.1977,0.1977,0.1977,0.1977,0.1977,0.1977,0.1977,0.1977,0.1977,0.1977,0.1977,0.0,0.1977,0.1977,0.1481,0.0247,-0.0616,-0.1603,-0.2837,0.0,0.0,-0.3951,-0.3951,-0.3826,-0.358,-0.3455,-0.3085,-0.259,-0.2467,-0.2222,-0.1977,-0.1977,-0.1977,-0.2099,-0.3447,-0.4059,-0.4427,0.0,0.0,0.0,0.0,0.0,0.0,0.0,0.4144,0.5275,0.7613,0.7979,0.8351,0.9303,0.9082,0.8795,0.8461,0.6692,0.4714,0.2873,0.2124,0.1861,0.1907,0.1952,0.1977,0.1977,0.1977,0.1977,0.1977,0.2346,0.2716,0.2961,0.3944,0.4558,0.4926,0.5546,0.5916,0.5916,0.5916,0.5916,0.5916,0.5916,0.5916,0.5916,0.5544,0.5669,0.5916,0.5544,0.5669,0.5896,0.5759,0.5594,0.5335,0.5209,0.4745,0.4272,0.0,0.0,0.0,0.0,0.0,0.0,0.0,0.0,0.0,0.0,0.0,0.0,0.0,0.0,0.4087,0.0,0.0,0.3173,0.3277,0.2612,0.2146,0.2524,0.2272,0.2009,0.198,0.1977,0.1977,0.1977,0.1977,0.1977,0.1977,0.1977,0.1977,0.1977,0.1977,0.1977,0.1977,0.1977,0.1481,0.0493,0.0,-0.0986,-0.2467,-0.2961,-0.3455,-0.3951,-0.3951,-0.3826,-0.3703,-0.358,-0.3208,-0.2714,-0.2345,-0.2099,-0.1977,-0.1977,-0.1977,-0.2099,-0.2714,-0.2958,-0.3081,0.0,0.0,0.0,0.0,0.0,0.0,0.0,0.0,0.0,0.7208,0.7439,0.7621,0.8102,0.7966,0.7387,0.641,0.4696,0.3117,0.1811,0.1806,0.19,0.1973,0.1977,0.1977,0.1977,0.1977,0.1977,0.1977,0.2716,0.3085,0.3207,0.4312,0.4926,0.5172,0.5669,0.5916,0.5916,0.5916,0.5916,0.5916,0.5916,0.5916,0.5916,0.5916,0.5916,0.5916,0.5916,0.5916,0.5916,0.5916,0.5916,0.5916,0.5916,0.5526,0.4953,0.4665,0.4579,0.0,0.0,0.0,0.0,0.0,0.0,0.0,0.0,0.0,0.4761,0.4909,0.4863,0.4843,0.4631,0.4076,0.3658,0.3584,0.2837,0.2321,0.2451,0.2322,0.2046,0.1999,0.1994,0.1994,0.1994,0.1994,0.1994,0.1994,0.1994,0.1994,0.1994,0.1994,0.1994,0.1994,0.1988,0.1612,0.0743,0.0617,-0.037,-0.222,-0.2466,-0.2961,-0.3951,-0.3951,-0.3828,-0.3826,-0.3455,-0.3086,-0.2715,-0.2223,-0.1977,-0.1977,-0.1977,-0.1977,-0.1977,-0.1977,-0.1977,-0.2099,0.0,0.0,0.0,0.0,0.0,0.0,0.0,0.0,0.0,0.7119,0.7439,0.7267,0.7063,0.692,0.6037,0.3916,0.381,0.3239,0.1816,0.1866,0.1966,0.1976,0.1977,0.1977,0.1977,0.1977,0.1977,0.1977,0.2716,0.333,0.3821,0.4558,0.5174,0.5794,0.5916,0.5916,0.5916,0.5916,0.5916,0.5916,0.5916,0.5916,0.5916,0.5916,0.5916,0.5916,0.5916,0.5916,0.5916,0.5916,0.5916,0.5916,0.5916,0.5896,0.5652,0.515,0.0,0.4886,0.4354,0.4522,0.4804,0.5012,0.5063,0.4972,0.0,0.0,0.4566,0.4295,0.4258,0.4308,0.4208,0.4213,0.435,0.4891,0.3865,0.3222,0.3739,0.2837,0.2061,0.2055,0.2054,0.2054,0.2054,0.2054,0.2054,0.2054,0.2054,0.2054,0.2054,0.2054,0.2054,0.2054,0.2028,0.1888,0.1887,0.0993,-0.0,-0.1233,-0.2097,-0.2961,-0.3951,-0.3951,-0.3826,-0.3455,-0.2838,-0.2468,-0.2099,-0.1977,-0.1977,-0.1977,-0.1977,-0.1977,-0.1977,-0.1977,-0.1977,-0.1977,0.0,0.0,0.0,0.0,0.0,0.0,0.0,0.0,0.0,0.0,0.0,0.5943,0.5771,0.5313,0.4427,0.3027,0.2749,0.2288,0.1707,0.1875,0.1977,0.1977,0.1977,0.1977,0.1977,0.1977,0.2223,0.2592,0.3207,0.3821,0.4558,0.5174,0.5669,0.5916,0.5916,0.5916,0.5916,0.5916,0.5916,0.5916,0.5916,0.5916,0.5916,0.5916,0.5916,0.5904,0.5796,0.5759,0.0,0.0,0.5759,0.5776,0.5884,0.5808,0.5604,0.522,0.5108,0.0,0.5022,0.4973,0.0,0.0,0.538,0.5364,0.5347,0.5381,0.5318,0.5311,0.5386,0.5424,0.5472,0.4698,0.432,0.0,0.3436,0.2644,0.291,0.2513,0.2116,0.2116,0.2116,0.2103,0.2067,0.2064,0.2064,0.2064,0.2064,0.2064,0.2064,0.2064,0.2064,0.2064,0.2052,0.2045,0.2045,0.1651,0.0882,-0.0125,-0.1124,-0.2115,-0.3085,-0.3455,-0.3455,-0.3208,-0.2714,-0.2467,-0.2221,-0.2099,-0.1977,-0.1977,-0.1977,-0.1977,-0.1977,-0.1977,-0.1977,-0.1977,0.0,0.0,0.0,0.0,0.0,0.0,0.0,0.0,0.0,0.0,0.0,0.0,0.0,0.3788,0.2898,0.234,0.1949,0.1783,0.1915,0.2083,0.2315,0.2467,0.2346,0.2223,0.2223,0.2099,0.2346,0.2961,0.3575,0.4189,0.4926,0.5546,0.5916,0.5916,0.5916,0.5916,0.5916,0.5916,0.5916,0.5916,0.5916,0.5916,0.5916,0.5916,0.587,0.5788,0.5653,0.5606,0.0,0.0,0.5496,0.5518,0.5653,0.5557,0.5345,0.5077,0.4945,0.4945,0.5214,0.0,0.0,0.5471,0.5653,0.5763,0.5786,0.5863,0.5984,0.6178,0.6239,0.6276,0.6341,0.5563,0.0,0.4564,0.3767,0.2961,0.2826,0.2826,0.2692,0.2558,0.2423,0.2404,0.2093,0.2089,0.2089,0.2089,0.2089,0.2089,0.2089,0.2089,0.2089,0.2089,0.208,0.2076,0.2076,0.2068,0.1539,0.0508,-0.0127,-0.1135,-0.2373,-0.311,-0.3221,-0.2837,-0.259,-0.2467,-0.2345,-0.2099,-0.1977,-0.1977,-0.1977,-0.1977,-0.1977,-0.1986,-0.1983,-0.1977,0.0,0.0,0.0,0.0,0.0,0.0,0.0,0.0,0.0,0.0,0.0,0.0,0.0,0.0,0.0,0.1477,0.1504,0.1914,0.2655,0.2686,0.3056,0.3813,0.333,0.2961,0.2961,0.2346,0.2346,0.2961,0.3575,0.4189,0.4926,0.5546,0.5916,0.5916,0.5916,0.5916,0.5916,0.5916,0.5916,0.5916,0.5916,0.5916,0.5916,0.5916,0.5753,0.5518,0.5514,0.0,0.0,0.0,0.5124,0.5124,0.513,0.5126,0.0,0.48,0.4532,0.0,0.0,0.0,0.5194,0.5551,0.5843,0.6063,0.6145,0.6235,0.6302,0.631,0.6384,0.6447,0.6449,0.6449,0.6183,0.5515,0.5381,0.5111,0.4301,0.4301,0.4033,0.3228,0.3228,0.2959,0.0,0.2152,0.2152,0.2152,0.2152,0.2152,0.2152,0.2152,0.2152,0.2152,0.2123,0.2108,0.2108,0.2078,0.1548,0.0644,0.0515,-0.0386,-0.206,-0.2667,-0.2877,-0.2467,-0.2467,-0.2345,-0.1977,-0.1977,-0.1977,-0.1977,-0.1977,-0.1977,-0.1979,-0.2007,-0.2,-0.1977,0.0,0.0,0.0,0.0,0.0,0.0,0.0,0.0,0.0,0.0,0.0,0.0,0.0,0.0,0.0,0.0,0.0,0.0,0.1917,0.2524,0.2893,0.3175,0.3396,0.3575,0.3575,0.2961,0.3207,0.4312,0.4066,0.4436,0.5546,0.5794,0.5916,0.5916,0.5916,0.5916,0.5916,0.5916,0.5916,0.5916,0.5916,0.5916,0.5898,0.5714,0.5588,0.5461,0.0,0.0,0.0,0.0,0.0,0.0,0.5069,0.0,0.0,0.4516,0.0,0.0,0.0,0.0,0.5537,0.5841,0.6074,0.6235,0.6264,0.6341,0.6406,0.6406,0.6243,0.6098,0.6098,0.5716,0.5338,0.5083,0.4855,0.4571,0.4301,0.3899,0.3496,0.3228,0.2826,0.0,0.0,0.0,0.0,0.2155,0.2155,0.2155,0.2155,0.2155,0.2155,0.2155,0.2145,0.2139,0.2139,0.2129,0.1982,0.157,0.0907,0.0258,-0.0258,-0.1411,-0.1531,-0.0888,-0.1779,-0.2161,-0.2035,-0.2035,-0.2035,-0.2035,-0.2035,-0.2035,-0.2035,-0.2045,-0.2043,-0.2035,0.0,0.0,0.0,0.0,0.0,0.0,0.0,0.0,0.0,0.0,0.0,0.0,0.0,0.0,0.0,0.0,0.0,0.0,0.196,0.2412,0.2853,0.313,0.3345,0.3518,0.3518,0.2816,0.3167,0.4334,0.4054,0.4569,0.5774,0.5872,0.5916,0.5916,0.5916,0.5916,0.5916,0.5916,0.5861,0.5772,0.5772,0.5712,0.561,0.5433,0.5306,0.0,0.0,0.0,0.0,0.0,0.0,0.0,0.0,0.0,0.0,0.0,0.0,0.0,0.0,0.5467,0.5725,0.6063,0.6233,0.6325,0.6357,0.6413,0.6453,0.6453,0.6168,0.5916,0.5916,0.5548,0.502,0.4669,0.4792,0.4723,0.4176,0.3931,0.3702,0.3223,0.2826,0.0,0.0,0.0,0.0,0.2155,0.2155,0.2155,0.2155,0.2155,0.2155,0.2155,0.2155,0.2155,0.2155,0.2155,0.2145,0.2125,0.1184,0.0914,0.1168,-0.0,-0.0,0.0772,-0.0129,-0.0515,-0.0515,-0.0515,-0.0515,-0.0515,-0.0515,-0.0902,-0.129,-0.1297,-0.1299,-0.1428,0.0,0.0,0.0,0.0,0.0,0.0,0.0,0.0,0.0,0.0,0.0,0.0,0.0,0.0,0.0,0.0,0.0,0.0,0.2529,0.2546,0.2913,0.3597,0.3085,0.277,0.277,0.2131,0.2343,0.3406,0.3692,0.4349,0.5492,0.5755,0.5876,0.5876,0.5876,0.5876,0.5876,0.5876,0.5725,0.5488,0.5488,0.5335,0.5106,0.5094,0.4928,0.4706,0.0,0.0,0.0,0.0,0.0,0.0,0.0,0.0,0.0,0.0,0.0,0.4885,0.5482,0.5661,0.578,0.6208,0.6321,0.6345,0.6433,0.6453,0.6449,0.6431,0.6141,0.5884,0.0,0.0,0.5536,0.4526,0.5286,0.5539,0.4094,0.4511,0.4623,0.0,0.0,0.0,0.0,0.0,0.0,0.2289,0.0,0.2155,0.2155,0.2155,0.2155,0.2155,0.2155,0.2155,0.2155,0.2155,0.2155,0.2155,0.1481,0.1603,0.224,0.1449,0.1569,0.2323,0.2194,0.2194,0.2194,0.2194,0.2194,0.2194,0.2194,0.1419,0.0258,0.0131,0.0132,-0.0131,0.0,0.0,0.0,0.0,0.0,0.0,0.0,0.0,0.0,0.0,0.0,0.0,0.0,0.0,0.0,0.0,0.0,0.0,0.1649,0.2298,0.2665,0.2904,0.3231,0.3407,0.3407,0.2769,0.2876,0.3619,0.356,0.3909,0.4673,0.5062,0.5314,0.5314,0.5314,0.5314,0.5314,0.5314,0.5273,0.521,0.521,0.5169,0.5086,0.4885,0.4769,0.0,0.0,0.0,0.0,0.0,0.0,0.0,0.0,0.0,0.4916,0.0,0.0,0.5441,0.56,0.5888,0.6172,0.6288,0.6368,0.6425,0.6449,0.6453,0.6378,0.611,0.5767,0.5435,0.0,0.0,0.0,0.517,0.5804,0.0,0.5923,0.5544,0.0,0.0,0.0,0.3899,0.3764,0.3764,0.0,0.0,0.2423,0.2155,0.2155,0.2155,0.2155,0.2155,0.2155,0.2155,0.2155,0.2155,0.2155,0.2155,0.202,0.2552,0.3743,0.2541,0.2535,0.3723,0.2657,0.2125,0.2125,0.2125,0.2125,0.2125,0.2125,0.186,0.1595,0.16,0.1602,0.1468,0.0,0.0,0.0,0.0,0.0,0.0,0.0,0.0,0.0,0.0,0.0,0.0,0.0,0.0,0.0,0.0,0.0,0.0,0.0,0.1844,0.2077,0.2077,0.2435,0.2676,0.2676,0.2281,0.2479,0.3073,0.3251,0.3701,0.4217,0.4843,0.5108,0.5108,0.5108,0.5108,0.5108,0.5108,0.5041,0.0,0.0,0.4859,0.4736,0.4585,0.4528,0.0,0.0,0.0,0.0,0.0,0.0,0.491,0.5061,0.5108,0.513,0.5249,0.0,0.5678,0.5837,0.6094,0.6327,0.6366,0.6417,0.6413,0.6253,0.6219,0.6117,0.5757,0.5618,0.0,0.0,0.0,0.0,0.0,0.0,0.0,0.5837,0.547,0.5135,0.0,0.4303,0.0,0.3764,0.3497,0.3228,0.0,0.2691,0.2558,0.2155,0.2423,0.2558,0.2155,0.2423,0.2558,0.2155,0.2558,0.2692,0.2692,0.296,0.3765,0.4705,0.3899,0.4167,0.5242,0.0,0.4029,0.4029,0.4029,0.4029,0.4029,0.4029,0.3625,0.3089,0.3089,0.2819,0.2551,0.0,0.0,0.0,0.0,0.0,0.0,0.0,0.0,0.0,0.0,0.0,0.0,0.0,0.0,0.0,0.0,0.0,0.0,0.0,0.0,0.0,0.1429,0.1433,0.1436,0.1436,0.0,0.0,0.0,0.0,0.3394,0.3879,0.4585,0.4898,0.5,0.5,0.5,0.5,0.5,0.4867,0.4655,0.4655,0.4512,0.421,0.0,0.0,0.0,0.0,0.0,0.0,0.0,0.513,0.5167,0.5204,0.5214,0.5263,0.5508,0.5643,0.5786,0.611,0.6266,0.6353,0.6433,0.6453,0.6359,0.6,0.5916,0.5802,0.5394,0.0,0.5571,0.4997,0.0,0.593,0.5181,0.0,0.5788,0.4998,0.492,0.4899,0.4416,0.3764,0.3362,0.3362,0.2826,0.2423,0.2289,0.2826,0.296,0.2289,0.2691,0.2826,0.2155,0.2826,0.2826,0.2155,0.2826,0.3228,0.3228,0.3899,0.4705,0.5381,0.5381,0.5783,0.6453,0.0,0.0,0.6453,0.6453,0.6453,0.6453,0.6453,0.578,0.457,0.4435,0.4031,0.3358,0.0,0.0,0.0,0.0,0.0,0.0,0.0,0.0,0.0,0.0,0.6398,0.5398,0.0,0.0,0.0,0.0,0.0,0.0,0.0,0.0,0.0,0.0,0.1422,0.1436,0.0,0.0,0.0,0.0,0.0,0.0,0.3096,0.3592,0.4072,0.444,0.444,0.444,0.444,0.444,0.4412,0.4371,0.4371,0.4072,0.3765,0.0,0.0,0.0,0.0,0.0,0.0,0.0,0.5255,0.5478,0.5704,0.5776,0.58,0.5923,0.6021,0.6117,0.6255,0.6359,0.6433,0.6449,0.6453,0.6359,0.6,0.5916,0.0,0.0,0.0,0.5063,0.4581,0.4972,0.0,0.5386,0.0,0.0,0.0,0.0,0.5067,0.0,0.0,0.0,0.0,0.0,0.0,0.0,0.0,0.0,0.2289,0.2289,0.2289,0.2155,0.2289,0.2289,0.2155,0.2826,0.3228,0.3228,0.3899,0.4705,0.5381,0.5381,0.5783,0.6453,0.0,0.0,0.6453,0.6453,0.6453,0.6453,0.6453,0.6319,0.6049,0.5379,0.5111,0.4841,0.0,0.0,0.0,0.0,0.0,0.0,0.0,0.7484,0.7484,0.7484,0.671,0.5857,0.5082,0.399,0.2912,0.0,0.0,0.0,0.0,0.0,0.0,0.0,0.0,0.0,0.0,0.0,0.0,0.0,0.0,0.0,0.0,0.0,0.0,0.0,0.0,0.0,0.0,0.0,0.0,0.0,0.0,0.0,0.0,0.0,0.0,0.0,0.0,0.0,0.0,0.0,0.5171,0.5555,0.5831,0.5916,0.5935,0.6027,0.6114,0.62,0.6292,0.6384,0.6453,0.6453,0.6453,0.631,0.5763,0.0,0.0,0.0,0.0,0.5133,0.4622,0.0,0.0,0.0,0.0,0.0,0.0,0.0,0.0,0.0,0.0,0.0,0.0,0.0,0.0,0.0,0.0,0.0,0.2289,0.2155,0.2423,0.2692,0.2423,0.2155,0.2155,0.2826,0.3228,0.3228,0.3899,0.4435,0.4839,0.4839,0.4973,0.5376,0.5781,0.0,0.5917,0.6319,0.6453,0.6453,0.6453,0.6453,0.6453,0.5649,0.5111,0.4705,0.0,0.0,0.0,0.0,0.0,0.0,0.0,0.7484,0.7484,0.7484,0.7022,0.6251,0.5002,0.4302,0.3366,0.0,0.0,0.0,0.0,0.0,0.0,0.0,0.0,0.0,0.0,0.0,0.0,0.0,0.0,0.0,0.0,0.0,0.0,0.0,0.0,0.0,0.0,0.0,0.0,0.0,0.0,0.0,0.0,0.0,0.0,0.0,0.0,0.0,0.0,0.0,0.4988,0.5384,0.5657,0.5782,0.5851,0.5961,0.6043,0.6133,0.63,0.6398,0.6453,0.6453,0.6453,0.6266,0.5545,0.5382,0.0,0.0,0.4838,0.5132,0.4651,0.0,0.0,0.0,0.0,0.0,0.0,0.0,0.0,0.0,0.0,0.0,0.0,0.0,0.0,0.0,0.0,0.0,0.2423,0.2289,0.2558,0.3228,0.2558,0.2155,0.2155,0.2826,0.3228,0.3228,0.3899,0.43,0.43,0.43,0.43,0.4301,0.4975,0.0,0.0,0.5781,0.6049,0.6049,0.6049,0.6049,0.5915,0.5245,0.4571,0.3899,0.0,0.0,0.0,0.0,0.0,0.0,0.0,0.7484,0.7484,0.7484,0.7257,0.6475,0.4683,0.3832,0.3056,0.0,0.0,0.0,0.0,0.0,0.0,0.0,0.0,0.0,0.0,0.0,0.0,0.0,0.0,0.0,0.0,0.0,0.0,0.0,0.0,0.0,0.0,0.0,0.0,0.0,0.0,0.0,0.0,0.0,0.0,0.0,0.0,0.0,0.0,0.0,0.0,0.4828,0.5098,0.5349,0.558,0.5755,0.0,0.0,0.6327,0.6447,0.6453,0.6453,0.6453,0.6266,0.5545,0.0,0.0,0.4449,0.4528,0.4656,0.4571,0.4826,0.0,0.0,0.0,0.0,0.0,0.0,0.0,0.0,0.0,0.0,0.0,0.0,0.0,0.0,0.0,0.0,0.0,0.2558,0.2558,0.3228,0.2558,0.2155,0.2155,0.2826,0.3228,0.3228,0.3899,0.43,0.43,0.43,0.43,0.4301,0.0,0.0,0.0,0.4435,0.4435,0.4435,0.4435,0.4435,0.4435,0.3631,0.3362,0.3228,0.0,0.0,0.0,0.0,0.0,0.0,0.7484,0.7484,0.7484,0.7484,0.7407,0.6861,0.5458,0.4528,0.3365,0.1648,0.0,0.0,0.0,0.0,0.0,0.0,0.0,0.0,0.0,0.0,0.0,0.0,0.0,0.0,0.0,0.0,0.0,0.0,0.0,0.0,0.0,0.0,0.0,0.0,0.0,0.0,0.0,0.0,0.0,0.0,0.0,0.0,0.0,0.0,0.0,0.0,0.4638,0.4808,0.0,0.0,0.5782,0.588,0.6331,0.6453,0.6453,0.6453,0.629,0.6,0.5496,0.0,0.491,0.4404,0.4444,0.4573,0.4573,0.4716,0.4869,0.0,0.0,0.0,0.0,0.0,0.0,0.0,0.0,0.0,0.0,0.0,0.0,0.0,0.0,0.0,0.0,0.257,0.2289,0.2558,0.2289,0.2155,0.2155,0.2423,0.2558,0.2558,0.296,0.3095,0.3095,0.3095,0.3095,0.3095,0.0,0.0,0.0,0.4167,0.43,0.43,0.43,0.43,0.4167,0.3497,0.3228,0.3094,0.0,0.0,0.0,0.0,0.0,0.7484,0.7484,0.7484,0.7484,0.7484,0.7484,0.7092,0.6002,0.53,0.3984,0.1961,0.1492,0.0,0.0,0.0,0.0,0.0,0.0,0.0,0.0,0.0,0.0,0.0,0.0,0.0,0.0,0.0,0.0,0.0,0.0,0.0,0.0,0.0,0.0,0.0,0.0,0.0,0.0,0.0,0.0,0.0,0.0,0.0,0.0,0.0,0.0,0.0,0.0,0.0,0.0,0.0,0.5578,0.5755,0.618,0.6374,0.6453,0.6453,0.6184,0.5823,0.0,0.0,0.4732,0.4373,0.4444,0.4573,0.4573,0.4716,0.4834,0.4834,0.0,0.4937,0.0,0.0,0.0,0.0,0.0,0.0,0.0,0.0,0.0,0.0,0.0,0.0,0.0,0.2467,0.2309,0.2424,0.2289,0.2155,0.2155,0.2155,0.2155,0.2155,0.2155,0.2155,0.2155,0.2155,0.2155,0.2289,0.0,0.0,0.0,0.363,0.3899,0.363,0.363,0.363,0.363,0.3094,0.296,0.2826,0.0,0.0,0.0,0.0,0.0,0.0,0.7484,0.7484,0.7484,0.7484,0.7484,0.7092,0.6002,0.5922,0.5068,0.2973,0.1883,0.0,0.0,0.0,0.0,0.0,0.0,0.0,0.0,0.0,0.1337,0.1337,0.1727,0.0,0.0,0.0,0.0,0.0,0.0,0.0,0.0,0.0,0.0,0.0,0.0,0.0,0.0,0.0,0.0,0.0,0.0,0.0,0.0,0.0,0.0,0.0,0.0,0.0,0.0,0.0,0.5102,0.5465,0.5825,0.6182,0.6453,0.6453,0.6184,0.5823,0.0,0.0,0.4732,0.4373,0.4444,0.4573,0.4573,0.4716,0.4834,0.4834,0.4836,0.0,0.0,0.0,0.0,0.0,0.0,0.0,0.0,0.0,0.0,0.0,0.0,0.0,0.0,0.2245,0.2493,0.3231,0.2558,0.2155,0.2155,0.2155,0.2155,0.2155,0.2155,0.2155,0.2155,0.2155,0.2155,0.0,0.0,0.0,0.0,0.296,0.2826,0.2289,0.2289,0.2289,0.2155,0.2155,0.2155,0.2155,0.0,0.0,0.0,0.0,0.0,0.0,0.0,0.7484,0.7484,0.7484,0.7484,0.7403,0.7015,0.624,0.5229,0.3984,0.2896,0.0,0.0,0.0,0.0,0.0,0.0,0.0,0.0,0.0,0.1414,0.1726,0.2118,0.2511,0.2904,0.3374,0.0,0.0,0.0,0.0,0.0,0.0,0.0,0.0,0.0,0.0,0.0,0.0,0.0,0.0,0.0,0.0,0.0,0.0,0.0,0.0,0.0,0.0,0.0,0.4434,0.0,0.0,0.5451,0.5635,0.572,0.572,0.5447,0.5147,0.5032,0.0,0.4436,0.4322,0.4444,0.4573,0.4573,0.4716,0.4834,0.4834,0.4834,0.0,0.0,0.0,0.0,0.0,0.0,0.0,0.0,0.0,0.0,0.0,0.0,0.0,0.0,0.2257,0.2366,0.2459,0.2322,0.2176,0.2155,0.2155,0.2155,0.2155,0.2155,0.2155,0.2155,0.2155,0.0,0.0,0.0,0.0,0.0,0.2423,0.2423,0.2155,0.2155,0.2155,0.2155,0.2155,0.2155,0.2155,0.0,0.0,0.0,0.0,0.0,0.0,0.0,0.7484,0.7484,0.7484,0.7484,0.7484,0.7484,0.6707,0.5699,0.4528,0.3752,0.0,0.0,0.0,0.0,0.0,0.0,0.0,0.1335,0.1335,0.1492,0.1882,0.2275,0.2668,0.3141,0.3608,0.3763,0.0,0.0,0.0,0.0,0.0,0.0,0.0,0.0,0.0,0.2909,0.0,0.0,0.0,0.0,0.0,0.0,0.0,0.0,0.0,0.0,0.0,0.0,0.0,0.4457,0.0,0.0,0.5275,0.5382,0.5382,0.5106,0.0,0.0,0.0,0.4308,0.4342,0.4469,0.4583,0.4618,0.4738,0.4834,0.4834,0.4834,0.0,0.0,0.0,0.0,0.0,0.0,0.0,0.0,0.0,0.0,0.0,0.0,0.0,0.0,0.0,0.2265,0.2235,0.2223,0.2202,0.2172,0.2172,0.2166,0.2155,0.2155,0.2155,0.2155,0.2155,0.0,0.0,0.0,0.0,0.0,0.2423,0.2423,0.2155,0.2155,0.2155,0.2155,0.2155,0.2155,0.2155,0.0,0.0,0.0,0.0,0.0,0.0,0.0,0.7484,0.7484,0.7484,0.7484,0.7484,0.7484,0.7334,0.6475,0.4606,0.0,0.0,0.0,0.0,0.0,0.0,0.0,0.0,0.1335,0.1335,0.1492,0.196,0.2275,0.2668,0.3141,0.353,0.3763,0.3765,0.3763,0.0,0.0,0.0,0.0,0.0,0.0,0.0,0.0,0.0,0.0,0.0,0.0,0.0,0.0,0.0,0.0,0.0,0.0,0.0,0.0,0.0,0.0,0.0,0.0,0.0,0.0,0.0,0.0,0.0,0.0,0.0,0.0,0.4416,0.4508,0.46,0.4692,0.4777,0.4834,0.4834,0.0,0.0,0.0,0.0,0.0,0.0,0.0,0.0,0.0,0.0,0.0,0.0,0.0,0.0,0.0,0.0,0.2321,0.2294,0.2266,0.2236,0.2204,0.2203,0.2188,0.2158,0.2158,0.2157,0.2155,0.2155,0.0,0.0,0.0,0.0,0.0,0.2826,0.2826,0.2155,0.2155,0.2155,0.2155,0.2155,0.2155,0.2155,0.0,0.0,0.0,0.0,0.0,0.0,0.0,0.0,0.0,0.0,0.7484,0.7407,0.7257,0.7099,0.6472,0.0,0.0,0.0,0.0,0.0,0.0,0.0,0.0,0.0,0.1335,0.1335,0.1649,0.2353,0.2117,0.2431,0.3141,0.3217,0.3297,0.3295,0.3606,0.3763,0.0,0.0,0.0,0.0,0.0,0.0,0.0,0.0,0.0,0.0,0.2746,0.3069,0.0,0.0,0.0,0.0,0.0,0.0,0.0,0.0,0.4249,0.4318,0.4402,0.0,0.4553,0.4553,0.4487,0.4424,0.0,0.0,0.0,0.0,0.0,0.46,0.4692,0.4777,0.4834,0.0,0.0,0.0,0.0,0.0,0.0,0.0,0.0,0.0,0.0,0.0,0.0,0.0,0.0,0.0,0.0,0.0,0.233,0.2323,0.2316,0.2288,0.2235,0.2234,0.2219,0.2189,0.2189,0.2177,0.2155,0.2155,0.0,0.0,0.0,0.0,0.2155,0.2423,0.2289,0.2155,0.2155,0.2155,0.2155,0.2155,0.2155,0.2155,0.0,0.0,0.0,0.0,0.0,0.0,0.0,0.0,0.0,0.0,0.0,0.7334,0.7104,0.6868,0.0,0.0,0.0,0.0,0.0,0.0,0.0,0.0,0.0,0.1335,0.1335,0.1335,0.157,0.2196,0.2038,0.2196,0.2826,0.2984,0.3062,0.3141,0.3608,0.3686,0.0,0.0,0.0,0.0,0.0,0.0,0.0,0.0,0.0,0.0,0.2826,0.2981,0.0,0.3421,0.3356,0.3292,0.0,0.0,0.0,0.0,0.4232,0.43,0.43,0.43,0.43,0.43,0.43,0.43,0.0,0.0,0.0,0.0,0.0,0.4661,0.4751,0.0,0.0,0.0,0.0,0.0,0.0,0.0,0.0,0.0,0.0,0.0,0.0,0.0,0.0,0.0,0.0,0.0,0.0,0.0,0.2333,0.2333,0.2333,0.2311,0.2266,0.2266,0.2251,0.2221,0.2206,0.2191,0.2175,0.2161,0.2155,0.0,0.0,0.0,0.2155,0.2155,0.2155,0.2155,0.2155,0.2155,0.2155,0.2155,0.2155,0.2155,0.0,0.0,0.0,0.0,0.0,0.0,0.0,0.0,0.0,0.0,0.0,0.0,0.0,0.0,0.0,0.0,0.0,0.0,0.0,0.0,0.0,0.0,0.1333,0.1335,0.1335,0.1335,0.1492,0.1882,0.1803,0.2038,0.2431,0.2826,0.3061,0.3217,0.353,0.353,0.0,0.0,0.0,0.0,0.0,0.0,0.0,0.0,0.0,0.0,0.0,0.0,0.0,0.345,0.3452,0.3229,0.3694,0.0,0.0,0.0,0.0,0.0,0.43,0.4338,0.4367,0.4312,0.43,0.43,0.43,0.0,0.0,0.0,0.0,0.0,0.0,0.0,0.0,0.0,0.0,0.0,0.0,0.0,0.0,0.0,0.0,0.0,0.0,0.0,0.0,0.0,0.0,0.0,0.0,0.0,0.0,0.2333,0.2333,0.2321,0.2298,0.2297,0.2282,0.2252,0.2226,0.2209,0.2199,0.2174,0.2159,0.0,0.0,0.0,0.2155,0.2155,0.2155,0.2155,0.2155,0.2155,0.2155,0.2155,0.2155,0.2155,0.0,0.0,0.0,0.0,0.0,0.0,0.0,0.0,0.0,0.0,0.0,0.0,0.0,0.0,0.0,0.0,0.0,0.0,0.0,0.0,0.0,0.2127,0.1632,0.1335,0.1335,0.1335,0.1492,0.1882,0.157,0.157,0.2038,0.2431,0.2981,0.3686,0.3374,0.3374,0.3686,0.3374,0.3374,0.3606,0.0,0.0,0.0,0.0,0.0,0.0,0.0,0.0,0.0,0.3295,0.3141,0.3221,0.3702,0.0,0.0,0.0,0.0,0.0,0.43,0.452,0.4679,0.4375,0.43,0.43,0.0,0.0,0.0,0.0,0.0,0.0,0.0,0.0,0.0,0.0,0.0,0.0,0.0,0.0,0.0,0.0,0.0,0.0,0.0,0.0,0.0,0.0,0.0,0.0,0.0,0.0,0.0,0.2333,0.2333,0.233,0.2326,0.2326,0.2312,0.2284,0.2279,0.225,0.22,0.2195,0.2179,0.0,0.0,0.2155,0.2155,0.2155,0.2155,0.2155,0.2155,0.2155,0.2155,0.2155,0.2155,0.2289,0.0,0.0,0.0,0.0,0.0,0.0,0.0,0.0,0.0,0.0,0.0,0.0,0.0,0.0,0.0,0.0,0.0,0.0,0.0,0.0,0.2665,0.2293,0.1596,0.1241,0.1335,0.1335,0.1414,0.1569,0.1414,0.1414,0.1569,0.2198,0.2824,0.3374,0.3219,0.3061,0.3137,0.3061,0.3217,0.3452,0.0,0.0,0.0,0.0,0.0,0.0,0.0,0.0,0.0,0.0,0.3452,0.353,0.3763,0.0,0.0,0.0,0.0,0.0,0.43,0.442,0.4458,0.4106,0.4144,0.4371,0.0,0.0,0.0,0.0,0.0,0.0,0.0,0.0,0.0,0.0,0.0,0.0,0.0,0.0,0.0,0.0,0.0,0.0,0.0,0.0,0.0,0.0,0.0,0.0,0.0,0.0,0.0,0.0,0.2333,0.2333,0.2333,0.2333,0.2326,0.2313,0.2298,0.2267,0.2224,0.2207,0.2183,0.2155,0.0,0.2155,0.2155,0.2155,0.2155,0.2155,0.2155,0.2155,0.2155,0.2155,0.2423,0.2826,0.0,0.0,0.0,0.0,0.0,0.0,0.0,0.0,0.0,0.0,0.0,0.0,0.0,0.0,0.0,0.0,0.0,0.0,0.0,0.3941,0.3221,0.2519,0.1765,0.1359,0.1245,0.1254,0.1335,0.1335,0.1335,0.1414,0.1571,0.2198,0.2746,0.3062,0.3062,0.2904,0.2668,0.2982,0.3141,0.3295,0.0,0.0,0.0,0.0,0.0,0.0,0.0,0.0,0.0,0.0,0.0,0.0,0.0,0.0,0.0,0.4036,0.4247,0.4567,0.4567,0.4723,0.4862,0.4367,0.0,0.0,0.0,0.0,0.0,0.0,0.0,0.0,0.0,0.0,0.0,0.0,0.0,0.0,0.0,0.0,0.0,0.0,0.0,0.0,0.0,0.0,0.0,0.0,0.0,0.0,0.0,0.0,0.0,0.0,0.2333,0.2333,0.2333,0.2333,0.2333,0.2333,0.2311,0.2281,0.2245,0.2221,0.219,0.2155,0.2155,0.2155,0.2155,0.2155,0.2155,0.2155,0.2155,0.2155,0.2155,0.2155,0.2558,0.3228,0.0,0.0,0.0,0.0,0.0,0.0,0.0,0.0,0.0,0.0,0.0,0.0,0.0,0.0,0.0,0.0,0.0,0.0,0.0,0.47,0.3946,0.3219,0.2528,0.1875,0.1214,0.1243,0.1335,0.1335,0.1335,0.1649,0.2433,0.251,0.2746,0.3062,0.3062,0.3062,0.3062,0.3062,0.3374,0.3765,0.3763,0.0,0.0,0.0,0.0,0.0,0.0,0.0,0.0,0.0,0.0,0.0,0.0,0.0,0.4036,0.4036,0.4592,0.5282,0.5282,0.6048,0.6589,0.5919,0.4981,0.0,0.5218,0.5721,0.0,0.0,0.0,0.0,0.0,0.0,0.0,0.0,0.0,0.0,0.0,0.0,0.0,0.0,0.0,0.0,0.0,0.0,0.0,0.0,0.0,0.0,0.0,0.0,0.0,0.0,0.0,0.2333,0.2333,0.2333,0.2333,0.2333,0.233,0.23,0.2245,0.2243,0.221,0.2155,0.2155,0.2155,0.2155,0.2155,0.2155,0.2155,0.2155,0.2155,0.2155,0.2155,0.2558,0.3228,0.0,0.0,0.0,0.0,0.0,0.0,0.0,0.0,0.0,0.0,0.0,0.0,0.0,0.0,0.0,0.0,0.0,0.0,0.0,0.4348,0.35,0.3267,0.2183,0.1449,0.1183,0.1213,0.1239,0.1335,0.1335,0.1728,0.2511,0.2275,0.251,0.3062,0.2826,0.2904,0.3062,0.3062,0.3374,0.3763,0.3763,0.353,0.0,0.0,0.0,0.0,0.0,0.0,0.0,0.0,0.3763,0.3763,0.3763,0.3889,0.4118,0.4534,0.5021,0.546,0.5902,0.5787,0.5749,0.6012,0.5406,0.0,0.0,0.7192,0.0,0.0,0.0,0.0,0.0,0.0,0.0,0.0,0.0,0.0,0.0,0.0,0.0,0.0,0.0,0.0,0.0,0.0,0.0,0.0,0.0,0.0,0.0,0.0,0.0,0.0,0.0,0.2333,0.2333,0.2333,0.2333,0.2333,0.2333,0.2302,0.2245,0.2245,0.2212,0.2155,0.2155,0.2155,0.2155,0.2155,0.2155,0.2155,0.2155,0.2423,0.2826,0.2826,0.3498,0.4574,0.0,0.0,0.0,0.0,0.0,0.0,0.0,0.0,0.0,0.0,0.0,0.0,0.0,0.0,0.0,0.0,0.0,0.0,0.5617,0.4284,0.3431,0.3258,0.2114,0.1451,0.1181,0.1201,0.1227,0.1335,0.1335,0.1728,0.251,0.2117,0.2353,0.3062,0.2826,0.2826,0.3141,0.3297,0.353,0.3763,0.3763,0.3608,0.0,0.0,0.0,0.0,0.0,0.0,0.0,0.0,0.3919,0.4079,0.4189,0.4396,0.4708,0.5325,0.5494,0.567,0.6129,0.5825,0.562,0.6406,0.0,0.0,0.8396,0.8566,0.8303,0.0,0.0,0.0,0.0,0.0,0.0,0.0,0.0,0.0,0.0,0.0,0.0,0.0,0.0,0.0,0.0,0.0,0.0,0.0,0.0,0.0,0.0,0.0,0.0,0.0,0.2333,0.2333,0.2333,0.2333,0.2328,0.232,0.232,0.2294,0.2245,0.2236,0.2203,0.2155,0.2155,0.2155,0.2155,0.2155,0.2155,0.2155,0.2423,0.2826,0.3228,0.3497,0.4304,0.5381,0.0,0.0,0.0,0.0,0.0,0.0,0.0,0.0,0.0,0.0,0.0,0.0,0.0,0.0,0.0,0.0,0.0,0.0,0.5617,0.4752,0.4004,0.3348,0.2588,0.1867,0.1211,0.1212,0.1227,0.1335,0.1335,0.1728,0.251,0.2117,0.2353,0.3141,0.3062,0.3062,0.3141,0.3608,0.3763,0.3763,0.3763,0.3763,0.3763,0.0,0.0,0.0,0.0,0.0,0.0,0.0,0.4231,0.4719,0.4906,0.5431,0.6059,0.6272,0.614,0.5922,0.5922,0.6313,0.6906,0.0,0.0,0.0,0.0,0.949,0.0,0.0,0.0,0.0,0.0,0.0,0.0,0.0,0.0,0.0,0.0,0.0,0.0,0.0,0.0,0.0,0.0,0.0,0.0,0.0,0.0,0.0,0.0,0.0,0.0,0.0,0.2333,0.2333,0.2333,0.2333,0.2318,0.2291,0.229,0.2274,0.2244,0.2214,0.2183,0.2155,0.2155,0.2155,0.2155,0.2155,0.2155,0.2289,0.296,0.3228,0.3362,0.4033,0.4839,0.5381,0.0,0.0,0.0,0.0,0.0,0.0,0.0,0.0,0.0,0.0,0.0,0.0,0.0,0.0,0.0,0.0,0.0,0.0,0.5822,0.443,0.3531,0.3283,0.2174,0.1416,0.1211,0.1232,0.1248,0.1335,0.1335,0.1728,0.251,0.1805,0.2198,0.353,0.2981,0.2981,0.3608,0.3763,0.3763,0.3763,0.3763,0.3763,0.3763,0.0,0.0,0.0,0.0,0.0,0.0,0.0,0.0,0.0,0.5545,0.584,0.6142,0.6868,0.7051,0.7119,0.7397,0.6639,0.0,0.0,0.0,0.0,0.0,0.0,0.0,0.0,0.0,0.0,0.0,0.0,0.0,0.0,0.0,0.0,0.0,0.0,0.0,0.0,0.0,0.0,0.0,0.0,0.0,0.0,0.0,0.0,0.0,0.0,0.0,0.0,0.2333,0.2333,0.2333,0.2313,0.2299,0.229,0.2247,0.2222,0.2213,0.2204,0.2183,0.2155,0.2155,0.2155,0.2155,0.2155,0.2423,0.296,0.3094,0.39,0.4708,0.4977,0.5513,0.6185,0.0,0.0,0.0,0.0,0.0,0.0,0.0,0.0,0.0,0.0,0.0,0.0,0.0,0.0,0.0,0.0,0.0,0.0,0.0,0.4497,0.3806,0.3884,0.2527,0.1597,0.123,0.1248,0.1335,0.1335,0.1335,0.1649,0.2275,0.1726,0.2276,0.353,0.2981,0.3137,0.3763,0.3763,0.3763,0.3763,0.3763,0.3763,0.3763,0.0,0.0,0.0,0.0,0.0,0.0,0.0,0.0,0.0,0.6351,0.6664,0.6943,0.7148,0.6948,0.6735,0.7156,0.0,0.0,0.0,0.0,0.0,0.0,0.0,0.0,0.0,0.0,0.0,0.0,0.0,0.0,0.0,0.0,0.0,0.0,0.0,0.0,0.0,0.0,0.0,0.0,0.0,0.0,0.0,0.0,0.0,0.0,0.0,0.0,0.0,0.2322,0.2316,0.2316,0.2288,0.2266,0.2254,0.2494,0.2604,0.259,0.2318,0.2172,0.2155,0.2423,0.2827,0.3095,0.3095,0.3228,0.363,0.39,0.4574,0.5381,0.5783,0.6185,0.6453,0.0,0.0,0.0,0.0,0.0,0.0,0.0,0.0,0.0,0.0,0.0,0.0,0.0,0.0,0.0,0.0,0.0,0.0,0.0,0.4911,0.4597,0.4811,0.3404,0.2224,0.1413,0.1414,0.1335,0.1335,0.1335,0.1492,0.1882,0.1882,0.2353,0.3062,0.3062,0.3374,0.3763,0.3763,0.3763,0.3763,0.3763,0.3763,0.3841,0.3841,0.0,0.0,0.0,0.0,0.0,0.0,0.0,0.0,0.7159,0.7735,0.819,0.735,0.6382,0.5681,0.6087,0.0,0.0,0.0,0.0,0.0,0.0,0.0,0.0,0.0,0.0,0.0,0.0,0.0,0.0,0.0,0.0,0.0,0.0,0.0,0.0,0.0,0.0,0.0,0.0,0.0,0.0,0.0,0.0,0.0,0.0,0.0,0.0,0.0,0.2304,0.229,0.2287,0.2257,0.2227,0.0,0.2881,0.3269,0.3228,0.2692,0.2423,0.2423,0.3095,0.3631,0.43,0.43,0.4301,0.4435,0.5111,0.5381,0.5515,0.6319,0.6453,0.6319,0.0,0.0,0.0,0.0,0.0,0.0,0.0,0.0,0.0,0.0,0.0,0.0,0.0,0.0,0.0,0.0,0.0,0.0,0.0,0.5222,0.4768,0.4817,0.3993,0.3115,0.2275,0.2276,0.1962,0.1335,0.1335,0.1492,0.1882,0.1882,0.2353,0.3062,0.3062,0.3374,0.3763,0.3763,0.3763,0.3763,0.3763,0.3763,0.3841,0.4309,0.4621,0.0,0.0,0.0,0.0,0.0,0.0,0.0,0.7963,0.8175,0.8267,0.824,0.8233,0.8285,0.0,0.7794,0.0,0.0,0.0,0.0,0.0,0.0,0.0,0.0,0.0,0.0,0.0,0.0,0.0,0.0,0.0,0.0,0.0,0.0,0.0,0.0,0.0,0.0,0.0,0.0,0.0,0.0,0.0,0.0,0.0,0.0,0.0,0.23,0.2294,0.2279,0.2256,0.2225,0.2206,0.0,0.2853,0.3237,0.3228,0.363,0.3899,0.3899,0.4033,0.4166,0.43,0.43,0.4705,0.5245,0.5381,0.5783,0.6319,0.6453,0.578,0.4838,0.0,0.0,0.0,0.0,0.0,0.0,0.0,0.0,0.0,0.0,0.0,0.0,0.0,0.0,0.0,0.0,0.0,0.0,0.0,0.0,0.5225,0.4904,0.458,0.3988,0.3132,0.3132,0.2821,0.2195,0.1962,0.1805,0.1649,0.204,0.2431,0.2826,0.3217,0.3608,0.3763,0.3763,0.3997,0.4231,0.4231,0.4384,0.4701,0.5151,0.5489,0.5732,0.6192,0.0,0.0,0.0,0.0,0.0,0.0,0.0,0.8333,0.7919,0.7959,0.8079,0.0,0.0,0.0,0.0,0.0,0.0,0.0,0.0,0.0,0.0,0.0,0.0,0.0,0.0,0.0,0.0,0.0,0.0,0.0,0.0,0.0,0.0,0.0,0.0,0.0,0.0,0.0,0.0,0.0,0.0,0.0,0.2313,0.2299,0.227,0.2255,0.224,0.2223,0.2193,0.2178,0.2178,0.324,0.4034,0.4705,0.4435,0.4435,0.4839,0.4839,0.4973,0.5376,0.5376,0.5646,0.5917,0.5109,0.5109,0.5376,0.4701,0.3895,0.3223,0.0,0.0,0.0,0.0,0.0,0.0,0.0,0.0,0.0,0.0,0.0,0.0,0.0,0.0,0.0,0.0,0.0,0.0,0.0,0.0,0.0,0.5234,0.5237,0.4846,0.3986,0.3986,0.3754,0.3209,0.2899,0.2431,0.1805,0.2276,0.2588,0.2823,0.3528,0.3919,0.4075,0.4014,0.4335,0.4886,0.4985,0.5224,0.5704,0.5981,0.6428,0.6925,0.714,0.0,0.0,0.0,0.0,0.0,0.0,0.0,0.841,0.7531,0.7214,0.7328,0.0,0.0,0.0,0.0,0.0,0.0,0.0,0.0,0.0,0.0,0.0,0.0,0.0,0.0,0.0,0.0,0.0,0.0,0.0,0.0,0.0,0.0,0.0,0.0,0.0,0.0,0.0,0.0,0.0,0.0,0.2284,0.2283,0.2269,0.2238,0.2213,0.2198,0.2192,0.2167,0.2289,0.2423,0.3765,0.5242,0.6453,0.5242,0.4973,0.5649,0.5649,0.5917,0.6453,0.6183,0.6183,0.5915,0.4434,0.3896,0.3762,0.2551,0.1879,0.1745,0.0,0.0,0.0,0.0,0.0,0.0,0.0,0.0,0.0,0.0,0.0,0.0,0.0,0.0,0.0,0.0,0.0,0.0,0.0,0.0,0.0,0.6103,0.6103,0.5709,0.4846,0.4846,0.4457,0.3675,0.3832,0.3834,0.3679,0.2899,0.2978,0.3912,0.3839,0.4384,0.5321,0.4957,0.5159,0.5734,0.5924,0.6052,0.6217,0.6737,0.6994,0.7162,0.7675,0.0,0.0,0.0,0.0,0.0,0.0,0.0,0.0,0.841,0.8606,0.8856,0.0,0.0,0.0,0.0,0.0,0.0,0.0,0.0,0.0,0.0,0.0,0.0,0.0,0.0,0.0,0.0,0.0,0.0,0.0,0.0,0.0,0.0,0.0,0.0,0.0,0.0,0.0,0.0,0.0,0.0,0.2251,0.2251,0.2237,0.2207,0.2202,0.2187,0.2161,0.2157,0.2558,0.3094,0.4572,0.5647,0.6453,0.6319,0.6317,0.6319,0.6319,0.6453,0.6453,0.5108,0.457,0.4435,0.2954,0.2416,0.2416,0.2148,0.1343,0.0269,0.0,0.0,0.0,0.0,0.0,0.0,0.0,0.0,0.0,0.0,0.0,0.0,0.0,0.0,0.0,0.0,0.0,0.0,0.0,0.0,0.0,0.6338,0.6338,0.6103,0.5709,0.5709,0.5398,0.4771,0.4768,0.4768,0.4771,0.4146,0.4146,0.4613,0.4771,0.5196,0.5744,0.5562,0.5953,0.6603,0.6664,0.7095,0.7657,0.7735,0.7928,0.8239,0.8311,0.0,0.0,0.0,0.0,0.0,0.0,0.0,0.0,0.0,0.0,0.0,0.0,0.0,0.0,0.0,0.0,0.0,0.0,0.0,0.0,0.0,0.0,0.0,0.0,0.0,0.0,0.0,0.0,0.0,0.0,0.0,0.0,0.0,0.0,0.0,0.0,0.0,0.0,0.0,0.0,0.2238,0.2221,0.222,0.2206,0.2176,0.2581,0.2708,0.2827,0.3229,0.3765,0.4438,0.5111,0.5783,0.6453,0.6453,0.6453,0.6453,0.6453,0.6049,0.5242,0.457,0.3762,0.2954,0.1477,0.094,0.0806,-0.0,-0.0672,-0.1211,0.0,0.0,0.0,0.0,0.0,0.0,0.0,0.0,0.0,0.0,0.0,0.0,0.0,0.0,0.0,0.0,0.0,0.0,0.0,0.0,0.0,0.6338,0.6338,0.6338,0.6338,0.6338,0.6103,0.5792,0.5702,0.5696,0.5705,0.5625,0.5643,0.5677,0.5674,0.5969,0.6398,0.6309,0.673,0.7435,0.7603,0.8155,0.8942,0.8816,0.9019,0.9315,0.8913,0.0,0.0,0.0,0.0,0.0,0.0,0.0,0.0,0.0,0.0,0.0,0.0,0.0,0.0,0.0,0.0,0.0,0.0,0.0,0.0,0.0,0.0,0.0,0.0,0.0,0.0,0.0,0.0,0.0,0.0,0.0,0.0,0.0,0.0,0.0,0.0,0.0,0.0,0.0,0.0,0.2213,0.2463,0.2461,0.2585,0.2693,0.3228,0.3496,0.3496,0.4167,0.4841,0.5381,0.5649,0.5917,0.6453,0.6049,0.5915,0.5915,0.5915,0.5106,0.3762,0.3359,0.2552,0.1477,-0.0,-0.0538,-0.0672,-0.175,-0.2155,-0.2155,0.0,0.0,0.0,0.0,0.0,0.0,0.0,0.0,0.0,0.0,0.0,0.0,0.7192,0.722,0.7139,0.6915,0.6857,0.6714,0.6338,0.6338,0.6338,0.6338,0.6338,0.0,0.6338,0.6338,0.6261,0.6261,0.6637,0.6784,0.6861,0.7173,0.7496,0.7585,0.6381,0.6544,0.7701,0.7442,0.7665,0.8337,0.9011,0.9303,0.938,0.9876,0.0,0.0,0.0,0.0,0.0,0.0,0.0,0.0,0.0,0.0,0.0,0.0,0.0,0.0,0.0,0.0,0.0,0.0,0.0,0.0,0.0,0.0,0.0,0.0,0.0,0.0,0.0,0.0,0.0,0.0,0.0,0.0,0.0,0.0,0.0,0.0,0.0,0.0,0.0,0.0,0.0,0.0,0.0,0.2428,0.3098,0.3098,0.3499,0.4167,0.4167,0.4301,0.4301,0.4975,0.5381,0.5381,0.6051,0.6453,0.6453,0.5108,0.4434,0.4434,0.4434,0.3627,0.2148,0.0806,0.0134,-0.0,-0.148,-0.2019,-0.2155,-0.2155,-0.2155,-0.2155,0.0,0.0,0.0,0.0,0.0,0.0,0.0,0.0,0.0,0.0,0.0,0.0,0.0,0.7243,0.7114,0.6934,0.6637,0.649,0.6338,0.6338,0.6338,0.6338,0.6338,0.6338,0.6338,0.6338,0.6338,0.649,0.6788,0.6942,0.7103,0.7528,0.7695,0.776,0.7358,0.7477,0.8109,0.7978,0.0,0.0,0.0,0.0,0.9855,0.0,0.0,0.0,0.0,0.0,0.0,0.0,0.0,0.0,0.0,0.0,0.0,0.0,0.0,0.0,0.0,0.0,0.0,0.0,0.0,0.0,0.0,0.0,0.0,0.0,0.0,0.0,0.0,0.0,0.0,0.0,0.0,0.0,0.0,0.0,0.0,0.0,0.0,0.0,0.0,0.0,0.0,0.0,0.0,0.0,0.3228,0.363,0.4033,0.43,0.4705,0.5243,0.5646,0.5917,0.6051,0.6051,0.6319,0.6453,0.6453,0.4973,0.3762,0.2819,0.1881,0.1209,0.0672,0.0269,-0.0538,-0.148,-0.2019,-0.2155,-0.2155,-0.2155,-0.2155,-0.2155,0.0,0.0,0.0,0.0,0.0,0.0,0.0,0.0,0.0,0.7313,0.0,0.0,0.0,0.0,0.7103,0.6788,0.649,0.6338,0.6338,0.6338,0.6338,0.6338,0.6338,0.6338,0.6338,0.621,0.636,0.6563,0.6736,0.6969,0.7188,0.7596,0.7789,0.7849,0.791,0.8069,0.8296,0.0,0.0,0.8629,0.0,0.0,0.9892,0.0,0.0,0.0,0.0,0.0,0.0,0.0,0.0,0.0,0.0,0.0,0.0,0.0,0.0,0.0,0.0,0.0,0.0,0.0,0.0,0.0,0.0,0.0,0.0,0.0,0.0,0.0,0.0,0.0,0.0,0.0,0.0,0.0,0.0,0.0,0.0,0.0,0.0,0.0,0.0,0.0,0.0,0.0,0.0,0.0,0.3497,0.4301,0.4839,0.4973,0.5513,0.6051,0.6453,0.6453,0.6453,0.6453,0.6453,0.6183,0.5646,0.4298,0.282,0.1343,-0.0134,-0.0672,-0.0672,-0.0672,-0.1346,-0.2155,-0.2155,-0.2155,-0.2155,-0.2155,-0.2155,-0.2155,0.0,0.0,0.0,0.0,0.0,0.0,0.0,0.0,0.7484,0.7484,0.0,0.0,0.0,0.0,0.0,0.6641,0.6412,0.6338,0.6338,0.6338,0.6338,0.6338,0.6338,0.6338,0.6338,0.6115,0.6184,0.6641,0.6636,0.6795,0.7192,0.7604,0.7858,0.8028,0.8215,0.83,0.8308,0.0,0.8568,0.8662,0.0,0.9847,0.9494,0.0,0.0,0.0,1.0193,1.0176,0.0,0.0,0.0,0.0,0.0,0.0,0.0,0.0,0.0,0.0,0.0,0.0,0.0,0.0,0.0,0.0,0.0,0.0,0.0,0.0,0.0,0.0,0.0,0.0,0.0,0.0,0.0,0.0,0.0,0.0,0.0,0.0,0.0,0.0,0.0,0.0,0.0,0.0,0.0,0.3497,0.43,0.4975,0.5783,0.6453,0.6453,0.6453,0.6453,0.6453,0.6453,0.6453,0.6453,0.5646,0.4166,0.2685,0.1343,-0.0134,-0.1615,-0.2155,-0.2155,-0.2155,-0.2155,-0.2155,-0.2155,-0.2155,-0.2155,-0.2289,-0.2289,-0.2289,0.0,0.0,0.0,0.0,0.0,0.0,0.7411,0.7452,0.7484,0.0,0.0,0.0,0.7407,0.7176,0.6791,0.6412,0.6338,0.6338,0.6338,0.6338,0.6338,0.6338,0.6338,0.6338,0.6338,0.6371,0.6594,0.6788,0.6981,0.7277,0.7612,0.7862,0.804,0.8223,0.8406,0.8491,0.8495,0.8548,0.0,0.0,0.9734,1.0071,0.0,0.0,0.0,0.0,0.0,1.0493,0.0,0.0,1.0075,0.8982,0.0,0.0,0.0,0.0,0.0,0.0,0.8568,0.0,0.0,0.0,0.0,0.0,0.0,0.0,0.0,0.0,0.0,0.0,0.0,0.0,0.0,0.0,0.0,0.0,0.0,0.0,0.0,0.0,0.0,0.0,0.0,0.0,0.0,0.0,0.2826,0.3497,0.43,0.5512,0.6319,0.6453,0.6453,0.6453,0.6453,0.6453,0.5914,0.4972,0.4972,0.4164,0.2685,0.1209,0.0403,-0.0134,-0.1615,-0.2155,-0.2155,-0.2155,-0.2155,-0.2155,-0.2155,-0.2155,-0.2289,-0.3362,-0.3765,-0.3899,0.0,0.0,0.0,0.0,0.0,0.0,0.7484,0.7484,0.7484,0.0,0.0,0.0,0.7249,0.6868,0.6563,0.6338,0.6338,0.6338,0.6338,0.6338,0.6338,0.6338,0.6338,0.6338,0.6412,0.6419,0.6645,0.7022,0.718,0.7426,0.7768,0.8012,0.8187,0.83,0.8483,0.8568,0.0,0.0,0.0,0.0,0.9734,0.0,0.0,1.068,1.1025,0.0,0.0,0.0,1.0712,1.1431,1.0639,0.0,0.0,0.0,0.0,0.0,0.0,0.0,0.0,0.0,0.0,0.0,0.0,0.0,0.0,0.9514,0.0,0.0,0.0,0.0,0.0,0.0,0.0,0.0,0.0,0.0,0.0,0.0,0.0,0.0,0.0,0.0,0.0,0.0,0.0,0.2155,0.3094,0.4167,0.5108,0.6049,0.6453,0.6453,0.6453,0.6453,0.6453,0.5915,0.5108,0.43,0.3627,0.2685,0.1209,0.0403,-0.0269,-0.0941,-0.1884,-0.2155,-0.2155,-0.2155,-0.2155,-0.2155,-0.2155,-0.2558,-0.3229,-0.4033,-0.4701,-0.5233,0.0,0.0,0.0,0.7484,0.7484,0.7484,0.7484,0.7484,0.7484,0.0,0.7484,0.7326,0.6938,0.6563,0.6338,0.6338,0.6338,0.6338,0.6338,0.6338,0.6338,0.6338,0.6338,0.6412,0.6563,0.6421,0.6651,0.7208,0.7211,0.7466,0.7825,0.8142,0.83,0.8329,0.0,0.0,0.0,0.0,0.0,0.8739,0.9689,0.9819,0.0,0.0,1.072,0.0,1.1086,1.1285,1.1342,1.1931,1.1439,0.0,0.0,0.0,0.0,0.0,0.8637,0.0,0.0,0.0,0.0,0.0,0.0,0.0,0.9253,0.9439,0.9648,0.0,0.0,0.0,0.0,0.0,0.0,0.0,0.0,0.0,0.0,0.0,0.0,0.0,0.0,0.0,0.0,0.2289,0.2289,0.2289,0.3631,0.4973,0.6319,0.6453,0.6453,0.6453,0.6453,0.6453,0.6317,0.4972,0.4166,0.3762,0.2551,0.1074,-0.0269,-0.0269,-0.0941,-0.2155,-0.2155,-0.2289,-0.2423,-0.2423,-0.2423,-0.2423,-0.2423,-0.3228,-0.4567,-0.4701,-0.5635,-0.67,0.0,0.0,0.0,0.7484,0.7484,0.7484,0.7484,0.7484,0.7484,0.7484,0.7334,0.718,0.6942,0.6714,0.649,0.6338,0.6338,0.6338,0.6338,0.6338,0.6338,0.6338,0.6338,0.6338,0.6338,0.6605,0.6898,0.7145,0.7466,0.7874,0.8187,0.826,0.8369,0.8515,0.8552,0.0,0.0,0.0,0.0,0.9218,0.9429,0.0,1.0075,1.0724,1.1261,1.1683,1.1821,1.1687,1.1399,0.0,1.1232,1.1338,0.0,0.0,0.0,0.0,0.0,0.0,0.0,0.0,0.0,0.0,0.0,0.0,0.8455,0.8863,0.9138,0.0,0.0,0.0,0.0,0.0,0.0,0.0,0.0,0.0,0.0,0.0,0.0,0.0,0.0,0.0,0.0,0.2691,0.296,0.296,0.4304,0.5245,0.5649,0.6185,0.6453,0.6453,0.6453,0.5915,0.4704,0.4434,0.309,0.0806,0.0537,-0.0403,-0.175,-0.175,-0.1885,-0.2155,-0.2155,-0.2826,-0.3899,-0.3899,-0.3899,-0.3899,-0.3899,-0.4699,-0.6168,-0.7372,-0.7905,-0.8304,0.0,0.0,0.0,0.7484,0.7484,0.7484,0.7484,0.7484,0.7484,0.7484,0.7253,0.6979,0.6827,0.6677,0.6551,0.6474,0.6481,0.6481,0.6481,0.6481,0.6481,0.6481,0.6481,0.6558,0.6638,0.6955,0.7236,0.74,0.7816,0.8117,0.8292,0.8385,0.8617,0.895,0.8686,0.0,0.0,0.0,0.8723,0.9007,0.9543,0.0,1.0749,1.1289,1.1776,1.2303,1.3009,1.3229,1.3106,1.2092,1.1589,0.0,0.0,1.0578,1.0164,0.0,0.9482,0.949,0.0,0.0,0.0,0.8568,0.0,0.0,0.0,0.8887,0.9126,0.0,0.0,0.0,0.0,0.0,0.0,0.0,0.0,0.0,0.0,0.0,0.0,0.0,0.0,0.0,0.0,0.296,0.3498,0.4304,0.4977,0.5515,0.5917,0.6319,0.6183,0.5376,0.5376,0.4702,0.3223,0.2552,0.1478,-0.0,-0.0807,-0.148,-0.2155,-0.2155,-0.2155,-0.2289,-0.296,-0.363,-0.43,-0.5101,-0.5769,-0.6303,-0.5635,-0.6168,-0.7636,-0.8304,-0.9108,-0.9779,0.0,0.0,0.0,0.7484,0.7484,0.7484,0.7484,0.7484,0.7496,0.7455,0.723,0.7038,0.6962,0.6892,0.6824,0.6946,0.6956,0.6922,0.6834,0.0,0.6831,0.6831,0.6829,0.6906,0.7158,0.7329,0.7548,0.7741,0.8135,0.8308,0.8349,0.8495,0.8796,0.0,0.0,0.0,0.0,0.0,0.0,0.9456,0.0,1.0708,1.0976,1.1553,1.2069,1.2858,1.4407,1.5148,1.5019,1.3618,0.0,1.1553,1.1561,1.0956,0.0,0.0,0.0,0.0,0.0,0.0,0.0,0.0,0.0,0.8629,0.0,0.0,0.0,0.0,0.0,0.0,0.0,0.0,0.0,0.0,0.0,0.0,0.0,0.0,0.0,0.0,0.0,0.0,0.0,0.3441,0.4121,0.551,0.5592,0.585,0.6451,0.6453,0.578,0.4301,0.43,0.3492,0.1745,0.0537,-0.0134,-0.0403,-0.1615,-0.2155,-0.2155,-0.2423,-0.2558,-0.2691,-0.4031,-0.4835,-0.5235,-0.6301,-0.7636,-0.8839,-0.7369,-0.7769,-0.8975,-0.8975,-0.9779,-1.0721,0.7484,0.7484,0.0,0.0,0.7484,0.7484,0.7484,0.7484,0.7463,0.7391,0.7556,0.7712,0.7606,0.0,0.0,0.0,0.0,0.0,0.7322,0.0,0.7295,0.7295,0.7168,0.7222,0.7638,0.7669,0.7768,0.7928,0.8195,0.8377,0.8536,0.8556,0.8601,0.0,0.9084,0.0,0.0,0.0,1.0413,0.0,1.2236,1.1295,0.0,1.0578,1.2051,1.384,1.5996,1.6695,1.6492,0.0,1.3845,1.3416,0.0,1.1139,0.0,0.0,0.0,0.0,0.0,0.0,0.0,0.0,0.8678,0.0,0.0,0.0,0.0,0.0,0.0,0.0,0.0,0.0,0.0,0.0,0.0,0.0,0.0,0.0,0.0,0.0,0.0,0.0,0.0,0.0,0.5093,0.6295,0.603,0.599,0.6437,0.6453,0.578,0.4301,0.43,0.2956,0.0269,0.0134,-0.0672,-0.1885,-0.2155,-0.2155,-0.2289,-0.3497,-0.4033,-0.4166,-0.5499,-0.6969,-0.8174,-0.8304,-0.9241,-1.0319,-0.8842,-0.9244,-1.0452,-1.0452,-1.0585,-1.0721,0.7484,0.7484,0.0,0.0,0.7484,0.7484,0.7484,0.7492,0.7466,0.7407,0.7355,0.7286,0.0,0.0,0.0,0.0,0.0,0.7828,0.0,0.0,0.7509,0.7248,0.732,0.0,0.7596,0.7839,0.8021,0.8099,0.8364,0.8491,0.8568,0.8568,0.8731,0.0,1.0103,0.0,1.0838,0.0,0.0,0.0,0.0,0.0,0.0,1.3361,1.5307,1.6811,1.6962,1.749,1.7959,0.0,1.4886,0.0,0.0,0.0,0.0,0.0,0.0,0.0,0.0,0.0,0.0,0.0,0.0,0.0,0.0,0.0,0.8568,0.0,0.0,0.0,0.0,0.0,0.0,0.0,0.0,0.0,0.0,0.0,0.0,0.0,0.0,0.0,0.0,0.0,0.0,0.0,0.0,0.6294,0.6445,0.6453,0.5374,0.3089,0.3089,0.1612,-0.1211,-0.1211,-0.1615,-0.2155,-0.2155,-0.2692,-0.3497,-0.4033,-0.4701,-0.5635,-0.7102,-0.8038,-0.8706,-0.9513,-1.0183,-1.0588,-1.0047,-1.0183,-1.0721,-1.0721,-1.0721,-1.0721,0.7484,0.0,0.0,0.0,0.0,0.7573,0.7622,0.7577,0.7481,0.0,0.0,0.0,0.7153,0.7428,0.0,0.0,0.0,0.8435,0.0,0.0,0.8062,0.8236,0.7818,0.0,0.0,0.0,0.8292,0.8292,0.8476,0.8568,0.8568,0.8568,0.8771,0.0,0.0,1.1339,1.2284,0.0,0.0,1.373,1.4188,1.4526,1.4773,1.6507,1.7914,1.8908,1.8267,1.878,1.9388,1.7892,1.6111,0.0,1.6129,0.0,0.0,0.0,0.0,0.0,1.0532,0.0,0.0,0.0,0.0,0.0,0.0,0.0,0.0,0.0,0.0,0.0,0.0,0.0,0.0,0.0,0.0,0.0,0.0,0.0,0.0,0.0,0.0,0.0,0.0,0.0,0.0,0.6298,0.6306,0.6349,0.6449,0.6183,0.4702,0.2148,0.1745,0.0269,-0.2155,-0.2155,-0.2155,-0.2155,-0.2558,-0.3362,-0.4301,-0.5103,-0.6036,-0.71,-0.8573,-0.9111,-0.9244,-1.0316,-1.0721,-1.0721,-1.0721,-1.0721,-1.0721,-1.0721,-1.0721,-1.0721,0.7484,0.7484,0.0,0.0,0.0,0.0,0.0,0.0,0.0,0.0,0.0,0.0,0.0,0.0,0.0,0.0,0.0,1.0015,0.9581,0.0,0.941,0.0,0.0,0.8854,0.0,0.0,0.0,0.8568,0.8568,0.8568,0.8568,0.8568,0.8576,0.8613,0.0,1.0329,1.1737,1.227,1.4565,1.7855,1.7886,1.9006,2.0625,0.0,1.8477,1.9164,2.0462,0.0,0.0,1.8757,1.8086,0.0,0.0,0.0,0.0,0.0,0.0,0.0,0.0,0.0,0.0,0.9858,0.0,0.0,0.0,0.0,0.8568,0.0,0.0,0.0,0.0,0.0,0.0,0.8329,0.0,0.0,0.0,0.0,0.0,0.0,0.0,0.0,0.0,0.0,0.0,0.5908,0.5935,0.6086,0.6435,0.5108,0.3627,0.2148,0.0806,-0.0672,-0.2155,-0.2155,-0.2155,-0.2155,-0.3631,-0.43,-0.4434,-0.7238,-0.844,-0.8573,-1.0047,-1.0588,-1.0588,-1.0721,-1.0721,-1.0721,-1.0721,-1.0721,-1.0721,-1.0721,-1.0721,-1.0721,0.0,0.0,0.0,0.0,0.0,0.0,0.0,0.7774,0.0,0.0,0.0,0.0,0.0,0.0,0.9208,0.0,0.0,1.0127,1.0902,0.9594,0.0,0.0,0.0,0.885,0.0,0.0,0.0,0.0,0.0,0.0,0.8568,0.8568,0.8568,0.0,0.0,1.1781,0.0,0.0,0.0,0.0,0.0,1.8532,1.9267,0.0,0.0,2.0462,2.0976,2.1109,0.0,2.0375,1.9273,1.8369,1.9012,1.7571,1.5831,1.6897,1.6559,0.0,0.0,0.0,1.3065,1.1569,0.0,0.0,0.0,0.0,0.0,0.0,0.0,0.0,0.0,0.0,0.8548,0.8483,0.8528,0.0,0.0,0.0,0.0,0.0,0.0,0.0,0.0,0.0,0.0,0.5908,0.6139,0.5929,0.0,0.457,0.3224,0.0806,0.0269,-0.0672,-0.2155,-0.2155,-0.2155,-0.2155,-0.363,-0.4835,-0.5767,-0.7772,-0.9108,-1.0047,-1.0452,-1.0721,-1.0721,-1.0721,-1.0721,-1.0721,-1.0721,-1.0721,-1.0721,-1.0721,-1.0721,-1.085,0.7849,0.0,0.0,0.0,0.0,0.0,0.0,0.0,0.0,0.0,0.8137,0.0,0.8872,0.0,1.0055,0.0,1.1088,1.1606,1.17,1.1024,0.0,1.3406,1.1309,0.0,0.0,0.0,0.0,0.0,0.0,0.874,0.9087,0.874,0.874,0.0,0.0,0.0,0.0,0.0,1.6803,0.0,0.0,1.9261,0.0,0.0,2.0658,2.0172,0.0,2.1109,2.1109,2.1109,2.0217,1.9479,2.0671,1.9447,1.7718,1.8853,1.8388,1.7202,1.6003,1.5327,0.0,1.2311,1.1311,0.0,0.9441,0.0,0.0,0.0,0.0,0.0,0.0,0.0,0.0,0.8901,0.8547,0.7848,0.0,0.0,0.0,0.0,0.0,0.0,0.0,0.0,0.5639,0.5898,0.562,0.5132,0.0,0.0,0.1881,0.0,-0.0538,-0.1211,-0.2155,-0.2155,-0.2424,-0.296,-0.4433,-0.5769,-0.7234,-0.8706,-0.9782,-1.0721,-1.0721,-1.0721,-1.0721,-1.0721,-1.0721,-1.0721,-1.0721,-1.0721,-1.0721,-1.0721,-1.0982,-1.1637,0.0,0.0,0.0,0.0,0.8187,0.0,0.0,0.0,0.8044,0.0,0.8306,0.846,0.9071,1.0809,1.2034,1.1913,1.3816,0.0,1.2323,1.332,0.0,0.0,1.4113,1.5043,1.7062,0.0,0.0,0.0,0.0,0.0,0.9946,0.9087,0.0,0.0,0.9087,0.0,1.618,1.5209,1.7316,2.1109,2.1109,2.1082,2.0923,2.1089,1.9924,1.8431,2.0408,2.1109,2.1109,2.1109,2.1109,2.1109,2.1109,2.1109,2.1109,2.1109,2.1109,2.0413,1.7253,1.6326,1.5429,1.2203,0.0,0.0,0.0,0.0,0.9681,0.0,0.0,0.0,0.0,0.0,0.0,0.9372,0.8255,0.6959,0.0,0.0,0.0,0.0,0.0,0.0,0.0,0.474,0.504,0.5716,0.4551,0.0,0.0,0.0,0.0,-0.0134,-0.148,-0.2155,-0.2155,-0.2155,-0.2826,-0.4167,-0.5633,-0.71,-0.8573,-1.0047,-1.0721,-1.0721,-1.0721,-1.0721,-1.0721,-1.0721,-1.0721,-1.0721,-1.0721,-1.0721,-1.0721,-1.0721,-1.1637,-1.2947,0.8219,0.8329,0.8426,0.0,0.8467,0.8424,0.0,0.0,0.0,0.0,1.0639,1.1118,1.1693,1.319,1.3691,1.2668,1.4007,0.0,0.0,0.0,0.0,1.8132,1.5796,1.5336,1.7352,1.4303,0.0,1.3119,0.0,0.0,1.0977,0.0,0.0,0.0,0.0,0.0,1.6174,1.5962,1.79,2.1109,2.1109,2.0204,0.0,0.0,1.9924,1.8431,2.0408,2.1109,2.1109,2.1109,2.1109,2.1109,2.1109,2.1109,2.1109,2.1109,2.1109,2.067,1.8788,1.7593,1.6281,1.3887,1.2521,1.1415,0.0,0.0,0.0,0.0,0.0,0.0,0.0,0.0,0.0,0.0,0.0,0.0,0.0,0.0,0.0,0.0,0.0,0.0,0.0,0.3893,0.365,0.3892,0.3841,0.0,0.0,0.0,0.0,-0.1613,-0.2019,-0.2155,-0.2155,-0.2155,-0.2423,-0.2827,-0.5232,-0.6566,-0.71,-0.9513,-1.0721,-1.0721,-1.0721,-1.0721,-1.0721,-1.0721,-1.0721,-1.0721,-1.0721,-1.0721,-1.085,-1.1901,-1.321,-1.4516,0.841,0.0,0.0,0.8472,0.0,0.0,0.92,0.0,0.0,1.087,1.1363,0.0,1.2389,1.4479,1.5554,1.4768,1.5944,0.0,0.0,0.0,0.0,1.8471,1.7648,1.7781,1.9012,1.6531,0.0,1.5075,0.0,0.0,1.1929,0.0,0.0,0.0,0.0,1.3124,0.0,1.7335,1.8603,1.9931,2.0823,0.0,0.0,2.0664,2.0414,1.9549,2.0678,2.1109,2.1109,2.1109,2.1109,2.1109,2.1109,2.1109,2.1109,2.1109,2.0716,1.9941,1.8524,1.7103,1.5724,1.3966,1.2931,1.2081,1.1464,1.124,1.1163,0.0,0.0,0.0,0.0,0.0,0.0,0.0,0.0,0.0,0.0,0.0,0.0,0.0,0.0,0.0,0.4228,0.3091,0.2797,0.403,0.3244,0.0,0.0,0.0,0.0,-0.2075,-0.2127,-0.2155,-0.2155,-0.2155,-0.2558,-0.3095,-0.5366,-0.67,-0.7503,-0.9646,-1.0721,-1.0721,-1.0721,-1.0721,-1.0721,-1.0721,-1.0721,-1.0721,-1.1376,-1.1637,-1.1901,-1.3857,-1.4772,-1.5038,0.0,0.0,0.0,0.0,0.0,0.0,0.0,0.9938,0.0,1.1548,0.0,1.2121,1.2662,1.5463,1.7238,1.698,0.0,1.8303,1.6669,1.8422,1.9019,1.7583,1.9559,2.0862,2.1109,1.9228,0.0,0.0,0.0,0.0,0.0,0.0,0.0,0.0,0.0,0.0,0.0,1.8745,1.925,0.0,2.0414,2.1109,2.1109,2.1109,2.1109,2.1109,2.1109,2.1109,2.1109,2.1109,2.1109,2.1109,2.1109,2.1109,2.1109,2.0849,1.9947,1.8652,1.7109,1.5814,1.452,1.3095,1.2836,1.2678,1.2056,1.1914,1.1914,1.1902,1.1286,1.0852,0.0,0.0,0.0,0.0,0.0,0.0,0.0,0.0,0.0,0.0,0.0,0.0,0.0,0.0,0.0,0.0,0.0,0.0,0.0,0.0,0.0,-0.1999,-0.2101,0.0,-0.2155,0.0,-0.3095,-0.4301,-0.59,-0.7367,-0.8706,-1.0047,-1.0721,-1.0721,-1.0721,-1.0721,-1.0721,-1.0721,-1.0721,-1.085,-1.2029,-1.2684,-1.3079,-1.5809,-1.6073,-1.5429,0.0,0.0,0.0,0.0,0.0,1.1683,1.2974,1.3248,1.3744,1.5109,1.5692,0.0,1.6131,1.7686,1.8285,1.7109,1.8285,0.0,0.0,0.0,0.0,1.9563,2.0498,2.0982,2.1109,1.984,1.8791,0.0,0.0,0.0,1.4176,0.0,0.0,0.0,0.0,0.0,1.7716,1.8262,0.0,2.0631,2.0916,2.1109,2.1109,2.1109,2.1109,2.1109,2.1109,2.1109,2.1109,2.1109,2.1109,2.1109,2.1109,2.1109,2.0849,1.9686,1.9164,1.839,1.5944,1.5038,1.452,1.3095,1.2836,1.2804,1.2682,1.2649,1.2649,1.2649,1.1763,1.1068,1.0889,0.0,0.0,0.0,0.0,0.0,0.0,0.0,0.0,0.0,0.0,0.0,0.0,0.0,0.0,0.0,0.0,0.0,0.0,0.0,0.0,0.0,-0.2144,0.0,0.0,0.0,-0.4033,-0.4301,-0.6971,-0.8304,-0.8706,-1.0047,-1.0721,-1.0721,-1.0721,-1.0721,-1.0721,-1.0721,-1.0721,-1.0717,-1.0982,-1.1769,-1.2947,-1.4642,-1.5814,-1.685,0.0,0.0,0.0,0.0,0.0,0.0,0.0,1.6014,0.0,1.6286,1.6519,1.668,1.668,1.8047,1.881,1.8156,1.8682,1.92,1.9328,1.9845,2.0234,2.0361,2.0862,0.0,2.1109,2.0555,1.9533,1.8029,0.0,0.0,0.0,0.0,0.0,0.0,0.0,1.5993,0.0,0.0,0.0,1.9704,2.0664,2.1109,2.1109,2.1109,2.1109,2.1109,2.1109,2.1109,2.1109,2.1109,2.1109,2.0982,2.0202,2.0068,1.9686,1.8396,1.749,1.6586,1.5294,1.439,1.3613,1.2964,1.2836,1.2836,1.2836,1.2836,1.27,1.2033,1.1501,1.0777,0.9306,0.7936,0.0,0.0,0.0,0.0,0.0,0.0,0.0,0.0,0.0,0.0,0.0,0.0,0.0,0.0,0.0,0.0,0.0,0.0,0.0,0.0,0.0,0.0,0.0,0.0,0.0,-0.4301,-0.6435,-0.7905,-0.8706,-1.0047,-1.0721,-1.0721,-1.0721,-1.0721,-1.0721,-1.0721,-1.1115,-1.1901,-1.2553,-1.3337,-1.4124,-1.6338,-1.6985,-1.7238,0.0,1.0292,0.0,0.0,1.3378,0.0,0.0,1.7795,1.859,1.7088,1.6886,1.6886,1.6886,1.8183,1.9078,1.9078,1.9078,1.92,1.9577,1.9973,2.0234,2.0609,2.0856,2.1109,2.1109,2.1109,2.0221,0.0,0.0,0.0,0.0,0.0,0.0,0.0,0.0,0.0,0.0,0.0,1.917,1.8891,2.044,2.1109,2.1109,2.1109,2.1109,2.1109,2.0722,2.0589,2.0589,2.0335,2.0462,2.0462,1.9036,1.8524,1.8267,1.6974,1.5814,1.4777,1.452,1.3613,1.2836,1.2836,1.2836,1.2836,1.2836,1.2568,1.2301,1.1633,1.1365,1.0387,0.7951,0.7401,0.0,0.0,0.0,0.0,0.0,0.0,0.0,0.0,0.0,0.0,0.0,0.0,0.0,0.0,0.0,0.0,0.0,0.0,0.0,0.0,0.0,-0.2117,-0.2117,0.0,-0.3362,0.0,-0.6168,-0.7636,-0.9108,-1.0183,-1.0721,-1.0721,-1.0721,-1.085,-1.1111,-1.1111,-1.2033,-1.3341,-1.4516,-1.5038,-1.5554,-1.7899,-1.8156,-1.763,0.0,0.0,0.0,0.0,0.0,0.0,0.0,1.7906,1.9048,1.8842,1.883,1.883,1.883,1.903,1.9078,1.9078,1.9078,1.92,1.9577,1.9973,2.0234,2.0609,2.0856,2.1109,2.1109,2.1109,2.0628,0.0,0.0,0.0,0.0,0.0,0.0,0.0,0.0,0.0,0.0,1.862,1.9254,2.0863,2.1076,2.1109,2.1109,2.1109,2.1109,2.0976,1.968,1.9164,1.9036,1.7748,1.8139,1.8908,1.7619,1.7232,1.6845,1.5559,1.5038,1.4651,1.3354,1.2836,1.2836,1.2836,1.2836,1.2836,1.2836,1.2033,1.1633,1.2437,1.1901,1.0387,0.7951,0.7673,0.7401,0.0,0.0,0.0,0.0,0.0,0.0,0.0,0.0,0.0,0.0,0.0,0.0,0.0,0.0,0.0,0.0,0.0,0.0,-0.1973,0.0,-0.1993,-0.1993,-0.3408,0.0,-0.6166,-0.7638,-0.9108,-1.0452,-1.0588,-1.0721,-1.0721,-1.0721,-1.1376,-1.2557,-1.2557,-1.3473,-1.4777,-1.4907,-1.5684,-1.685,-1.7109,-1.7893,-1.8944,0.0,0.0,0.0,0.0,0.0,0.0,0.0,1.8607,1.9078,1.9078,1.9078,1.9078,1.9078,1.9078,1.9078,1.9078,1.9328,1.9584,1.9845,2.0227,2.0609,2.0862,2.0982,2.1109,2.1109,2.1109,2.0681,0.0,0.0,0.0,0.0,0.0,0.0,0.0,0.0,1.8676,1.9833,1.9859,2.0401,2.1109,2.1109,2.1109,2.1109,2.1109,2.0589,1.9814,1.9164,1.8524,1.7619,1.6198,1.6716,1.7619,1.6203,1.5684,1.5424,1.4002,1.3613,1.3486,1.2968,1.2836,1.2836,1.2836,1.2836,1.2568,1.2033,1.2033,1.1901,1.1104,1.0571,0.9575,0.7298,0.7323,0.7419,0.0,0.0,0.0,0.0,0.0,0.0,0.0,0.0,0.0,0.0,0.0,0.0,0.0,0.0,0.0,0.0,0.0,0.0,-0.1975,0.0,-0.2084,-0.2084,-0.2794,-0.4164,-0.6433,-0.6967,-0.844,-1.0721,-1.0721,-1.0721,-1.0721,-1.0721,-1.1508,-1.2816,-1.2816,-1.4119,-1.6203,-1.6203,-1.6985,-1.8285,-1.8285,-1.8682,-1.9078,1.5892,0.0,1.6815,0.0,1.7497,1.7801,1.8988,1.9078,1.9078,1.9078,1.9078,1.9078,1.9078,1.9078,1.92,1.92,1.945,1.9833,2.0234,2.0482,2.0736,2.1109,2.1109,0.0,2.1109,2.1109,2.0808,2.0187,1.9305,0.0,0.0,0.0,0.0,0.0,1.9526,1.994,2.0227,2.0848,2.1109,2.1109,2.1109,2.1109,2.1109,2.0589,1.9814,1.8908,1.8133,1.7232,1.6203,1.4782,1.4907,1.5554,1.4651,1.4263,1.4132,1.3095,1.2836,1.2836,1.2836,1.2836,1.2836,1.2836,1.2836,1.2568,1.1897,1.1769,1.1372,0.951,0.9111,0.8712,0.7252,0.7145,0.7044,0.6544,0.0,0.0,0.0,0.0,0.0,0.0,0.0,0.4559,0.382,0.0,0.0,0.0,0.0,0.0,0.0,0.0,0.0,0.0,0.0,0.0,0.0,-0.2137,-0.3629,-0.6433,-0.6433,-0.7902,-1.0721,-1.0721,-1.0721,-1.0721,-1.0721,-1.1508,-1.2816,-1.321,-1.4772,-1.698,-1.7501,-1.8156,-1.9078,-1.9078,-1.9078,-1.9078,1.779,1.7601,1.7741,1.9688,1.945,1.9066,1.9078,1.9078,1.9078,1.9078,1.9078,1.9078,1.9078,1.9078,1.92,1.9577,1.9577,1.9839,2.0609,2.0609,2.0736,0.0,0.0,2.1109,2.1109,2.1109,2.1102,2.1096,0.0,0.0,1.8885,0.0,1.837,1.9786,1.98,2.0281,2.1096,2.1109,2.1109,2.1109,2.1109,2.1109,2.0976,1.9553,1.9036,1.8646,1.5944,1.4907,1.4651,1.3358,1.2836,1.2836,1.2836,1.2836,1.2836,1.2836,1.2836,1.2836,1.2836,1.2836,1.2836,1.2836,1.2836,1.2836,1.2836,1.1108,0.9377,0.8176,0.8043,0.8043,0.8043,0.7111,0.6449,0.6453,0.0,0.0,0.0,0.0,0.0,0.0,0.3819,0.2709,0.3697,0.0,0.0,0.0,0.0,0.0,0.0,0.0,0.0,-0.1977,-0.1978,0.0,-0.1979,-0.2095,-0.3629,-0.6433,-0.6433,-0.7902,-1.0721,-1.0721,-1.0721,-1.0721,-1.0721,-1.1508,-1.2947,-1.4254,-1.5684,-1.7109,-1.8547,-1.9072,-1.9078,-1.9078,-1.9078,-1.9078,1.9754,1.9687,1.9525,1.9795,1.9577,1.9322,1.9078,1.9078,1.9078,1.9078,1.9078,1.9078,1.9078,1.9078,1.92,0.0,1.9839,2.01,0.0,2.0856,2.0982,2.1109,2.1109,2.1109,2.1109,2.1109,2.1109,2.1109,0.0,0.0,0.0,1.9232,1.9666,2.0688,2.0688,2.0848,2.1109,2.1109,2.1109,2.1109,2.1109,2.0589,1.968,1.9164,1.7876,1.6068,1.5168,1.4263,1.3354,1.2968,1.2836,1.2836,1.2836,1.2836,1.2836,1.2836,1.2836,1.2836,1.2836,1.2836,1.2836,1.2836,1.2836,1.2437,1.0972,0.9507,0.8443,0.8043,0.8043,0.7779,0.7118,0.6719,0.6453,0.6453,0.6453,0.0,0.0,0.0,0.0,0.0,0.3268,0.1961,0.0,0.1438,0.0,0.0,0.0,0.0,0.0,0.0,0.0,0.0,-0.2056,0.0,-0.2098,-0.2136,-0.3629,-0.6433,-0.6433,-0.7902,-1.0721,-1.0721,-1.0721,-1.0721,-1.0721,-1.1508,-1.2947,-1.4254,-1.5684,-1.7109,-1.8547,-1.9078,-1.9078,-1.9078,-1.9078,-1.9078,2.0862,2.0736,2.0482,1.9839,1.9705,1.945,1.92,1.9078,1.9078,1.9078,1.9078,1.92,1.9328,1.9328,0.0,1.9711,2.01,2.0482,2.0736,2.0982,2.1109,2.1109,2.1109,2.1109,2.1109,0.0,0.0,2.1109,2.0561,2.0294,2.0294,2.0294,2.0588,2.1109,2.1109,2.1109,2.1109,2.1109,2.1109,2.1109,2.0462,1.9814,1.8908,1.8396,1.6845,1.4907,1.4907,1.4006,1.2836,1.2836,1.2836,1.2836,1.2836,1.2836,1.2836,1.2836,1.2836,1.2836,1.2836,1.2836,1.2836,1.2836,1.2836,1.2305,1.0044,0.8709,0.791,0.7514,0.7381,0.725,0.6587,0.6453,0.6453,0.6453,0.6049,0.5646,0.5646,0.0,0.0,0.0,0.0,0.0,0.0,0.026,0.0,0.0,0.0,0.0,0.0,0.0,0.0,-0.2044,-0.2644,0.0,-0.296,-0.3495,-0.4966,-0.7234,-0.7769,-0.8975,-1.0721,-1.0721,-1.0721,-1.0721,-1.0721,-1.1244,-1.2161,-1.4124,-1.5424,-1.6462,-1.8291,-1.9078,-1.9078,-1.9078,-1.9078,-1.9078,2.1136,2.0889,0.0,0.0,1.9883,0.0,1.923,1.9084,1.9078,1.9078,1.9072,1.92,1.9577,1.9577,1.9839,2.0106,0.0,0.0,0.0,2.1109,2.1109,2.1109,2.1109,2.1109,2.1109,2.1109,2.1109,2.1109,2.1109,2.1109,2.1109,2.1109,2.1109,2.1109,2.1109,2.1109,2.1109,2.1109,2.1109,2.0982,1.9686,1.9042,1.8908,1.749,1.6073,1.4907,1.4782,1.387,1.2836,1.2836,1.2836,1.2836,1.2836,1.2836,1.2836,1.2836,1.2836,1.2836,1.2836,1.2836,1.2836,1.2836,1.2704,1.2037,0.9908,0.8712,0.7646,0.6719,0.6453,0.6453,0.6453,0.6453,0.6453,0.6453,0.5242,0.43,0.43,0.0,0.0,0.0,0.0,0.0,0.0,-0.149,-0.2032,0.0,0.0,0.0,0.0,0.0,-0.076,-0.2285,-0.3764,-0.4434,-0.4434,-0.5767,-0.71,-0.8573,-1.0047,-1.0721,-1.0721,-1.0721,-1.0721,-1.0853,-1.0853,-1.085,-1.1244,-1.3862,-1.5038,-1.5298,-1.8033,-1.9078,-1.9078,-1.9078,-1.9078,-1.9078,0.0,0.0,2.1258,2.0829,2.0688,2.0405,1.9504,1.9456,1.945,1.9078,1.9328,1.945,1.9577,2.0094,2.0348,2.0482,2.0609,2.0729,2.1109,2.1109,2.1109,2.1109,2.1109,2.1109,2.1109,2.1109,2.1109,2.1109,2.1109,2.1109,2.1109,2.1109,2.1109,2.1109,2.1109,2.1109,2.1109,2.1109,2.1109,2.1109,2.0722,1.9947,1.8908,1.749,1.6073,1.4782,1.3744,1.3095,1.2836,1.2836,1.2836,1.2836,1.2836,1.2836,1.2836,1.2836,1.2836,1.2836,1.2836,1.2836,1.2836,1.2836,1.1505,1.0041,0.8709,0.7648,0.6853,0.6587,0.6453,0.6453,0.6453,0.6453,0.6453,0.6453,0.5242,0.43,0.43,0.2149,0.0,0.0,-0.0791,-0.1715,-0.1847,-0.198,-0.2086,0.0,0.0,0.0,0.0,-0.2732,-0.3291,-0.3758,-0.5233,-0.59,-0.59,-0.6299,-0.71,-0.8573,-1.0047,-1.0721,-1.0721,-1.0721,-1.1244,-1.2293,-1.2293,-1.2947,-1.3993,-1.5809,-1.6457,-1.6721,-1.8419,-1.9078,-1.9078,-1.9078,-1.9078,-1.9078,2.175,2.175,2.1666,2.1304,2.1201,2.0966,2.031,2.0055,1.9912,1.9788,1.9776,1.9855,1.9979,2.0354,2.0609,2.0856,2.0862,2.0862,2.1109,2.1109,2.1109,2.1109,2.1109,2.1109,2.1109,2.1109,2.1109,2.1109,2.1109,2.1109,2.1109,2.1109,2.1109,2.1109,2.1109,2.1109,2.1109,2.1109,2.1109,2.0982,2.0462,1.9297,1.8011,1.7238,1.5684,1.3875,1.3744,1.3354,1.2836,1.2836,1.2836,1.2836,1.2836,1.2836,1.2836,1.2836,1.2836,1.2836,1.2836,1.2836,1.27,1.2169,1.0439,0.8709,0.8176,0.725,0.6453,0.6453,0.6453,0.6453,0.6453,0.6453,0.6453,0.6453,0.4734,0.339,0.3345,0.092,0.0,-0.0939,-0.175,-0.2155,-0.2155,-0.2155,-0.2128,-0.2063,0.0,0.0,-0.2058,-0.3976,-0.4939,-0.4296,-0.6303,-0.7369,-0.7369,-0.8038,-0.8706,-0.9513,-1.0316,-1.0721,-1.0717,-1.1376,-1.2029,-1.2816,-1.3473,-1.4124,-1.5038,-1.6462,-1.698,-1.7109,-1.8547,-1.9078,-1.9078,-1.9078,-1.9078,-1.9078,2.2051,2.2051,2.1932,2.158,2.156,2.1395,2.1003,2.0699,2.0454,2.0484,2.0291,2.0301,2.0572,2.0635,2.0729,2.1109,2.1109,2.1109,2.1109,2.1109,2.1109,2.1109,2.1109,2.1109,2.1109,2.1109,2.1109,2.1109,2.1109,2.1109,2.1109,2.1109,2.1109,2.1109,2.1109,2.1109,2.1109,2.1109,2.0982,2.0722,1.9425,1.8262,1.698,1.6721,1.5168,1.3227,1.4263,1.3875,1.2836,1.2836,1.2836,1.2836,1.2836,1.2836,1.2836,1.2836,1.2836,1.2836,1.2836,1.27,1.2301,1.0965,0.9371,0.791,0.7779,0.7118,0.6453,0.6453,0.6453,0.6453,0.6453,0.6453,0.6435,0.6247,0.3974,0.2152,0.1845,0.0,-0.2041,-0.2142,-0.2155,-0.2155,-0.2155,-0.2155,-0.2155,-0.2155,-0.2155,-0.2155,0.0,-0.4832,-0.59,-0.4701,-0.7372,-0.8975,-0.8975,-1.005,-1.0721,-1.0721,-1.0721,-1.0721,-1.0721,-1.1901,-1.2684,-1.321,-1.4385,-1.5168,-1.5689,-1.685,-1.7367,-1.7501,-1.8682,-1.9078,-1.9078,-1.9078,-1.9078,-1.9078,2.2352,2.2352,2.2163,2.1868,2.1849,2.1552,2.062,2.0691,2.0788,2.0485,2.0666,2.089,2.0967,2.1008,2.0982,2.1109,2.1109,2.1109,2.1109,2.1109,2.1109,2.1109,2.1109,2.1109,2.1109,2.1109,2.1109,2.1109,2.1109,2.1109,2.1109,2.1109,2.1109,2.1109,2.1109,2.1109,2.1109,2.1109,2.0462,1.9297,1.9036,1.8262,1.685,1.5684,1.4907,1.439,1.3486,1.2968,1.2836,1.2836,1.2836,1.2836,1.2836,1.2836,1.2836,1.2836,1.2836,1.2836,1.2836,1.2165,1.0965,0.8972,0.831,0.7779,0.6985,0.6587,0.6453,0.6453,0.6453,0.6453,0.6453,0.6453,0.6088,0.5035,0.3357,0.1699,0.0628,0.0,-0.2134,-0.2153,-0.2155,-0.2155,-0.2155,-0.2155,-0.2155,-0.2155,-0.2155,-0.2155,-0.2155,-0.4832,-0.6299,-0.6032,-0.8842,-1.0316,-1.0316,-1.0585,-1.0721,-1.0721,-1.0721,-1.0721,-1.0721,-1.0982,-1.2293,-1.4646,-1.4777,-1.6213,-1.8425,-1.8682,-1.881,-1.881,-1.9072,-1.9078,-1.9078,-1.9078,-1.9078,-1.9078,2.2659,2.2659,2.2563,2.2428,2.2479,2.2251,2.1712,2.1467,2.1462,2.1443,2.1179,2.1071,2.1311,2.1162,2.1109,2.1109,2.1109,2.1109,2.1109,2.1109,2.1109,2.1109,2.1109,2.1109,2.1109,2.1109,2.1109,2.1109,2.1109,2.1109,2.1109,2.1109,2.1109,2.1109,2.1109,2.1109,2.1109,2.0329,1.9553,1.8908,1.8267,1.7103,1.5814,1.5168,1.439,1.3744,1.2964,1.2836,1.2836,1.2836,1.2836,1.2836,1.2836,1.2836,1.27,1.2169,1.1901,1.1901,1.1901,1.07,0.9238,0.831,0.7646,0.7118,0.6587,0.6453,0.6453,0.6453,0.6453,0.6453,0.6453,0.6453,0.5998,0.4671,0.3217,0.0,0.0,-0.116,-0.2082,-0.2147,-0.2155,-0.2155,-0.2155,-0.2155,-0.2155,-0.2155,-0.2155,-0.2155,-0.2155,-0.4832,-0.6433,-0.6433,-0.9241,-1.0721,-1.0721,-1.0721,-1.0721,-1.0721,-1.0721,-1.0721,-1.0721,-1.1508,-1.2947,-1.4907,-1.5684,-1.7243,-1.9078,-1.9078,-1.9078,-1.9078,-1.9078,-1.9078,-1.9078,-1.9078,-1.9078,-1.9078,2.2859,2.2859,2.2859,2.2722,2.2722,2.2722,2.2729,2.2173,2.2095,2.2281,2.1671,2.124,2.1677,2.1329,2.1109,2.1109,2.1109,2.1109,2.1109,2.1109,2.1109,2.1109,2.1109,2.1109,2.1109,2.1109,2.1109,2.1109,2.1109,2.1109,2.1109,2.1109,2.1109,2.1109,2.1109,2.0976,2.0589,1.9425,1.8652,1.8005,1.698,1.5684,1.439,1.439,1.3744,1.2836,1.2836,1.2968,1.2968,1.2836,1.2968,1.2968,1.2836,1.2568,1.2301,1.1497,1.0833,1.0435,1.0435,0.9238,0.791,0.7646,0.7118,0.6453,0.6453,0.6453,0.6453,0.6453,0.6453,0.6453,0.6453,0.6453,0.5889,0.4093,0.0,0.0,0.0,-0.1414,-0.2052,-0.2144,-0.2155,-0.2155,-0.2155,-0.2155,-0.2155,-0.2155,-0.2155,-0.2155,-0.2155,-0.4832,-0.67,-0.7369,-0.9513,-1.0721,-1.0721,-1.0721,-1.0721,-1.0721,-1.0721,-1.0721,-1.0721,-1.1769,-1.321,-1.4907,-1.6073,-1.7507,-1.9078,-1.9078,-1.9078,-1.9078,-1.9078,-1.9078,-1.9078,-1.9078,-1.9078,-1.9078,2.2859,2.2859,2.2722,2.2448,2.231,2.2173,2.1904,2.2035,2.2304,2.2278,2.207,2.1977,2.1957,2.145,2.1109,2.1109,2.1109,2.1109,2.1109,2.1109,2.1109,2.1109,2.1109,2.1109,2.1109,2.1109,2.1109,2.1109,2.1109,2.1109,2.1109,2.1109,2.1109,2.1109,2.1109,2.0335,1.917,1.9036,1.749,1.5168,1.5038,1.4263,1.2968,1.2968,1.2836,1.2836,1.2836,1.3227,1.3748,1.2968,1.3227,1.3748,1.2968,1.2169,1.1365,1.123,0.9769,0.8176,0.8176,0.8176,0.7779,0.6853,0.6587,0.6453,0.6453,0.6453,0.6453,0.6453,0.6453,0.6453,0.6453,0.6453,0.5549,0.2876,0.0,0.0,-0.1502,-0.2077,-0.2145,-0.2154,-0.2155,-0.2155,-0.2155,-0.2155,-0.2155,-0.2155,-0.2155,-0.2155,-0.2155,-0.4832,-0.7636,-1.0316,-1.0585,-1.0721,-1.0721,-1.0721,-1.0721,-1.0721,-1.0721,-1.0721,-1.0721,-1.085,-1.2293,-1.4907,-1.5038,-1.6597,-1.9078,-1.9078,-1.9078,-1.9078,-1.9078,-1.9078,-1.9078,-1.9078,-1.9078,-1.9078,2.2859,2.2859,2.2866,2.2722,2.2722,2.2585,2.2448,2.2448,2.2448,2.2585,2.2077,2.172,2.1984,2.1456,2.1109,2.1109,2.1109,2.1109,2.1109,2.1109,2.1109,2.1109,2.1109,2.1109,2.1109,2.1109,2.1109,2.1109,2.1109,2.1109,2.1109,2.1109,2.1109,2.1109,2.0202,1.9553,1.8908,1.7232,1.5814,1.4777,1.4002,1.3223,1.2836,1.2836,1.3095,1.3486,1.3486,1.3879,1.4403,1.3748,1.3617,1.3875,1.3617,1.2425,1.0965,0.9637,0.8179,0.7118,0.7118,0.7118,0.6985,0.6587,0.6453,0.6453,0.6453,0.6721,0.6719,0.6587,0.6721,0.6719,0.6587,0.578,0.4536,0.2479,0.0,0.04,-0.1831,-0.2126,-0.2155,-0.2155,-0.2155,-0.2155,-0.2155,-0.2155,-0.2155,-0.2155,-0.2155,-0.2155,-0.2155,-0.4832,-0.7769,-1.0588,-1.0721,-1.0721,-1.0721,-1.0721,-1.0721,-1.0721,-1.0721,-1.1111,-1.2029,-1.2029,-1.3595,-1.6203,-1.6203,-1.7243,-1.9078,-1.9078,-1.9078,-1.9078,-1.9078,-1.9078,-1.9078,-1.9078,-1.9078,-1.9078,2.2859,2.2859,2.2859,2.2859,2.2859,2.2996,2.3536,2.2989,2.2819,2.3933,2.2545,2.1812,2.2367,2.1653,2.1109,2.1109,2.1109,2.1109,2.1109,2.1109,2.1109,2.1109,2.1109,2.1109,2.1109,2.1109,2.1109,2.1109,2.1109,2.1109,2.1109,2.1109,2.0849,2.0462,1.9425,1.878,1.8262,1.5944,1.4907,1.4782,1.3354,1.2836,1.2836,1.2836,1.3227,1.3875,1.3875,1.4534,1.5192,1.4403,1.401,1.3875,1.3613,1.2157,1.0038,0.8046,0.7118,0.6721,0.6721,0.6721,0.6855,0.6721,0.6721,0.6855,0.6855,0.6853,0.6985,0.6719,0.6719,0.6719,0.6587,0.5646,0.43,0.2416,0.1612,0.0403,-0.1885,-0.2155,-0.2155,-0.2155,-0.2155,-0.2155,-0.2155,-0.2155,-0.2155,-0.2155,-0.2155,-0.2557,-0.3495,-0.5767,-0.8171,-1.0588,-1.0721,-1.0721,-1.0721,-1.0721,-1.0721,-1.0721,-1.0721,-1.1244,-1.2161,-1.2161,-1.3726,-1.6333,-1.6333,-1.7378,-1.9078,-1.9078,-1.9078,-1.9078,-1.9078,-1.9078,-1.9072,-1.92,-1.92,-1.9328,2.2859,2.2859,2.2859,2.2859,2.2859,2.34,2.4738,2.3802,2.3819,2.6129,2.3854,2.2387,2.3333,2.2026,2.1109,2.1109,2.1109,2.1109,2.1109,2.1109,2.1109,2.1109,2.1109,2.1109,2.1109,2.1109,2.1109,2.1109,2.1109,2.1109,2.1109,2.1109,2.0329,1.9036,1.9036,1.8262,1.6974,1.5559,1.4907,1.4782,1.3354,1.2836,1.2836,1.2836,1.3227,1.3875,1.3875,1.4791,1.5844,1.5192,1.4403,1.3744,1.2947,1.0836,0.832,0.6989,0.6719,0.6985,0.6985,0.7254,0.739,0.7118,0.7254,0.7526,0.7526,0.7254,0.6985,0.6985,0.6719,0.6453,0.6453,0.6453,0.5508,0.255,0.2148,0.1074,-0.175,-0.2155,-0.2155,-0.2155,-0.2155,-0.2155,-0.2155,-0.2155,-0.2155,-0.2155,-0.2155,-0.3495,-0.6299,-0.7769,-0.9244,-1.0717,-1.0721,-1.0721,-1.0721,-1.0721,-1.0721,-1.0721,-1.0721,-1.0721,-1.0721,-1.0721,-1.2293,-1.4907,-1.4907,-1.6467,-1.9072,-1.9072,-1.9072,-1.9078,-1.9078,-1.9078,-1.92,-1.945,-1.9577,-1.9705,2.2859,2.2859,2.2859,2.2859,2.2859,2.2996,2.34,2.3126,2.3018,2.3511,2.2688,2.2002,2.2215,2.1531,2.1109,2.1109,2.1109,2.1109,2.1109,2.1109,2.1109,2.1109,2.1109,2.1109,2.1109,2.1109,2.1109,2.1109,2.1109,2.1109,2.1109,2.1109,2.0849,2.0462,1.9425,1.878,1.8262,1.5944,1.4907,1.4782,1.3354,1.2836,1.2836,1.2836,1.349,1.4539,1.4539,1.5448,1.6488,1.4791,1.401,1.3477,1.0969,1.0044,0.938,0.7655,0.7259,0.739,0.739,0.7658,0.7791,0.739,0.7393,0.7526,0.7526,0.7658,0.7655,0.7118,0.7123,0.7123,0.6853,0.6044,0.5101,0.4559,0.1476,-0.0806,-0.0403,-0.1346,-0.2155,-0.2155,-0.2155,-0.2155,-0.2155,-0.2155,-0.2155,-0.2155,-0.3094,-0.4433,-0.6299,-0.7769,-0.9244,-1.0717,-1.0721,-1.0721,-1.0721,-1.0721,-1.0721,-1.0721,-1.0721,-1.1244,-1.2161,-1.2161,-1.321,-1.4907,-1.4907,-1.5944,-1.763,-1.763,-1.8156,-1.9078,-1.9078,-1.92,-1.945,-1.9577,-1.9711,-1.9973,2.2859,2.34,2.3665,2.3665,2.4196,2.4595,2.4595,2.3961,2.3771,2.4496,2.3021,2.2339,2.3658,2.2209,2.1355,2.1846,2.1355,2.1109,2.1109,2.1109,2.1109,2.1109,2.1109,2.1109,2.1109,2.1109,2.1109,2.1109,2.1109,2.1109,2.1109,2.1109,2.0849,2.0202,1.9425,1.8652,1.8005,1.5814,1.4907,1.4782,1.3354,1.2836,1.2836,1.2836,1.3621,1.4931,1.4931,1.5839,1.6742,1.4917,1.3604,1.2157,0.9513,0.8984,0.9117,0.7925,0.766,0.7791,0.7791,0.8058,0.8189,0.8058,0.7925,0.7925,0.7925,0.8058,0.7922,0.7522,0.7524,0.7393,0.7254,0.6447,0.5772,0.5232,0.2146,-0.0134,0.0269,-0.1076,-0.2155,-0.2155,-0.2155,-0.2155,-0.2155,-0.202,-0.202,-0.2155,-0.3497,-0.4701,-0.5501,-0.6969,-0.844,-0.9779,-0.9915,-1.018,-1.0721,-1.0721,-1.0721,-1.0721,-1.0721,-1.1111,-1.2033,-1.2033,-1.2684,-1.4124,-1.4124,-1.4903,-1.6203,-1.6203,-1.6985,-1.8285,-1.8285,-1.8676,-1.945,-1.9711,-1.9973,-2.0234,2.2859,2.3938,2.4873,2.5008,2.6061,2.6972,2.7073,2.5764,2.5574,2.763,2.4382,2.3196,2.6319,2.345,2.1727,2.2827,2.1846,2.1109,2.1109,2.1109,2.1109,2.1109,2.1109,2.1109,2.1109,2.1109,2.1109,2.1109,2.1109,2.1109,2.1109,2.1109,2.0329,1.9036,1.9036,1.8262,1.685,1.5559,1.4907,1.4782,1.3354,1.2836,1.2836,1.2836,1.3621,1.48,1.4931,1.5709,1.6742,1.5168,1.2935,1.0439,0.872,0.8192,0.8058,0.7658,0.7791,0.8192,0.8192,0.8323,0.8587,0.8587,0.8587,0.8587,0.8587,0.8323,0.8192,0.8058,0.7791,0.7526,0.7526,0.7526,0.6987,0.5369,0.3892,0.2416,0.0672,-0.0941,-0.1885,-0.1885,-0.202,-0.2155,-0.2155,-0.175,-0.1616,-0.2155,-0.3497,-0.43,-0.43,-0.5633,-0.6967,-0.8304,-0.844,-0.8975,-1.0316,-1.0452,-1.0585,-1.0721,-1.0721,-1.0721,-1.0721,-1.0721,-1.1376,-1.2553,-1.2553,-1.3468,-1.4777,-1.4907,-1.5684,-1.698,-1.7103,-1.8022,-1.9334,-1.9845,-2.0106,-2.0234,2.2859,2.3133,2.3665,2.4873,2.527,2.571,2.6493,2.626,2.6131,2.6031,2.525,2.4444,2.3976,2.3201,2.2334,2.1601,2.1229,2.1109,2.1109,2.1109,2.1109,2.1109,2.1109,2.1109,2.1109,2.1109,2.1109,2.1109,2.1109,2.1109,2.1109,2.1109,2.0329,1.9036,1.9036,1.8262,1.685,1.5559,1.4907,1.4782,1.3354,1.2836,1.2836,1.2836,1.3358,1.4141,1.467,1.5453,1.5964,1.3984,1.2146,1.0439,0.8984,0.8454,0.8454,0.8323,0.8454,0.8454,0.8454,0.8587,0.8587,0.8587,0.8587,0.8587,0.8587,0.8587,0.8456,0.8192,0.8058,0.7925,0.7925,0.7925,0.7791,0.7386,0.5902,0.4693,0.429,0.1879,0.0269,0.0538,-0.0673,-0.175,-0.2155,-0.2155,-0.202,-0.2155,-0.3497,-0.43,-0.43,-0.5633,-0.6566,-0.6833,-0.6833,-0.6967,-0.7367,-0.844,-0.9646,-1.0721,-1.0721,-1.0721,-1.0721,-1.0721,-1.085,-1.1111,-1.1111,-1.1897,-1.3341,-1.4385,-1.5684,-1.7109,-1.8536,-1.9322,-1.9979,-2.0354,-2.0609,-2.1109,2.3529,2.4331,2.539,2.6737,2.7398,2.7744,2.7555,2.7227,2.6873,2.6504,2.5179,2.4758,2.5798,2.4178,2.3076,2.2959,2.2341,2.209,2.209,2.1481,2.1109,2.1109,2.1109,2.1109,2.1109,2.1109,2.1109,2.1109,2.1109,2.1109,2.1109,2.0462,1.9686,1.8908,1.839,1.7232,1.5944,1.5168,1.452,1.3875,1.3095,1.2836,1.2836,1.2836,1.3227,1.4006,1.4272,1.4268,1.3866,1.3062,1.1487,0.9513,0.8853,0.8587,0.8587,0.8587,0.8587,0.8587,0.8587,0.8587,0.8587,0.8587,0.8587,0.8587,0.8587,0.8587,0.8587,0.8323,0.8323,0.8323,0.8323,0.8323,0.8323,0.8189,0.6441,0.5099,0.4966,0.1612,-0.0538,-0.0404,-0.0807,-0.1481,-0.2155,-0.2155,-0.2155,-0.2155,-0.2826,-0.3362,-0.3362,-0.403,-0.4698,-0.5367,-0.5367,-0.5767,-0.6431,-0.71,-0.8304,-0.9646,-1.0319,-1.0721,-1.0721,-1.0721,-1.0721,-1.0721,-1.0721,-1.1115,-1.1901,-1.3341,-1.4768,-1.6452,-1.8016,-1.9194,-2.0106,-2.0482,-2.0862,-2.1229,2.4331,2.5793,2.7238,2.8918,2.9833,3.0094,2.9064,2.8355,2.7921,2.7747,2.5601,2.5285,2.837,2.5285,2.3566,2.4564,2.369,2.3076,2.3076,2.2097,2.1481,2.1481,2.1229,2.1109,2.1109,2.1109,2.1109,2.1109,2.1109,2.0982,2.0722,1.9553,1.878,1.8262,1.7361,1.6203,1.4907,1.4907,1.4263,1.3095,1.2836,1.2836,1.2836,1.2836,1.3227,1.3879,1.4006,1.3477,1.268,1.28,1.1219,0.9247,0.872,0.8587,0.8587,0.8587,0.8587,0.8587,0.8587,0.8587,0.8587,0.8587,0.8587,0.8587,0.8587,0.8587,0.8587,0.8587,0.8587,0.8587,0.8587,0.859,0.8459,0.8058,0.6717,0.524,0.403,0.0807,-0.1481,-0.1615,-0.1346,-0.148,-0.2147,-0.2147,-0.2145,-0.214,-0.214,-0.214,-0.214,-0.214,-0.2673,-0.387,-0.387,-0.4533,-0.559,-0.5871,-0.681,-0.8278,-0.9637,-1.0452,-1.0721,-1.0721,-1.0721,-1.0721,-1.0721,-1.0721,-1.085,-1.2553,-1.4115,-1.5544,-1.7367,-1.8932,-2.0234,-2.0609,-2.0982,-2.1481,2.4602,2.5135,2.5977,2.8328,2.8879,2.9138,2.9469,2.9392,2.9201,2.8864,2.8397,2.7993,2.7383,2.4794,2.3201,2.3325,2.3201,2.3076,2.3076,2.2952,2.2827,2.2827,2.1727,2.1109,2.1109,2.1109,2.1109,2.1109,2.1109,2.0462,1.9297,1.9036,1.7748,1.5554,1.6592,1.6203,1.4907,1.4907,1.4782,1.452,1.3223,1.2836,1.2836,1.2836,1.3227,1.4006,1.4539,1.5443,1.5954,1.3582,1.2533,1.1747,0.938,0.8587,0.8587,0.8587,0.8587,0.8587,0.8587,0.8587,0.8587,0.8587,0.8587,0.8587,0.8587,0.8587,0.8587,0.8587,0.8587,0.8587,0.8587,0.86,0.8475,0.8066,0.8081,0.66,0.2416,0.1612,0.1344,0.0941,-0.0807,-0.201,-0.2118,-0.2116,-0.2104,-0.2078,-0.2076,-0.2076,-0.2076,-0.2076,-0.2205,-0.2335,-0.2335,-0.2464,-0.2722,-0.3934,-0.5274,-0.6718,-0.8127,-0.951,-1.0721,-1.0721,-1.0721,-1.0721,-1.0721,-1.0721,-1.0982,-1.3853,-1.5154,-1.5669,-1.892,-2.0348,-2.0609,-2.0862,-2.1846,-2.2827,2.673,2.711,2.7597,2.952,2.952,2.9234,2.9505,2.9388,2.9177,2.9003,2.837,2.8002,2.8122,2.7134,2.6399,2.6399,2.566,2.4925,2.4186,2.3442,2.2834,2.1971,2.1481,2.1109,2.1109,2.1109,2.1109,2.1109,2.1109,2.0722,2.0202,1.9425,1.839,1.7232,1.7103,1.6592,1.6073,1.5168,1.4907,1.4782,1.3354,1.2836,1.2836,1.3227,1.3617,1.4006,1.5187,1.5448,1.5043,1.3325,1.2274,1.1222,0.9247,0.9117,0.9779,0.9779,0.9779,0.9779,0.9779,0.925,0.8587,0.8587,0.8587,0.8587,0.8587,0.8587,0.859,0.86,0.8603,0.8603,0.8609,0.8617,0.7942,0.618,0.7411,0.715,0.2957,0.0807,-0.0402,-0.0532,-0.1453,-0.2099,-0.2085,-0.2084,-0.2078,-0.2065,-0.2064,-0.2064,-0.2064,-0.2064,-0.2064,-0.2064,-0.2064,-0.2064,-0.2064,-0.2725,-0.3771,-0.5195,-0.5879,-0.7787,-1.0721,-1.0721,-1.0721,-1.0721,-1.0853,-1.0982,-1.1115,-1.3604,-1.5159,-1.6188,-1.853,-1.9954,-2.0856,-2.0202,-2.073,-2.1714]}]]